[[{"header":{"parameterUnit":"m.s-1","parameterCategory":1,"la1":31.0,"la2":29.5877,"lo1":-88.7671,"lo2":-86.6584,"dy":0.0162,"dx":0.0185,"nx":115,"ny":88,"refTime":"2024-06-22T18:00:00:Z","depth":0,"parameterNumber":2,"parameterNumberName":"U-component_of_WINDS"},"data":[0.0,0.0,0.0,0.0,0.0,0.0,0.0,0.0,0.0,0.0,0.0,0.0,0.0,0.0,0.0,0.0,0.0,0.0,0.0,0.0,0.0,0.0,0.0,0.0,0.0,0.0,0.0,0.0,0.0,0.0,0.0,0.0,0.0,0.0,0.0,0.0,0.0,0.0,0.0,0.0,0.0,0.0,0.0,0.0,0.0,0.0,0.0,0.0,0.0,0.0,0.0,0.0,0.0,0.0,0.0,0.0,0.0,0.0,0.0,0.0,0.0,0.0,0.0,0.0,0.0,0.0,0.0,0.0,0.0,0.0,0.0,0.0,0.0,0.0,0.0,0.0,0.0,0.0,0.0,0.0,0.0,0.0,0.0,0.0,0.0,0.0,0.0,0.0,0.0,0.0,0.0,0.0,0.0,0.0,0.0,0.0,0.0,0.0,0.0,0.0,0.0,0.0,0.0,0.0,0.0,0.0,0.0,0.0,0.0,0.0,0.0,0.0,0.0,0.0,0.0,0.0,0.0,0.0,0.0,0.0,0.0,0.0,0.0,0.0,0.0,0.0,0.0,0.0,0.0,0.0,0.0,0.0,0.0,0.0,0.0,0.0,0.0,0.0,0.0,0.0,0.0,0.0,0.0,0.0,0.0,0.0,0.0,0.0,0.0,0.0,0.0,0.0,0.0,0.0,0.0,0.0,0.0,0.0,0.0,0.0,0.0,0.0,0.0,0.0,0.0,0.0,0.0,0.0,0.0,0.0,0.0,0.0,0.0,0.0,0.0,0.0,0.0,0.0,0.0,0.0,0.0,0.0,0.0,0.0,0.0,0.0,0.0,0.0,0.0,0.0,0.0,0.0,0.0,0.0,0.0,0.0,0.0,0.0,0.0,0.0,0.0,0.0,0.0,0.0,0.0,0.0,0.0,0.0,0.0,0.0,0.0,0.0,0.0,0.0,0.0,0.0,0.0,0.0,0.0,0.0,0.0,0.0,0.0,0.0,0.0,0.0,0.0,0.0,0.0,0.0,0.0,0.0,0.0,0.0,0.0,0.0,0.0,0.0,0.0,0.0,0.0,0.0,0.0,0.0,0.0,0.0,0.0,0.0,0.0,0.0,0.0,0.0,0.0,0.0,0.0,0.0,0.0,0.0,0.0,0.0,0.0,0.0,0.0,0.0,0.0,0.0,0.0,0.0,0.0,0.0,0.0,0.0,0.0,0.0,0.0,0.0,0.0,0.0,0.0,0.0,0.0,0.0,0.0,0.0,0.0,0.0,0.0,0.0,0.0,0.0,0.0,0.0,0.0,0.0,0.0,0.0,0.0,0.0,0.0,0.0,0.0,0.0,0.0,0.0,0.0,0.0,0.0,0.0,0.0,0.0,0.0,0.0,0.0,0.0,0.0,0.0,0.0,0.0,0.0,0.0,0.0,0.0,0.0,0.0,0.0,0.0,0.0,0.0,0.0,0.0,0.0,0.0,0.0,0.0,0.0,0.0,0.0,0.0,0.0,0.0,0.0,0.0,0.0,0.0,0.0,0.0,0.0,0.0,0.0,0.0,0.0,0.0,0.0,0.0,0.0,0.0,0.0,0.0,0.0,0.0,0.0,0.0,0.0,0.0,0.0,0.0,0.0,0.0,0.0,0.0,0.0,0.0,0.0,0.0,0.0,0.0,0.0,0.0,0.0,0.0,0.0,0.0,0.0,0.0,0.0,0.0,0.0,0.0,0.0,0.0,0.0,0.0,0.0,0.0,0.0,0.0,0.0,0.0,0.0,0.0,0.0,0.0,0.0,0.0,0.0,0.0,0.0,0.0,0.0,0.0,0.0,0.0,0.0,0.0,0.0,0.0,0.0,0.0,0.0,0.0,0.0,0.0,0.0,0.0,0.0,0.0,0.0,0.0,0.0,0.0,0.0,0.0,0.0,0.0,0.0,0.0,0.0,0.0,0.0,0.0,0.0,0.0,0.0,0.0,0.0,0.0,0.0,0.0,0.0,0.0,0.0,0.0,0.0,0.0,0.0,0.0,0.0,0.0,0.0,0.0,0.0,0.0,0.0,0.0,0.0,0.0,0.0,0.0,0.0,0.0,0.0,0.0,0.0,0.0,0.0,0.0,0.0,0.0,0.0,0.0,0.0,0.0,0.0,0.0,0.0,0.0,0.0,0.0,0.0,0.0,0.0,0.0,0.0,0.0,0.0,0.0,0.0,0.0,0.0,0.0,0.0,0.0,0.0,0.0,0.0,0.0,0.0,0.0,0.0,0.0,0.0,0.0,0.0,0.0,0.0,0.0,0.0,0.0,0.0,0.0,0.0,0.0,0.0,0.0,0.0,0.0,0.0,0.0,0.0,0.0,0.0,0.0,0.0,0.0,0.0,0.0,0.0,0.0,0.0,0.0,0.0,0.0,0.0,0.0,0.0,0.0,0.0,0.0,0.0,0.0,0.0,0.0,0.0,0.0,0.0,0.0,0.0,0.0,0.0,0.0,0.0,0.0,0.0,0.0,0.0,0.0,0.0,0.0,0.0,0.0,0.0,0.0,0.0,0.0,0.0,0.0,0.0,0.0,0.0,0.0,0.0,0.0,0.0,0.0,0.0,0.0,0.0,0.0,0.0,0.0,0.0,0.0,0.0,0.0,0.0,0.0,0.0,0.0,0.0,0.0,0.0,0.0,0.0,0.0,0.0,0.0,0.0,0.0,0.0,0.0,0.0,0.0,0.0,0.0,0.0,0.0,0.0,0.0,0.0,0.0,0.0,0.0,0.0,0.0,0.0,0.0,0.0,0.0,0.0,0.0,0.0,0.0,0.0,0.0,0.0,0.0,0.0,0.0,0.0,0.0,0.0,0.0,0.0,0.0,0.0,0.0,0.0,0.0,0.0,0.0,0.0,0.0,0.0,0.0,0.0,0.0,0.0,0.0,0.0,0.0,0.0,0.0,0.0,0.0,0.0,0.0,0.0,0.0,0.0,0.0,0.0,0.0,0.0,0.0,0.0,0.0,0.0,0.0,0.0,0.0,0.0,0.0,0.0,0.0,0.0,0.0,0.0,0.0,0.0,0.0,0.0,0.0,0.0,0.0,0.0,0.0,0.0,0.0,0.0,0.0,0.0,0.0,0.0,0.0,0.0,0.0,0.0,0.0,0.0,0.0,0.0,0.0,0.0,0.0,0.0,0.0,0.0,0.0,0.0,0.0,0.0,0.0,0.0,0.0,0.0,0.0,0.0,0.0,0.0,0.0,0.0,0.0,0.0,0.0,0.0,0.0,0.0,0.0,0.0,0.0,0.0,0.0,0.0,0.0,0.0,0.0,0.0,0.0,0.0,0.0,0.0,0.0,0.0,0.0,0.0,0.0,0.0,0.0,0.0,0.0,0.0,0.0,0.0,0.0,0.0,0.0,0.0,0.0,0.0,0.0,0.0,0.0,0.0,0.0,0.0,0.0,0.0,0.0,0.0,0.0,0.0,0.0,0.0,0.0,0.0,0.0,0.0,0.0,0.0,0.0,0.0,0.0,0.0,0.0,0.0,0.0,0.0,0.0,0.0,0.0,0.0,0.0,0.0,0.0,0.0,0.0,0.0,0.0,0.0,0.0,0.0,0.0,0.0,0.0,0.0,0.0,0.0,0.0,0.0,0.0,0.0,0.0,0.0,0.0,0.0,0.0,0.0,0.0,0.0,0.0,0.0,0.0,0.0,0.0,0.0,0.0,0.0,0.0,0.0,0.0,0.0,0.0,0.0,0.0,0.0,0.0,0.0,0.0,0.0,0.0,0.0,0.0,0.0,0.0,0.0,0.0,0.0,0.0,0.0,0.0,0.0,0.0,0.0,0.0,0.0,0.0,0.0,0.0,0.0,0.0,0.0,0.0,0.0,0.0,0.0,0.0,0.0,0.0,0.0,0.0,0.0,0.0,0.0,0.0,0.0,0.0,0.0,0.0,0.0,0.0,0.0,0.0,0.0,0.0,0.0,0.0,0.0,0.0,0.0,0.0,0.0,0.0,0.0,0.0,0.0,0.0,0.0,0.0,0.0,0.0,0.0,0.0,0.0,0.0,0.0,0.0,0.0,0.0,0.0,0.0,0.0,0.0,0.0,0.0,0.0,0.0,0.0,0.0,0.0,0.0,0.0,0.0,0.0,0.0,0.0,0.0,0.0,0.0,0.0,0.0,0.0,0.0,0.0,0.0,0.0,0.0,0.0,0.0,0.0,0.0,0.0,0.0,0.0,0.0,0.0,0.0,0.0,0.0,0.0,0.0,0.0,0.0,0.0,0.0,0.0,0.0,-1.0826,0.0,0.0,0.0,0.0,0.0,0.0,0.0,0.0,0.0,0.0,0.0,0.0,0.0,0.0,0.0,0.0,0.0,0.0,0.0,0.0,0.0,0.0,0.0,0.0,0.0,0.0,0.0,0.0,0.0,0.0,0.0,0.0,0.0,0.0,0.0,0.0,0.0,0.0,0.0,0.0,0.0,0.0,0.0,0.0,0.0,0.0,0.0,0.0,0.0,0.0,0.0,0.0,0.0,0.0,0.0,0.0,0.0,0.0,0.0,0.0,0.0,0.0,0.0,0.0,0.0,0.0,0.0,0.0,0.0,0.0,0.0,0.0,0.0,0.0,0.0,0.0,0.0,0.0,0.0,0.0,0.0,0.0,0.0,0.0,0.0,0.0,0.0,0.0,0.0,0.0,0.0,0.0,0.0,0.0,0.0,0.0,0.0,0.0,0.0,0.0,0.0,0.0,0.0,0.0,0.0,0.0,0.0,0.0,0.0,0.0,-1.1747,-1.1986,-1.1333,-1.0998,-1.1093,0.0,0.0,0.0,0.0,0.0,0.0,0.0,0.0,0.0,0.0,0.0,0.0,0.0,0.0,0.0,0.0,0.0,0.0,0.0,0.0,0.0,0.0,0.0,0.0,0.0,0.0,0.0,0.0,0.0,0.0,0.0,0.0,0.0,0.0,0.0,0.0,0.0,0.0,0.0,0.0,0.0,0.0,0.0,0.0,0.0,0.0,0.0,0.0,0.0,0.0,0.0,0.0,0.0,0.0,0.0,0.0,0.0,0.0,0.0,0.0,0.0,0.0,0.0,0.0,0.0,0.0,0.0,0.0,0.0,0.0,0.0,0.0,0.0,0.0,0.0,0.0,0.0,0.0,0.0,0.0,0.0,0.0,0.0,0.0,0.0,0.0,0.0,0.0,0.0,0.0,0.0,0.0,0.0,0.0,0.0,0.0,0.0,0.0,0.0,0.0,0.0,0.0,0.0,0.0,0.0,0.0,0.0,0.0,0.0,0.0,0.0,0.0,-1.192,-1.1703,-1.1785,0.0,0.0,0.0,0.0,0.0,0.0,0.0,0.0,0.0,0.0,0.0,0.0,0.0,0.0,0.0,0.0,0.0,0.0,0.0,0.0,0.0,0.0,0.0,0.0,0.0,0.0,0.0,0.0,0.0,0.0,0.0,0.0,0.0,0.0,0.0,0.0,0.0,0.0,0.0,0.0,0.0,0.0,0.0,0.0,0.0,0.0,0.0,0.0,0.0,0.0,0.0,0.0,0.0,0.0,0.0,0.0,0.0,0.0,0.0,0.0,0.0,0.0,0.0,0.0,0.0,0.0,0.0,0.0,0.0,0.0,0.0,0.0,0.0,0.0,0.0,0.0,0.0,0.0,0.0,0.0,0.0,0.0,0.0,0.0,0.0,0.0,0.0,0.0,0.0,0.0,0.0,0.0,0.0,0.0,0.0,0.0,0.0,0.0,0.0,0.0,0.0,0.0,0.0,0.0,0.0,0.0,0.0,0.0,0.0,0.0,-1.1545,-1.3045,-1.3211,0.0,-1.3881,0.0,0.0,0.0,0.0,0.0,0.0,0.0,0.0,0.0,0.0,0.0,0.0,0.0,0.0,0.0,0.0,0.0,0.0,0.0,0.0,0.0,0.0,0.0,0.0,0.0,0.0,0.0,0.0,0.0,0.0,0.0,0.0,0.0,0.0,0.0,0.0,0.0,0.0,0.0,0.0,0.0,0.0,0.0,0.0,0.0,0.0,0.0,0.0,0.0,0.0,0.0,0.0,0.0,0.0,0.0,0.0,0.0,0.0,0.0,0.0,0.0,0.0,0.0,0.0,0.0,0.0,0.0,0.0,0.0,0.0,0.0,0.0,0.0,0.0,0.0,0.0,0.0,0.0,0.0,0.0,0.0,0.0,0.0,0.0,0.0,0.0,0.0,0.0,0.0,0.0,0.0,0.0,0.0,0.0,0.0,0.0,0.0,0.0,0.0,0.0,0.0,0.0,0.0,0.0,0.0,0.0,0.0,0.0,0.0,0.0,0.0,-1.3167,-1.3029,-1.3053,0.0,0.0,0.0,0.0,0.0,0.0,0.0,0.0,0.0,0.0,0.0,0.0,0.0,0.0,0.0,0.0,0.0,0.0,0.0,0.0,0.0,0.0,0.0,0.0,0.0,0.0,0.0,0.0,0.0,0.0,0.0,0.0,0.0,0.0,0.0,0.0,0.0,0.0,0.0,0.0,0.0,0.0,0.0,0.0,0.0,0.0,0.0,0.0,0.0,0.0,0.0,0.0,0.0,0.0,0.0,0.0,0.0,0.0,0.0,0.0,0.0,0.0,0.0,0.0,0.0,0.0,0.0,0.0,0.0,0.0,0.0,0.0,0.0,0.0,0.0,0.0,0.0,0.0,0.0,0.0,0.0,0.0,0.0,0.0,0.0,0.0,0.0,0.0,0.0,0.0,0.0,0.0,0.0,0.0,0.0,0.0,0.0,0.0,0.0,0.0,0.0,0.0,0.0,0.0,0.0,0.0,0.0,0.0,0.0,0.0,-1.2534,0.0,-1.3737,-1.3493,-1.3138,-1.2692,0.0,0.0,0.0,0.0,0.0,0.0,0.0,0.0,0.0,0.0,0.0,0.0,0.0,0.0,0.0,0.0,0.0,0.0,0.0,0.0,0.0,0.0,0.0,0.0,0.0,0.0,0.0,0.0,0.0,0.0,0.0,0.0,0.0,0.0,0.0,0.0,0.0,0.0,0.0,0.0,0.0,0.0,0.0,0.0,0.0,0.0,0.0,0.0,0.0,0.0,0.0,0.0,0.0,0.0,0.0,0.0,0.0,0.0,0.0,0.0,0.0,0.0,0.0,0.0,0.0,0.0,0.0,0.0,0.0,0.0,0.0,0.0,0.0,0.0,0.0,0.0,0.0,0.0,0.0,0.0,0.0,0.0,0.0,0.0,0.0,0.0,0.0,0.0,0.0,0.0,0.0,0.0,0.0,0.0,0.0,0.0,0.0,0.0,0.0,0.0,0.0,0.0,0.0,0.0,0.0,0.0,0.0,0.0,0.0,-1.2225,-1.2829,-1.511,-1.5168,-1.4449,0.0,0.0,0.0,0.0,0.0,0.0,0.0,0.0,0.0,0.0,0.0,0.0,0.0,0.0,0.0,0.0,0.0,0.0,0.0,0.0,0.0,0.0,0.0,0.0,0.0,0.0,0.0,0.0,0.0,0.0,0.0,0.0,0.0,0.0,0.0,0.0,0.0,0.0,0.0,0.0,0.0,0.0,0.0,0.0,0.0,0.0,0.0,0.0,0.0,0.0,0.0,0.0,0.0,0.0,0.0,0.0,0.0,0.0,0.0,0.0,0.0,0.0,0.0,0.0,0.0,0.0,0.0,0.0,0.0,0.0,0.0,0.0,0.0,0.0,0.0,0.0,0.0,0.0,0.0,0.0,0.0,0.0,0.0,0.0,0.0,0.0,0.0,0.0,0.0,0.0,0.0,0.0,0.0,0.0,0.0,0.0,0.0,0.0,0.0,0.0,0.0,0.0,0.0,0.0,0.0,0.0,0.0,0.0,0.0,-1.0984,-1.1723,-1.3407,-1.591,-1.3813,-1.2683,0.0,0.0,0.0,0.0,0.0,0.0,0.0,0.0,0.0,0.0,0.0,0.0,0.0,0.0,0.0,0.0,0.0,0.0,0.0,0.0,0.0,0.0,0.0,0.0,0.0,0.0,0.0,0.0,0.0,0.0,0.0,0.0,0.0,0.0,0.0,0.0,0.0,0.0,0.0,0.0,0.0,0.0,0.0,0.0,0.0,0.0,0.0,0.0,0.0,0.0,0.0,0.0,0.0,0.0,0.0,0.0,0.0,0.0,0.0,0.0,0.0,0.0,0.0,0.0,0.0,0.0,0.0,0.0,0.0,0.0,0.0,0.0,0.0,0.0,0.0,0.0,0.0,0.0,0.0,0.0,0.0,0.0,0.0,0.0,0.0,0.0,0.0,0.0,0.0,0.0,0.0,0.0,0.0,0.0,0.0,0.0,0.0,0.0,0.0,0.0,0.0,0.0,0.0,0.0,0.0,0.0,0.0,0.0,0.0,-1.0815,0.0,-1.4278,0.0,-1.3368,-1.1931,0.0,0.0,0.0,0.0,0.0,0.0,0.0,0.0,0.0,0.0,0.0,0.0,0.0,0.0,0.0,0.0,0.0,0.0,0.0,0.0,0.0,0.0,0.0,0.0,0.0,0.0,0.0,0.0,0.0,0.0,0.0,0.0,0.0,0.0,0.0,0.0,0.0,0.0,0.0,0.0,0.0,0.0,0.0,0.0,0.0,0.0,0.0,0.0,0.0,0.0,0.0,0.0,0.0,0.0,0.0,0.0,0.0,0.0,0.0,0.0,0.0,0.0,0.0,0.0,0.0,0.0,0.0,0.0,0.0,0.0,0.0,0.0,0.0,0.0,0.0,0.0,0.0,0.0,0.0,0.0,0.0,0.0,0.0,0.0,0.0,0.0,0.0,0.0,0.0,0.0,0.0,0.0,0.0,0.0,0.0,0.0,0.0,0.0,0.0,0.0,0.0,0.0,0.0,0.0,0.0,0.0,0.0,0.0,-1.0702,-1.2983,-1.4751,-1.5269,-1.447,-1.4111,-1.2535,0.0,0.0,0.0,0.0,0.0,0.0,0.0,0.0,0.0,0.0,0.0,0.0,0.0,0.0,0.0,0.0,0.0,0.0,0.0,0.0,0.0,0.0,0.0,0.0,0.0,0.0,0.0,0.0,0.0,0.0,0.0,0.0,0.0,0.0,0.0,0.0,0.0,0.0,0.0,0.0,0.0,0.0,0.0,0.0,0.0,0.0,0.0,0.0,0.0,0.0,0.0,0.0,0.0,0.0,0.0,0.0,0.0,0.0,0.0,0.0,0.0,0.0,0.0,0.0,0.0,0.0,0.0,0.0,0.0,0.0,0.0,0.0,0.0,0.0,0.0,0.0,0.0,0.0,0.0,0.0,0.0,0.0,0.0,0.0,0.0,0.0,0.0,0.0,0.0,0.0,0.0,0.0,0.0,0.0,0.0,0.0,0.0,0.0,0.0,0.0,0.0,0.0,0.0,0.0,0.0,0.0,0.0,0.0,0.0,-1.2369,-1.3733,-1.4928,-1.5723,-1.3541,-1.241,0.0,0.0,0.0,0.0,0.0,0.0,0.0,0.0,0.0,0.0,0.0,0.0,0.0,0.0,0.0,0.0,0.0,0.0,0.0,0.0,0.0,0.0,0.0,0.0,0.0,0.0,0.0,0.0,0.0,0.0,0.0,0.0,0.0,0.0,0.0,0.0,0.0,0.0,0.0,0.0,0.0,0.0,0.0,0.0,0.0,0.0,0.0,0.0,0.0,0.0,0.0,0.0,0.0,0.0,0.0,0.0,0.0,0.0,0.0,0.0,0.0,0.0,0.0,0.0,0.0,0.0,0.0,0.0,0.0,0.0,0.0,0.0,0.0,0.0,0.0,0.0,0.0,0.0,0.0,0.0,0.0,0.0,0.0,0.0,0.0,0.0,0.0,0.0,0.0,0.0,0.0,0.0,0.0,0.0,0.0,0.0,0.0,0.0,0.0,0.0,0.0,0.0,0.0,0.0,0.0,0.0,0.0,0.0,0.0,-1.3993,-1.4953,-1.5791,-1.6435,-1.4235,-1.3056,-1.3078,0.0,0.0,0.0,0.0,0.0,0.0,0.0,0.0,0.0,0.0,0.0,0.0,0.0,0.0,0.0,0.0,0.0,0.0,0.0,0.0,0.0,0.0,0.0,0.0,0.0,0.0,0.0,0.0,0.0,0.0,0.0,0.0,0.0,0.0,0.0,0.0,0.0,0.0,0.0,0.0,0.0,0.0,0.0,0.0,0.0,0.0,0.0,0.0,0.0,0.0,0.0,0.0,0.0,0.0,0.0,0.0,0.0,0.0,0.0,0.0,0.0,0.0,0.0,0.0,0.0,0.0,0.0,0.0,0.0,0.0,0.0,0.0,0.0,0.0,0.0,0.0,0.0,0.0,0.0,0.0,0.0,0.0,0.0,0.0,0.0,0.0,0.0,0.0,0.0,0.0,0.0,0.0,0.0,0.0,0.0,0.0,0.0,0.0,0.0,0.0,0.0,0.0,0.0,0.0,0.0,0.0,0.0,0.0,-1.7329,-1.797,-1.7761,-1.6735,-1.6054,-1.4384,0.0,0.0,0.0,0.0,0.0,0.0,0.0,0.0,0.0,0.0,0.0,0.0,0.0,0.0,0.0,0.0,0.0,0.0,0.0,0.0,0.0,0.0,0.0,0.0,0.0,0.0,0.0,0.0,0.0,0.0,0.0,0.0,0.0,0.0,0.0,0.0,0.0,0.0,0.0,0.0,0.0,0.0,0.0,0.0,0.0,0.0,0.0,0.0,0.0,0.0,0.0,0.0,0.0,0.0,0.0,0.0,0.0,0.0,0.0,0.0,0.0,0.0,0.0,0.0,0.0,0.0,0.0,0.0,0.0,0.0,0.0,0.0,0.0,0.0,0.0,0.0,0.0,0.0,0.0,0.0,0.0,0.0,0.0,0.0,0.0,0.0,0.0,0.0,0.0,0.0,0.0,0.0,0.0,0.0,0.0,0.0,0.0,0.0,0.0,0.0,0.0,0.0,0.0,0.0,0.0,0.0,0.0,0.0,0.0,-1.9054,-2.01,-2.027,-1.9549,-1.782,-1.6264,0.0,0.0,0.0,0.0,0.0,0.0,0.0,0.0,0.0,0.0,0.0,0.0,0.0,0.0,0.0,0.0,0.0,0.0,0.0,0.0,0.0,0.0,0.0,0.0,0.0,0.0,0.0,0.0,0.0,0.0,0.0,0.0,0.0,0.0,0.0,0.0,0.0,0.0,0.0,0.0,0.0,0.0,0.0,0.0,0.0,0.0,0.0,0.0,0.0,0.0,0.0,0.0,0.0,0.0,0.0,0.0,0.0,0.0,0.0,0.0,0.0,0.0,0.0,0.0,0.0,0.0,0.0,0.0,0.0,0.0,0.0,0.0,0.0,0.0,0.0,0.0,0.0,0.0,0.0,0.0,0.0,0.0,0.0,0.0,0.0,0.0,0.0,0.0,0.0,0.0,0.0,0.0,0.0,0.0,0.0,0.0,0.0,0.0,0.0,0.0,0.0,0.0,0.0,0.0,0.0,0.0,0.0,0.0,-1.844,-2.0479,-2.1603,-2.2073,-2.1747,-1.9769,-1.7843,0.0,0.0,0.0,0.0,0.0,0.0,0.0,0.0,0.0,0.0,0.0,0.0,0.0,0.0,0.0,0.0,0.0,0.0,0.0,0.0,0.0,0.0,0.0,0.0,0.0,0.0,0.0,0.0,0.0,0.0,0.0,0.0,0.0,0.0,0.0,0.0,0.0,0.0,0.0,0.0,0.0,0.0,0.0,0.0,0.0,0.0,0.0,0.0,0.0,0.0,0.0,0.0,0.0,0.0,0.0,0.0,0.0,0.0,0.0,0.0,0.0,0.0,0.0,0.0,0.0,0.0,0.0,0.0,0.0,0.0,0.0,0.0,0.0,0.0,0.0,0.0,0.0,0.0,0.0,0.0,0.0,0.0,0.0,0.0,0.0,0.0,0.0,0.0,0.0,0.0,0.0,0.0,0.0,0.0,0.0,0.0,0.0,0.0,0.0,0.0,0.0,0.0,0.0,0.0,0.0,0.0,0.0,0.0,-1.9812,-2.1472,-2.2688,-2.3248,-2.3156,-2.1629,-1.9235,0.0,0.0,0.0,0.0,0.0,0.0,0.0,0.0,0.0,0.0,0.0,0.0,0.0,0.0,0.0,0.0,0.0,0.0,0.0,0.0,0.0,0.0,0.0,0.0,0.0,0.0,0.0,0.0,0.0,0.0,0.0,0.0,0.0,0.0,0.0,0.0,0.0,0.0,0.0,0.0,0.0,0.0,0.0,0.0,0.0,0.0,0.0,0.0,0.0,0.0,0.0,0.0,0.0,0.0,0.0,0.0,0.0,0.0,0.0,0.0,0.0,0.0,0.0,0.0,0.0,0.0,0.0,0.0,0.0,0.0,0.0,0.0,0.0,0.0,0.0,0.0,0.0,0.0,0.0,0.0,0.0,0.0,0.0,0.0,0.0,0.0,0.0,0.0,0.0,0.0,0.0,0.0,0.0,0.0,0.0,0.0,0.0,0.0,0.0,0.0,0.0,0.0,0.0,0.0,0.0,0.0,0.0,0.0,-2.0231,-2.1498,-2.3093,-2.3694,-2.3195,-2.1982,-2.0335,0.0,0.0,0.0,0.0,0.0,0.0,0.0,0.0,0.0,0.0,0.0,0.0,0.0,0.0,0.0,0.0,0.0,0.0,0.0,0.0,0.0,0.0,0.0,0.0,0.0,0.0,0.0,0.0,0.0,0.0,0.0,0.0,0.0,0.0,0.0,0.0,0.0,0.0,0.0,0.0,0.0,0.0,0.0,0.0,0.0,0.0,0.0,0.0,-1.1113,0.0,0.0,0.0,0.0,0.0,0.0,0.0,0.0,0.0,0.0,0.0,0.0,0.0,0.0,0.0,0.0,0.0,0.0,0.0,0.0,0.0,0.0,0.0,0.0,0.0,0.0,0.0,0.0,0.0,0.0,0.0,0.0,0.0,0.0,0.0,0.0,0.0,0.0,0.0,0.0,0.0,0.0,0.0,0.0,0.0,0.0,0.0,0.0,0.0,0.0,0.0,0.0,0.0,0.0,0.0,0.0,0.0,0.0,0.0,-2.0847,-2.2256,-2.3485,-2.3939,-2.3587,-2.2544,-2.0963,0.0,0.0,0.0,0.0,0.0,0.0,0.0,0.0,0.0,0.0,0.0,0.0,0.0,0.0,0.0,0.0,0.0,0.0,0.0,0.0,0.0,0.0,0.0,0.0,0.0,0.0,0.0,0.0,0.0,0.0,0.0,0.0,0.0,0.0,0.0,0.0,0.0,0.0,0.0,0.0,0.0,0.0,0.0,0.0,0.0,0.0,0.0,0.0,0.0,0.0,0.0,0.0,0.0,0.0,0.0,0.0,0.0,0.0,0.0,0.0,0.0,0.0,0.0,0.0,0.0,0.0,0.0,0.0,0.0,0.0,0.0,0.0,0.0,0.0,0.0,0.0,0.0,0.0,0.0,0.0,0.0,0.0,0.0,0.0,0.0,0.0,0.0,0.0,0.0,0.0,0.0,0.0,0.0,0.0,0.0,0.0,0.0,0.0,0.0,0.0,0.0,0.0,0.0,0.0,0.0,0.0,0.0,-1.9344,-2.1251,-2.3074,-2.3754,-2.4067,-2.407,-2.2986,-2.1342,-1.912,0.0,0.0,0.0,0.0,0.0,0.0,0.0,0.0,0.0,0.0,0.0,0.0,0.0,0.0,0.0,0.0,0.0,0.0,0.0,0.0,0.0,0.0,0.0,0.0,0.0,0.0,0.0,0.0,0.0,0.0,0.0,0.0,0.0,0.0,0.0,0.0,0.0,0.0,-0.9774,-1.1477,0.0,0.0,0.0,0.0,0.0,0.0,0.0,0.0,-1.2517,0.0,0.0,0.0,0.0,0.0,0.0,0.0,0.0,0.0,0.0,0.0,0.0,0.0,0.0,0.0,0.0,0.0,0.0,0.0,0.0,0.0,0.0,0.0,0.0,0.0,0.0,0.0,0.0,0.0,0.0,0.0,0.0,0.0,0.0,0.0,0.0,0.0,0.0,0.0,0.0,0.0,0.0,0.0,0.0,0.0,0.0,0.0,0.0,0.0,0.0,0.0,0.0,0.0,0.0,0.0,0.0,-1.8305,-1.9166,-2.063,-2.2817,-2.3564,-2.3949,-2.3894,-2.2931,-2.1551,-1.9658,0.0,0.0,0.0,0.0,0.0,0.0,0.0,0.0,0.0,0.0,0.0,0.0,0.0,0.0,0.0,0.0,0.0,0.0,0.0,0.0,0.0,0.0,0.0,0.0,0.0,0.0,0.0,0.0,0.0,0.0,0.0,0.0,0.0,0.0,0.0,0.0,0.0,0.0,0.0,-1.3019,-1.4022,0.0,0.0,0.0,0.0,0.0,0.0,0.0,0.0,-1.273,0.0,0.0,0.0,0.0,0.0,0.0,0.0,0.0,0.0,0.0,0.0,0.0,0.0,0.0,0.0,0.0,0.0,0.0,0.0,0.0,0.0,0.0,0.0,0.0,0.0,0.0,0.0,0.0,0.0,0.0,0.0,0.0,0.0,0.0,0.0,0.0,0.0,0.0,0.0,0.0,0.0,0.0,0.0,0.0,0.0,0.0,0.0,0.0,0.0,0.0,0.0,0.0,0.0,0.0,0.0,-1.8449,-1.9645,-2.1166,-2.3141,-2.3546,-2.373,-2.3691,-2.2181,-2.0642,0.0,0.0,0.0,0.0,0.0,0.0,0.0,0.0,0.0,0.0,0.0,0.0,0.0,0.0,0.0,0.0,0.0,0.0,0.0,0.0,0.0,0.0,0.0,0.0,0.0,0.0,0.0,0.0,0.0,0.0,0.0,0.0,0.0,0.0,0.0,0.0,0.0,0.0,0.0,0.0,-1.3745,-1.44,-1.5211,0.0,0.0,0.0,0.0,0.0,0.0,-1.3735,-1.3207,0.0,0.0,0.0,0.0,0.0,0.0,0.0,0.0,0.0,0.0,0.0,0.0,0.0,0.0,0.0,0.0,0.0,0.0,0.0,0.0,0.0,0.0,0.0,0.0,0.0,0.0,0.0,0.0,0.0,0.0,0.0,0.0,0.0,0.0,0.0,0.0,0.0,0.0,0.0,0.0,0.0,0.0,0.0,0.0,0.0,0.0,0.0,0.0,0.0,0.0,0.0,0.0,0.0,0.0,0.0,-1.8444,-1.9927,-2.1591,-2.3395,-2.3526,-2.3569,-2.3531,-2.1668,-2.0001,0.0,0.0,0.0,0.0,0.0,0.0,0.0,0.0,0.0,0.0,0.0,0.0,0.0,0.0,0.0,0.0,0.0,0.0,0.0,0.0,0.0,0.0,0.0,0.0,0.0,0.0,0.0,0.0,0.0,0.0,0.0,0.0,0.0,0.0,0.0,0.0,0.0,0.0,0.0,0.0,0.0,-1.5041,-1.5743,-1.5869,0.0,0.0,0.0,0.0,-1.5663,-1.4757,0.0,0.0,0.0,0.0,0.0,0.0,0.0,0.0,0.0,0.0,0.0,0.0,0.0,0.0,0.0,0.0,0.0,0.0,0.0,0.0,0.0,0.0,0.0,0.0,0.0,0.0,0.0,0.0,0.0,0.0,0.0,0.0,0.0,0.0,0.0,0.0,0.0,0.0,0.0,0.0,0.0,0.0,0.0,0.0,0.0,0.0,0.0,0.0,0.0,0.0,0.0,0.0,0.0,0.0,0.0,0.0,-1.815,-1.9334,-2.0993,-2.3042,-2.333,-2.342,-2.3407,-2.2301,-2.0732,0.0,0.0,0.0,0.0,0.0,0.0,0.0,0.0,0.0,0.0,0.0,0.0,0.0,0.0,0.0,0.0,0.0,0.0,0.0,0.0,0.0,0.0,0.0,0.0,0.0,0.0,0.0,0.0,0.0,0.0,0.0,0.0,0.0,0.0,0.0,0.0,0.0,0.0,0.0,0.0,0.0,-1.6882,-1.645,-1.64,-1.6233,0.0,0.0,-1.6183,-1.5756,-1.6392,0.0,0.0,0.0,0.0,0.0,0.0,0.0,0.0,0.0,0.0,0.0,0.0,0.0,0.0,0.0,0.0,0.0,0.0,0.0,0.0,0.0,0.0,0.0,0.0,0.0,0.0,0.0,0.0,0.0,0.0,0.0,0.0,0.0,0.0,0.0,0.0,0.0,0.0,0.0,0.0,0.0,0.0,0.0,0.0,0.0,0.0,0.0,0.0,0.0,0.0,0.0,0.0,0.0,0.0,0.0,-1.5505,-1.8141,-1.9886,-2.1531,-2.3032,-2.3168,-2.3241,-2.3241,-2.1304,-1.9699,0.0,0.0,0.0,0.0,0.0,0.0,0.0,0.0,0.0,0.0,0.0,0.0,0.0,0.0,0.0,0.0,0.0,0.0,0.0,0.0,0.0,0.0,0.0,0.0,0.0,0.0,0.0,0.0,0.0,0.0,0.0,0.0,0.0,0.0,0.0,0.0,0.0,0.0,0.0,0.0,0.0,0.0,-1.6999,-1.7275,0.0,0.0,0.0,-1.7729,-1.72,0.0,0.0,0.0,0.0,0.0,0.0,0.0,0.0,0.0,0.0,0.0,0.0,0.0,0.0,0.0,0.0,0.0,0.0,0.0,0.0,0.0,0.0,0.0,0.0,0.0,0.0,0.0,0.0,0.0,0.0,0.0,0.0,0.0,0.0,0.0,0.0,0.0,0.0,0.0,0.0,0.0,0.0,0.0,0.0,0.0,0.0,0.0,0.0,0.0,0.0,0.0,0.0,0.0,0.0,0.0,0.0,0.0,-1.8191,-2.0376,-2.2033,-2.3058,-2.3095,-2.3095,-2.3058,-2.07,0.0,0.0,0.0,0.0,0.0,0.0,0.0,0.0,0.0,0.0,0.0,0.0,0.0,0.0,0.0,0.0,0.0,0.0,0.0,0.0,0.0,0.0,0.0,0.0,0.0,0.0,0.0,-0.6812,0.0,0.0,0.0,0.0,0.0,0.0,0.0,0.0,0.0,0.0,0.0,0.0,0.0,0.0,-1.73,-1.7762,-1.8254,-1.8606,0.0,0.0,-1.8857,-1.8444,-1.8179,-1.7652,0.0,0.0,0.0,0.0,0.0,0.0,0.0,0.0,0.0,0.0,0.0,0.0,0.0,0.0,0.0,0.0,0.0,0.0,0.0,0.0,0.0,0.0,0.0,0.0,0.0,0.0,0.0,0.0,0.0,0.0,0.0,0.0,0.0,0.0,0.0,0.0,0.0,0.0,0.0,0.0,0.0,0.0,0.0,0.0,0.0,0.0,0.0,0.0,0.0,0.0,0.0,0.0,0.0,0.0,0.0,-1.8179,-2.0363,-2.2033,-2.3058,-2.3095,-2.3095,-2.307,-2.1455,-1.9837,0.0,0.0,0.0,0.0,0.0,0.0,0.0,0.0,0.0,0.0,0.0,0.0,0.0,0.0,0.0,0.0,0.0,0.0,0.0,0.0,0.0,0.0,0.0,0.0,0.0,0.0,0.0,0.0,0.0,0.0,0.0,0.0,0.0,0.0,0.0,0.0,0.0,0.0,0.0,0.0,0.0,-1.8857,-1.8895,-1.9346,-1.9698,0.0,0.0,-1.8983,-1.8958,-1.9346,-1.8932,-1.6839,0.0,0.0,0.0,0.0,0.0,0.0,0.0,0.0,0.0,0.0,0.0,0.0,0.0,0.0,0.0,0.0,0.0,0.0,0.0,0.0,0.0,0.0,0.0,0.0,0.0,0.0,0.0,0.0,0.0,0.0,0.0,0.0,0.0,0.0,0.0,0.0,0.0,0.0,0.0,0.0,0.0,0.0,0.0,0.0,0.0,0.0,0.0,0.0,0.0,0.0,0.0,0.0,0.0,-1.6153,-1.8657,-2.0539,-2.202,-2.3045,-2.3095,-2.3095,-2.3095,-2.1531,-2.0075,0.0,0.0,0.0,0.0,0.0,0.0,0.0,0.0,0.0,0.0,0.0,0.0,0.0,0.0,0.0,0.0,0.0,0.0,0.0,0.0,0.0,0.0,0.0,0.0,0.0,0.0,0.0,0.0,-0.8449,-0.8663,-0.9227,0.0,0.0,0.0,0.0,0.0,0.0,0.0,0.0,0.0,0.0,-1.9121,-1.9434,-2.0263,0.0,0.0,-2.0966,-2.0901,-2.0589,-2.0125,-1.9409,-1.823,-1.7388,0.0,0.0,0.0,0.0,0.0,0.0,0.0,0.0,0.0,0.0,0.0,0.0,0.0,0.0,0.0,0.0,0.0,0.0,0.0,0.0,0.0,0.0,0.0,0.0,0.0,0.0,0.0,0.0,0.0,0.0,0.0,0.0,0.0,0.0,0.0,0.0,0.0,0.0,0.0,0.0,0.0,0.0,0.0,0.0,0.0,0.0,0.0,0.0,0.0,0.0,0.0,0.0,-1.6409,-1.897,-2.0978,-2.2435,-2.3346,-2.3358,-2.3358,-2.3321,-2.1619,-2.0176,0.0,0.0,0.0,0.0,0.0,0.0,0.0,0.0,0.0,0.0,0.0,0.0,0.0,0.0,0.0,0.0,0.0,0.0,0.0,0.0,0.0,0.0,0.0,0.0,0.0,0.0,0.0,0.0,-0.9239,-0.9491,-0.9855,0.0,0.0,0.0,0.0,0.0,0.0,0.0,0.0,0.0,0.0,-1.991,-2.045,-2.123,-2.1794,-2.1958,-2.2033,-2.192,-2.1543,-2.0828,-2.0012,-1.9133,0.0,0.0,0.0,0.0,0.0,0.0,0.0,0.0,0.0,0.0,0.0,0.0,0.0,0.0,0.0,0.0,0.0,0.0,0.0,0.0,0.0,0.0,0.0,0.0,0.0,0.0,0.0,0.0,0.0,0.0,-0.9002,0.0,0.0,0.0,0.0,0.0,0.0,0.0,0.0,0.0,0.0,0.0,0.0,0.0,0.0,0.0,0.0,0.0,0.0,0.0,0.0,0.0,0.0,-1.6798,-1.9008,-2.1666,-2.3346,-2.3966,-2.3979,-2.3966,-2.3916,-2.186,-2.0189,-1.8995,0.0,0.0,0.0,0.0,0.0,0.0,0.0,0.0,0.0,0.0,0.0,0.0,0.0,0.0,0.0,0.0,0.0,0.0,0.0,0.0,0.0,0.0,0.0,0.0,0.0,0.0,-0.91,-0.9579,-0.9893,0.0,0.0,0.0,0.0,0.0,0.0,0.0,0.0,0.0,0.0,-2.028,-2.1503,-2.2142,-2.2255,-2.251,-2.2995,-2.2246,-2.1556,-2.1581,-2.1481,-2.0916,0.0,0.0,0.0,0.0,0.0,0.0,0.0,0.0,0.0,0.0,0.0,0.0,0.0,0.0,0.0,0.0,0.0,0.0,0.0,0.0,0.0,0.0,0.0,0.0,0.0,0.0,0.0,-1.1738,-1.1976,0.0,0.0,0.0,0.0,0.0,0.0,0.0,0.0,0.0,0.0,0.0,-1.9346,-2.0413,0.0,0.0,0.0,0.0,0.0,0.0,0.0,0.0,0.0,0.0,0.0,0.0,-1.7513,-2.0101,-2.2108,-2.3572,-2.4474,-2.4192,-2.3991,-2.3979,-2.2548,-2.0552,-1.8016,0.0,0.0,0.0,0.0,0.0,0.0,0.0,0.0,0.0,0.0,0.0,0.0,0.0,0.0,0.0,0.0,0.0,0.0,0.0,0.0,0.0,0.0,0.0,0.0,0.0,-0.9968,0.0,0.0,0.0,0.0,0.0,0.0,0.0,0.0,0.0,0.0,0.0,-1.8262,-1.9924,-2.0767,-2.1608,-2.2664,-2.3188,-2.3627,0.0,0.0,0.0,0.0,0.0,0.0,0.0,0.0,0.0,0.0,0.0,0.0,0.0,0.0,-2.1591,-1.8505,-1.7626,-1.7313,-1.7146,0.0,0.0,0.0,0.0,0.0,0.0,0.0,0.0,0.0,0.0,0.0,0.0,0.0,0.0,0.0,0.0,-1.4474,0.0,0.0,0.0,0.0,0.0,0.0,0.0,0.0,-2.0639,-2.1933,-2.2175,-2.3238,-2.3364,0.0,-2.2083,-2.0125,0.0,0.0,0.0,0.0,0.0,0.0,0.0,0.0,-1.838,-2.093,-2.2786,-2.4136,-2.5021,-2.4556,-2.428,-2.4255,-2.2824,-2.0828,-1.8304,-1.6832,-1.5429,0.0,0.0,0.0,0.0,0.0,0.0,0.0,0.0,0.0,0.0,0.0,0.0,0.0,0.0,0.0,0.0,0.0,0.0,0.0,0.0,0.0,0.0,0.0,-1.0938,0.0,0.0,0.0,0.0,0.0,0.0,0.0,0.0,0.0,-1.7233,-1.8449,-1.9952,-2.1547,-2.2122,-2.2703,-2.3566,0.0,0.0,0.0,0.0,0.0,0.0,0.0,-2.2761,-2.3058,-2.223,-2.1656,-2.1995,-2.2945,-2.3559,-2.3183,0.0,0.0,-2.1001,-2.0161,-1.9885,-1.9898,-2.0036,-2.0149,-2.0136,-2.0589,-2.0926,0.0,0.0,0.0,0.0,0.0,0.0,0.0,0.0,-1.6335,-1.6686,0.0,-1.7263,0.0,0.0,0.0,0.0,0.0,-1.9258,0.0,0.0,-2.4086,-2.5347,-2.4971,-2.5996,-2.5937,-2.4963,-2.5372,-2.4469,-2.2259,-1.8607,0.0,0.0,0.0,0.0,0.0,0.0,-1.9371,-2.1559,-2.3715,-2.5084,-2.5586,-2.5109,-2.4788,-2.4687,-2.2673,-2.1004,-1.9874,-1.8794,-1.7476,-1.5852,-1.4168,0.0,0.0,0.0,0.0,0.0,0.0,0.0,0.0,0.0,0.0,0.0,0.0,0.0,0.0,0.0,0.0,0.0,0.0,0.0,0.0,-1.1139,0.0,0.0,0.0,0.0,0.0,0.0,0.0,0.0,0.0,0.0,-1.8951,-2.0736,-2.2561,-2.3554,0.0,0.0,0.0,0.0,-2.4843,-2.4938,-2.4901,-2.4738,-2.4268,-2.4556,-2.4487,-2.3484,0.0,0.0,-2.3471,-2.4186,-2.46,-2.3496,-2.4299,-2.4888,-2.4883,-2.3797,-2.307,-2.3058,-2.2631,-2.238,-2.238,-2.2664,-2.3027,-1.9634,0.0,0.0,0.0,0.0,-1.8217,-1.888,-2.0041,-2.0192,-2.0202,-2.0171,-2.0522,0.0,0.0,0.0,0.0,0.0,0.0,-2.2862,-2.3703,-2.5456,-2.6361,-2.6603,-2.7293,-2.7469,-2.7168,-2.6917,-2.6276,-2.5255,-2.3376,-2.0602,-1.7074,0.0,0.0,0.0,0.0,-2.1242,-2.2644,-2.4456,-2.5649,-2.6223,-2.5661,-2.5008,-2.4255,-2.2836,-2.1744,-2.1016,-1.9936,-1.8769,-1.7526,-1.5894,0.0,0.0,0.0,0.0,0.0,0.0,0.0,0.0,0.0,0.0,0.0,0.0,0.0,0.0,0.0,0.0,0.0,0.0,0.0,-1.2184,-1.2535,-1.3112,0.0,0.0,0.0,0.0,0.0,0.0,0.0,0.0,0.0,-2.1608,-2.2943,-2.3877,0.0,0.0,-2.4681,-2.4924,-2.5203,-2.5801,-2.6964,0.0,0.0,0.0,-2.6402,-2.6185,-2.6603,-2.6919,-2.7055,-2.6741,-2.6919,-2.7055,-2.6703,-2.6942,-2.7155,-2.7055,-2.5578,-2.4412,-2.4299,-2.4173,-2.4042,-2.3916,-2.3996,-2.4076,-2.249,-2.1176,-2.0462,-2.0352,-2.0555,-2.0498,-2.1052,-2.2122,-2.2442,-2.2734,-2.2983,-2.3541,-2.3062,-2.1874,-2.1603,0.0,0.0,0.0,-2.4933,-2.5837,-2.6942,-2.762,-2.7959,-2.8499,-2.8649,-2.8423,-2.8097,-2.7645,-2.7128,-2.6226,-2.423,-2.1192,0.0,0.0,-1.9397,-2.1204,-2.2669,-2.376,-2.4983,-2.5875,-2.6474,-2.5699,-2.487,-2.4017,-2.3083,-2.2284,-2.1518,-2.084,-1.9874,-1.8581,-1.7149,-1.5706,0.0,0.0,0.0,0.0,0.0,0.0,0.0,0.0,0.0,0.0,0.0,-0.9115,-0.7678,0.0,0.0,0.0,-1.0995,-1.2392,-1.331,-1.4305,0.0,0.0,0.0,0.0,0.0,0.0,0.0,-1.9765,-2.166,-2.3084,-2.3417,-2.4803,-2.5665,-2.5325,-2.5673,-2.6034,-2.6214,0.0,-2.6576,-2.79,-2.7791,-2.7705,-2.8024,-2.7557,-2.7344,-2.7996,-2.8109,-2.8109,-2.8109,-2.8109,-2.8109,-2.8109,-2.8109,-2.8109,-2.8109,-2.6934,-2.6036,-2.6092,-2.607,-2.5956,-2.5819,-2.5738,-2.5669,-2.46,-2.4498,-2.2832,-2.2097,-2.2056,-2.248,-2.2656,-2.2735,-2.3593,-2.4441,-2.5326,-2.6085,-2.6009,-2.5288,-2.4624,0.0,-2.5164,-2.6201,-2.6954,-2.7555,-2.8524,-2.8963,-2.8988,-2.9541,-2.9515,-2.9001,-2.8963,-2.8737,-2.8235,-2.7682,-2.6892,-2.5824,-2.3803,-2.2661,-2.2472,-2.3075,-2.386,-2.4825,-2.541,-2.5937,-2.6461,-2.5385,-2.455,-2.4079,-2.3396,-2.2569,-2.1619,-2.1455,-2.0727,-1.9208,-1.8066,-1.697,-1.5831,0.0,0.0,0.0,0.0,0.0,0.0,0.0,0.0,0.0,0.0,0.0,0.0,0.0,0.0,0.0,-1.4474,0.0,-1.435,-1.6424,0.0,0.0,0.0,-1.8988,-1.8097,-2.1317,-2.2885,-2.0944,0.0,0.0,-2.4403,0.0,-2.7447,-2.7431,-2.7743,-2.794,-2.7939,-2.7109,-2.6971,-2.7829,-2.732,-2.7108,-2.7953,-2.8113,-2.815,-2.8138,-2.8161,-2.8261,-2.831,-2.831,-2.8273,-2.831,-2.8223,-2.8223,-2.8211,-2.8002,-2.7953,-2.8075,-2.7877,-2.7693,-2.7569,-2.741,-2.7238,-2.5564,-2.5523,-2.5088,-2.4519,-2.3867,-2.396,-2.4022,-2.4095,-2.4958,-2.5606,-2.6103,-2.6907,-2.7333,-2.7381,-2.7199,-2.7431,-2.7935,-2.8222,-2.8649,-2.9202,-2.9465,-2.9578,-2.9603,-2.9729,-2.9729,-2.9591,-2.9578,-2.9515,-2.9365,-2.8812,-2.8398,-2.806,-2.7193,-2.5686,-2.3728,-2.4971,-2.5573,-2.5423,-2.6009,-2.6348,-2.6461,-2.5385,-2.4757,-2.4587,-2.3251,-2.2385,-2.2121,-2.1333,-2.0704,-2.0302,-1.8832,-1.7689,-1.7021,-1.4344,0.0,0.0,0.0,0.0,0.0,0.0,0.0,0.0,0.0,-1.2291,-1.0121,0.0,-1.3069,0.0,-1.589,-1.726,-1.8004,-1.8763,0.0,0.0,-2.0522,-2.0816,-2.215,-2.2202,-2.2267,-2.2756,-2.3563,-2.4241,-2.4602,-2.5442,-2.6259,-2.6887,-2.6904,-2.6845,-2.6655,-2.5849,-2.5776,-2.7041,-2.6989,-2.6944,-2.7924,-2.8543,-2.8739,-2.8441,-2.879,-2.9161,-2.939,-2.939,-2.939,-2.939,-2.925,-2.9123,-2.9047,-2.893,-2.8815,-2.8816,-2.8186,-2.7533,-2.736,-2.7297,-2.7223,-2.593,-2.593,-2.593,-2.5585,-2.5075,-2.4879,-2.4693,-2.4583,-2.5421,-2.5926,-2.6161,-2.7431,-2.8325,-2.8863,-2.885,-2.9026,-2.9315,-2.9276,-2.949,-2.9779,-2.9779,-2.9779,-2.9779,-2.9779,-2.9779,-2.9779,-2.9779,-2.9779,-2.9767,-2.9465,-2.9302,-2.9315,-2.9001,-2.7971,-2.6302,-2.6866,-2.7042,-2.6728,-2.6826,-2.6738,-2.6474,-2.5385,-2.4707,-2.4431,-2.3271,-2.2322,-2.1606,-2.1257,-2.0717,-1.9949,-1.8832,-1.8066,-1.7727,-1.558,-1.4181,0.0,0.0,0.0,0.0,0.0,0.0,0.0,0.0,0.0,0.0,0.0,-1.4443,-1.5286,-1.7322,-1.883,-1.9447,-2.0431,-2.1365,-2.2043,-2.2216,-2.2623,-2.3534,-2.3591,-2.3833,-2.4536,-2.4827,-2.5159,-2.5653,-2.6233,-2.6648,-2.6689,-2.6554,-2.6669,-2.711,-2.6642,-2.676,-2.8051,-2.7758,-2.7718,-2.8712,-2.917,-2.9351,-2.917,-2.9365,-2.965,-2.9753,-2.9779,-2.9792,-2.965,-2.9521,-2.9392,-2.9275,-2.9118,-2.8961,-2.8888,-2.8431,-2.7977,-2.7916,-2.7851,-2.7736,-2.6061,-2.6051,-2.6051,-2.602,-2.5937,-2.5564,-2.5096,-2.4748,-2.5477,-2.5888,-2.6168,-2.7874,-2.9079,-2.9779,-2.9779,-2.9779,-2.9779,-2.9779,-2.9779,-2.9779,-2.9779,-2.9779,-2.9779,-2.9779,-2.9779,-2.9779,-2.9779,-2.9779,-2.9779,-2.9779,-2.9779,-2.9779,-2.9779,-2.9541,-2.9001,-2.8561,-2.8247,-2.8109,-2.7557,-2.709,-2.66,-2.5485,-2.4657,-2.4104,-2.3384,-2.2309,-2.0893,-2.1194,-2.0727,-1.9309,-1.8757,-1.848,-1.838,-1.6886,-1.5982,0.0,-1.5028,0.0,0.0,0.0,0.0,0.0,0.0,0.0,0.0,-1.6126,-1.6415,-1.6579,-1.8969,-2.041,-2.017,-2.1889,-2.2784,-2.2258,-2.3488,-2.4147,-2.3652,-2.4886,-2.5764,-2.5712,-2.6155,-2.6442,-2.6389,-2.7232,-2.7395,-2.6595,-2.6678,-2.7168,-2.8108,-2.7867,-2.7758,-2.9131,-2.8831,-2.8462,-2.9052,-2.9468,-2.9624,-2.9624,-2.9624,-2.974,-2.9792,-2.9753,-2.965,-2.947,-2.9341,-2.9263,-2.9131,-2.8922,-2.8843,-2.8831,-2.8636,-2.8533,-2.8652,-2.8521,-2.851,-2.704,-2.705,-2.705,-2.6822,-2.648,-2.6351,-2.6061,-2.5627,-2.5795,-2.6433,-2.7486,-2.8946,-2.9624,-2.9779,-2.9779,-2.9779,-2.9779,-2.9779,-2.9779,-2.9779,-2.9779,-2.9779,-2.9779,-2.9779,-2.9779,-2.9779,-2.9779,-2.9779,-2.9779,-2.9779,-2.9779,-2.9779,-2.9779,-2.9729,-2.9628,0.0,0.0,0.0,-2.7605,-2.7278,-2.7128,-2.6025,-2.5197,-2.4625,-2.3208,0.0,-2.1368,-2.1031,-2.0717,-2.0402,-2.0289,0.0,0.0,0.0,0.0,0.0,0.0,0.0,0.0,0.0,0.0,0.0,-1.9265,-1.8475,-1.709,-1.9123,-2.0307,-1.9867,-2.1497,-2.2781,-2.3161,-2.385,-2.4221,-2.3979,-2.4476,-2.465,-2.4147,-2.4386,-2.448,-2.4257,-2.451,-2.4743,-2.4893,-2.5579,-2.6193,-2.6027,-2.7017,-2.7931,-2.8371,-2.6912,-2.6005,-2.6483,-2.7597,-2.7931,-2.7435,-2.8514,-2.9209,-2.8922,-2.9197,-2.9521,-2.974,-2.9611,-2.947,-2.938,-2.9133,-2.8961,-2.9052,-2.8934,-2.8803,-2.8803,-2.8764,-2.8685,-2.8578,-2.855,-2.851,-2.7458,0.0,-2.732,-2.7164,0.0,-2.6957,-2.6832,-2.6527,-2.6072,-2.6799,-2.8241,-2.8627,-2.9312,-3.0181,-2.9917,-2.9779,-2.9779,-2.9779,-2.9779,-2.9779,-2.9779,-2.9779,-2.9779,-2.9779,-2.9779,-2.9779,-2.9779,-2.9779,-2.9779,-2.9779,-2.9779,-2.9779,-2.9779,-2.9779,-2.9779,-2.9779,-2.9365,-2.8474,-2.8235,-2.7959,-2.7657,-2.659,-2.5762,-2.5184,0.0,0.0,0.0,0.0,0.0,0.0,0.0,0.0,0.0,0.0,0.0,-1.9824,-1.9823,-1.9828,-1.9873,-2.0225,-2.0558,-2.0831,-2.0864,-2.0284,-1.8871,-2.0293,-2.1275,-2.1335,-2.2094,-2.2809,-2.3528,-2.3804,-2.4062,-2.4294,-2.4504,-2.4524,-2.437,-2.4249,-2.4358,-2.4712,-2.4807,-2.4978,-2.5432,-2.5913,-2.6038,-2.5631,-2.6257,-2.6905,-2.6976,-2.6801,-2.676,-2.7087,-2.7718,-2.8291,-2.8343,-2.8843,-2.9378,-2.926,-2.9417,-2.9611,-2.9779,-2.956,-2.9392,-2.9275,-2.8988,-2.8803,-2.8776,-2.8736,-2.8657,-2.8657,-2.8657,-2.8618,-2.851,-2.851,-2.851,-2.7831,-2.7537,-2.7417,-2.7376,-2.7413,-2.734,-2.732,-2.7247,0.0,0.0,0.0,-2.8349,-2.9141,-3.0681,-3.0281,-3.0018,-2.993,-2.9942,-2.9892,-2.9792,-2.9779,-2.9779,-2.9779,-2.9779,-2.9779,-2.9779,-2.9779,-2.9779,-2.9779,-2.9779,-2.9779,-2.9779,-2.9779,-2.9779,-2.9779,-2.9779,-2.9566,-2.9063,-2.895,-2.8675,-2.8247,-2.7304,-2.6461,-2.5762,-2.4795,-2.3753,-2.2661,-2.2611,-2.2196,-2.1345,-2.137,-2.1327,-2.1076,-2.1199,-2.1531,-2.2127,-2.2332,-2.2376,-2.2335,-2.1821,-2.145,-2.1379,-2.1776,-2.1614,-2.0669,-2.0906,-2.1484,-2.2259,-2.224,-2.2514,-2.3269,-2.3444,-2.3618,-2.4079,-2.4196,-2.4282,-2.4368,-2.4292,-2.4487,-2.5253,-2.5253,-2.5537,-2.608,-2.64,-2.6329,-2.56,-2.5726,-2.5589,-2.5694,-2.6964,-2.8131,-2.8502,-2.87,-2.8961,-2.9456,-2.9624,-2.9714,-2.9585,-2.9624,-2.9675,-2.9624,-2.9482,-2.9236,-2.9091,-2.8895,-2.8736,-2.8578,-2.8578,-2.855,-2.855,-2.855,-2.855,-2.851,-2.851,-2.851,-2.8483,-2.839,-2.7986,-2.7821,-2.78,-2.7417,-2.732,-2.7315,-2.7515,-2.8243,-2.9251,-2.9553,-3.0275,-3.1273,-3.1198,-3.0909,-3.0507,-3.0495,-3.0244,0.0,-2.9779,-2.9779,-2.9779,-2.9779,-2.9779,-2.9779,-2.9779,-2.9779,-2.9779,-2.9779,-2.9779,-2.9779,-2.9779,-2.9779,-2.9779,-2.9779,-2.9754,-2.9666,-2.9189,-2.8863,-2.8775,-2.8197,-2.7369,-2.6411,-2.5711,-2.4858,-2.3816,-2.3753,-2.369,-2.3552,-2.3979,-2.3691,-2.2592,-2.3127,-2.3033,-2.1934,-2.2372,-2.265,-2.2509,-2.28,-2.3076,-2.331,-2.3688,-2.3179,-2.1545,-2.2073,-2.2727,-2.3236,-2.3401,-2.3721,-2.4043,-2.418,-2.4147,-2.3917,-2.4239,-2.4325,-2.4024,-2.411,-2.4196,-2.4219,-2.4262,-2.4454,-2.4807,-2.5463,-2.5861,-2.583,-2.6121,-2.6276,-2.5922,-2.7035,-2.853,-2.9145,-2.9482,-2.9507,-2.9339,-2.9353,-2.9392,-2.9221,-2.926,-2.926,-2.926,-2.9091,-2.8961,-2.8882,-2.8697,-2.8618,-2.8685,-2.8752,-2.8724,-2.8724,-2.8724,-2.8657,-2.855,-2.851,-2.851,-2.8845,-2.8607,-2.838,-2.8297,-2.8216,-2.781,-2.7624,-2.762,-2.7599,-2.8431,-2.9757,-3.0257,-3.0936,-3.1772,-3.1524,-3.1273,-3.1035,-3.1035,-3.0746,-3.0256,-3.0244,-3.008,-2.9804,-2.9779,-2.9779,-2.9779,-2.9779,-2.9779,-2.9779,-2.9779,-2.9779,-2.9779,-2.9779,-2.9779,-2.9779,-2.9779,-2.9779,-2.9779,-2.9528,-2.9364,-2.9377,-2.885,-2.8298,-2.7808,-2.6703,-2.5883,-2.538,-2.4757,-2.4431,-2.4443,-2.4662,-2.4534,-2.3951,-2.383,-2.3615,-2.3226,-2.3125,-2.3259,-2.3727,-2.379,-2.3705,-2.3445,-2.3701,-2.3512,-2.2675,-2.2931,-2.34,-2.3839,-2.3858,-2.3876,-2.396,-2.4067,-2.41,-2.4024,-2.4239,-2.4282,-2.4196,-2.4153,-2.4196,-2.4186,-2.4206,-2.4411,-2.502,-2.4967,-2.521,-2.5704,-2.6442,-2.6853,-2.6883,-2.8119,-2.8831,-2.8079,-2.7919,-2.8383,-2.8922,-2.9157,-2.9197,-2.9104,-2.9197,-2.9197,-2.9131,-2.9013,-2.8922,-2.8803,-2.8657,-2.8538,-2.8657,-2.8657,-2.8657,-2.8657,-2.8657,-2.8578,-2.8498,-2.851,-2.851,-2.9259,-2.8928,-2.8814,-2.8711,-2.8576,-2.8224,-2.8079,-2.8038,-2.7844,-2.8607,-2.9954,-3.026,-3.0869,-3.1693,-3.1521,-3.1398,-3.1299,-3.1492,-3.1286,-3.0821,-3.0796,-3.0495,-3.0018,-2.9993,-2.9917,-2.9804,-2.9779,-2.9779,-2.9779,-2.9779,-2.9779,-2.9779,-2.9779,-2.9779,-2.9779,-2.9779,-2.9779,-2.9779,-2.9779,-2.9779,-2.9779,-2.9352,-2.9026,-2.88,-2.7708,-2.6989,-2.6826,-2.5887,-2.5339,-2.5339,-2.5049,-2.481,-2.4632,-2.4073,-2.3812,-2.4014,-2.3635,-2.3697,-2.4339,-2.429,-2.3985,-2.3431,-2.3597,-2.3718,-2.3718,-2.3718,-2.3861,-2.4135,-2.4046,-2.396,-2.397,-2.397,-2.4024,-2.4196,-2.4249,-2.4325,-2.4421,-2.4335,-2.4335,-2.4464,-2.4368,-2.4615,-2.5137,-2.4978,-2.5062,-2.5944,-2.6607,-2.7302,-2.8011,-2.8673,-2.8263,-2.7435,-2.6964,-2.7678,-2.8803,-2.9052,-2.9052,-2.9013,-2.9118,-2.9079,-2.8961,-2.8934,-2.8895,-2.8724,-2.8618,-2.851,-2.851,-2.851,-2.851,-2.851,-2.851,-2.851,-2.851,-2.851,-2.851,-2.9891,-2.9798,-2.9404,-2.9001,-2.8659,-2.8576,-2.8545,-2.8593,-2.8962,-2.9248,-2.9398,-2.9099,-2.9499,-3.0405,-3.1248,-3.1409,-3.104,-3.1749,-3.1838,-3.1361,-3.1323,-3.1047,-3.057,-3.0532,-3.0281,-2.9854,-2.9804,-2.9779,-2.9779,-2.9779,-2.9779,-2.9779,-2.9779,-2.9779,-2.9779,-2.9779,-2.9779,-2.9779,-2.9779,-2.9779,-2.9779,-2.9741,-2.9465,-2.89,-2.875,-2.8461,-2.7921,-2.7381,-2.7055,-2.6982,-2.5879,-2.4932,-2.4317,-2.409,-2.3652,-2.2836,-2.3329,-2.3606,-2.3442,-2.371,-2.3929,-2.3888,-2.4156,-2.4372,-2.4372,-2.4382,-2.4349,-2.4292,-2.4325,-2.4411,-2.4411,-2.4411,-2.4335,-2.4249,-2.4378,-2.4411,-2.4292,-2.4368,-2.4497,-2.4507,-2.4454,-2.454,-2.4775,-2.5221,-2.5883,-2.6715,-2.6914,-2.7183,-2.7434,-2.7557,-2.783,-2.7921,-2.8474,-2.8828,-2.884,-2.8907,-2.8934,-2.8697,-2.8764,-2.8843,-2.8736,-2.863,-2.855,-2.8618,-2.855,-2.851,-2.851,-2.851,-2.851,-2.851,-2.851,-2.851,-2.851,-2.851,-2.851,-2.9994,-2.9973,-2.9798,-2.9611,-2.9415,-2.9145,-2.9021,-2.8999,-2.8666,-2.8496,-2.8481,-2.8047,-2.9037,-3.108,-3.2077,-3.2358,-3.2216,-3.2559,-3.2428,-3.1901,-3.1876,-3.1587,-3.1097,-3.0746,-3.0482,-3.0244,-2.9955,-2.9779,-2.9779,-2.9779,-2.9779,-2.9779,-2.9779,-2.9779,-2.9779,-2.9779,-2.9779,-2.9779,-2.9779,-2.9779,-2.9779,-2.9779,-2.9679,-2.944,-2.9076,-2.88,-2.8574,-2.8059,-2.7528,-2.703,-2.6481,-2.5809,-2.4978,-2.4487,-2.404,-2.3606,-2.3705,-2.3736,-2.3618,-2.4012,-2.4271,-2.4271,-2.4394,-2.4507,-2.4507,-2.4507,-2.4464,-2.4421,-2.4454,-2.4507,-2.4507,-2.4507,-2.4454,-2.4411,-2.4454,-2.4454,-2.4421,-2.4325,-2.4368,-2.4454,-2.4411,-2.4615,-2.5137,-2.5579,-2.644,-2.7554,-2.7793,-2.7939,-2.9022,-2.9405,-2.9499,-2.9727,-3.0158,-2.9902,-2.9154,-2.8986,-2.8998,-2.8946,-2.9,-2.9067,-2.8788,-2.8776,-2.8776,-2.859,-2.855,-2.851,-2.851,-2.851,-2.851,-2.851,-2.851,-2.851,-2.851,-2.851,-2.851,-2.9994,-2.9994,-2.9994,-2.9994,-2.9963,-2.9632,-2.9497,-2.9394,-2.8638,-2.8175,-2.8069,-2.7923,-2.8937,-3.0779,-3.1857,-3.2307,-3.2351,-3.2853,-3.2855,-3.2466,-3.2453,-3.2152,-3.1612,-3.1248,-3.0959,-3.0758,-3.0281,-2.9955,-2.9817,-2.9779,-2.9779,-2.9779,-2.9779,-2.9779,-2.9779,-2.9779,-2.9779,-2.9779,-2.9779,-2.9779,-2.9779,-2.9779,-2.9779,-2.9741,-2.939,-2.9126,-2.9151,-2.8587,-2.7903,-2.7055,-2.6671,-2.6083,-2.521,-2.4439,-2.4057,-2.4189,-2.4115,-2.4064,-2.4074,-2.4321,-2.4507,-2.4507,-2.4507,-2.4507,-2.4507,-2.4507,-2.4507,-2.4507,-2.4507,-2.4507,-2.4507,-2.4507,-2.4507,-2.4507,-2.4507,-2.4507,-2.4507,-2.4368,-2.4325,-2.4454,-2.4647,-2.5137,-2.6257,-2.6772,-2.7548,-2.8961,-2.9147,-2.9362,-3.0934,-3.1254,-3.1226,-3.1194,-3.1141,-3.0748,-2.9801,-2.9739,-2.9613,-2.9564,-2.9707,-2.9547,-2.9157,-2.9199,-2.9013,-2.8697,-2.8618,-2.855,-2.851,-2.851,-2.851,-2.851,-2.851,-2.851,-2.851,-2.851,-2.851,-2.9994,-2.9994,-2.9994,-2.9994,-2.9994,-2.9963,-2.9953,-2.988,-2.9415,-2.898,-2.8645,-2.9015,-2.9125,-2.8989,-3.0,-3.0407,-3.0666,-3.2251,-3.3,-3.2895,-3.295,-3.2729,-3.2202,-3.2152,-3.1851,-3.1348,-3.0821,-3.0331,-2.9854,-2.9792,-2.9779,-2.9779,-2.9779,-2.9779,-2.9779,-2.9779,-2.9779,-2.9779,-2.9779,-2.9779,-2.9779,-2.9779,-2.9779,-2.9779,-2.9754,-2.9704,-2.9679,-2.9151,-2.8448,-2.757,-2.636,-2.5283,-2.4421,-2.3708,-2.3545,-2.3898,-2.4292,-2.4456,-2.4445,-2.4476,-2.4507,-2.4507,-2.4507,-2.4507,-2.4507,-2.4507,-2.4507,-2.4507,-2.4507,-2.4507,-2.4507,-2.4507,-2.4507,-2.4507,-2.4507,-2.4507,-2.4507,-2.4572,-2.4507,-2.4711,-2.5306,-2.6407,-2.807,-2.8826,-2.933,-3.0235,-3.087,-3.1248,-3.1401,-3.1499,-3.1524,-3.1483,-3.143,-3.1235,-3.0844,-3.0597,-3.0687,-3.0613,-3.0307,-3.0198,-2.9865,-2.9533,-2.9193,-2.8892,-2.8833,-2.8766,-2.8586,-2.851,-2.851,-2.851,-2.851,-2.851,-2.851,-2.851,-2.851,-2.9994,-2.9994,-2.9994,-2.9994,-2.9994,-2.9994,-2.9994,-2.9942,-2.9508,-2.9218,-2.9041,-2.8953,-2.8638,-2.8253,-2.923,-3.0205,-3.1092,-3.1845,-3.212,-3.212,-3.212,-3.2023,-3.1858,-3.2052,-3.2139,-3.1876,-3.1373,-3.0846,-3.0331,-2.9967,-2.9779,-2.9779,-2.9779,-2.9779,-2.9779,-2.9779,-2.9779,-2.9779,-2.9779,-2.9779,-2.9753,-2.9779,-2.9779,-2.9779,-2.9779,-2.9779,-2.9779,-2.9038,-2.8201,-2.7317,-2.6289,-2.5317,-2.4523,-2.4158,-2.4073,-2.4291,-2.4414,-2.4507,-2.4507,-2.4507,-2.4507,-2.4507,-2.4507,-2.4507,-2.4507,-2.4507,-2.4507,-2.4507,-2.4507,-2.4507,-2.4507,-2.4507,-2.4507,-2.4507,-2.4507,-2.4507,-2.4625,-2.4978,-2.5337,-2.5506,-2.6406,-2.7727,-2.855,-2.8988,-2.969,-3.1191,-3.1331,-3.1524,-3.2281,-3.2466,-3.2403,-3.2411,-3.2339,-3.2212,-3.2072,-3.1402,-3.1071,-3.1103,-3.0954,-3.0822,-3.0564,-3.0327,-3.0033,-2.9427,-2.9262,-2.8911,-2.8691,-2.851,-2.851,-2.851,-2.851,-2.851,-2.851,-2.851,-2.851,-2.9994,-2.9994,-2.9994,-2.9994,-2.9994,-2.9994,-2.9994,-2.9963,-2.9663,-2.9456,-2.9259,-2.897,-2.8587,-2.831,-2.8994,-2.9894,-3.0923,-3.1354,-3.1581,-3.1625,-3.1945,-3.2077,-3.2115,-3.2368,-3.2491,-3.2403,-3.1926,-3.1323,-3.0645,-3.0244,-2.998,-2.9804,-2.9779,-2.9779,-2.9753,-2.9546,-2.9468,-2.9675,-2.926,-2.904,-2.93,-2.9079,-2.8922,-2.8961,-2.9209,-2.9546,-2.974,-2.8949,-2.8051,-2.7151,-2.6287,-2.5421,-2.4615,-2.4507,-2.4507,-2.4507,-2.4497,-2.4507,-2.4507,-2.4507,-2.4507,-2.4507,-2.4507,-2.4507,-2.4507,-2.4507,-2.4507,-2.4507,-2.4507,-2.4507,-2.4507,-2.4507,-2.4507,-2.4507,-2.4507,-2.4507,-2.454,-2.502,-2.5507,-2.6018,-2.6768,-2.7985,-2.9243,-2.9418,-3.0332,-3.2009,-3.1748,-3.2013,-3.2698,-3.2896,-3.2865,-3.2853,-3.2618,-3.2537,-3.2358,-3.1822,-3.1605,-3.1628,-3.1335,-3.1286,-3.1195,-3.1008,-3.0646,-3.0036,-2.9561,-2.9149,-2.8827,-2.8595,-2.8534,-2.8558,-2.851,-2.851,-2.851,-2.851,-2.857,-3.0015,-2.9994,-2.9994,-2.9994,-2.9994,-2.9994,-2.9994,-2.9984,-2.9973,-2.9715,-2.9415,-2.9321,-2.9052,-2.8757,-2.9176,-2.9452,-2.9692,-3.0855,-3.1395,-3.1359,-3.2208,-3.2667,-3.2698,-3.2791,-3.2938,-3.2955,-3.2453,-3.1662,-3.0796,-3.0618,-3.033,-2.9866,-2.9738,-2.9608,-2.9663,-2.887,-2.887,-2.9091,-2.8091,-2.7678,-2.8251,-2.7718,-2.7354,-2.7395,-2.8051,-2.8831,-2.9573,-2.8831,-2.7919,-2.7058,-2.6205,-2.5379,-2.4625,-2.4507,-2.4507,-2.4507,-2.4507,-2.4507,-2.4507,-2.4507,-2.4507,-2.4507,-2.4507,-2.4507,-2.4507,-2.4507,-2.4507,-2.4507,-2.4507,-2.4507,-2.4507,-2.4507,-2.4507,-2.4507,-2.4507,-2.4507,-2.4497,-2.455,-2.5092,-2.6367,-2.7101,-2.7682,-2.943,-3.0549,-3.1296,-3.204,-3.2424,-3.2537,-3.2698,-3.2636,-3.2475,-3.2431,-3.2431,-3.2388,-3.23,-3.2201,-3.2208,-3.2166,-3.1767,-3.1509,-3.1533,-3.1374,-3.1003,-3.0469,-2.9896,-2.9511,-2.9224,-2.9015,-2.8931,-2.8895,-2.8751,-2.8763,-2.8883,-2.8955,-2.8751,-3.0284,-3.0015,-2.9994,-2.9994,-2.9994,-2.9994,-2.9994,-2.9994,-2.9994,-2.9911,-2.9798,-2.9777,-2.9528,-2.9196,-2.927,-2.901,-2.8555,-3.0129,-3.0549,-2.9829,-3.0,-3.0621,-3.1214,-3.1813,-3.245,-3.2882,-3.2491,-3.2064,-3.17,-3.1336,-3.0605,-2.9689,-2.9459,-2.8891,-2.8127,-2.7678,-2.7718,-2.781,-2.7395,-2.7273,-2.7516,-2.7232,-2.7098,-2.7139,-2.7395,-2.7689,-2.7891,-2.7678,-2.711,-2.6235,-2.539,-2.4775,-2.454,-2.4507,-2.4507,-2.4507,-2.4507,-2.4507,-2.4507,-2.4507,-2.4507,-2.4507,-2.4507,-2.4507,-2.4507,-2.4507,-2.4507,-2.4507,-2.4507,-2.4507,-2.4507,-2.4507,-2.4528,-2.4507,-2.4507,-2.4581,-2.4783,-2.5337,-2.6786,-2.8526,-2.9238,-3.0088,-3.1167,-3.1919,-3.229,-3.2639,-3.2882,-3.2896,-3.2711,-3.2593,-3.2562,-3.2444,-3.2313,-3.2125,-3.2081,-3.1994,-3.1981,-3.2025,-3.1826,-3.1674,-3.1724,-3.162,-3.129,-3.0852,-3.0319,-2.991,-2.9634,-2.9472,-2.9388,-2.9472,-2.9532,-2.9556,-2.9581,-2.946,-2.9256,-3.0419,-3.0015,-2.9994,-2.9994,-2.9994,-2.9994,-2.9994,-2.9994,-2.9994,-2.9994,-2.9994,-2.9994,-2.9849,-2.957,-2.9384,-2.899,-2.8619,-2.9752,-2.9637,-2.8882,-2.9954,-3.0678,-3.1303,-3.1845,-3.245,-3.2932,-3.2704,-3.2416,-3.219,-3.1863,-3.1165,-3.0233,-2.9894,-2.9221,-2.7959,-2.7353,-2.7098,-2.7028,-2.6464,-2.6287,-2.6494,-2.6287,-2.6133,-2.6174,-2.6442,-2.6412,-2.6205,-2.6412,-2.6359,-2.5746,-2.4978,-2.454,-2.4507,-2.4507,-2.4507,-2.4507,-2.4507,-2.4507,-2.4507,-2.4507,-2.4507,-2.4507,-2.4507,-2.4507,-2.4507,-2.4507,-2.4507,-2.4507,-2.4507,-2.4507,-2.4518,-2.4683,-2.4735,-2.4755,-2.4766,-2.5001,-2.5484,-2.6292,-2.7574,-2.914,-2.9934,-3.0836,-3.173,-3.2241,-3.2667,-3.2853,-3.2909,-3.2723,-3.2494,-3.232,-3.2245,-3.2169,-3.2025,-3.1893,-3.1906,-3.1805,-3.1761,-3.1793,-3.1789,-3.176,-3.1811,-3.1743,-3.1499,-3.1076,-3.0543,-3.0266,-2.9977,-2.9929,-2.9881,-3.0074,-3.0182,-2.9989,-2.9869,-2.9917,-2.9773,-3.0439,-3.0025,-2.9994,-2.9994,-2.9994,-2.9994,-2.9994,-2.9994,-2.9994,-2.9994,-2.9994,-2.9994,-2.9984,-2.988,-2.957,-2.9321,-2.9338,-2.9461,-2.9154,-2.9223,-3.0787,-3.2208,-3.2077,-3.2394,-3.2711,-3.284,-3.2975,-3.278,-3.2378,-3.229,-3.1947,-3.119,-3.067,-3.0109,-2.8933,-2.7778,-2.7049,-2.6866,-2.5475,-2.5062,-2.5673,-2.5062,-2.4625,-2.4711,-2.5337,-2.5421,-2.4988,-2.539,-2.5746,-2.5579,-2.4903,-2.4507,-2.4507,-2.4507,-2.4507,-2.4507,-2.4507,-2.4507,-2.4507,-2.4507,-2.4507,-2.4507,-2.4507,-2.4507,-2.4507,-2.4507,-2.4507,-2.4507,-2.4507,-2.4507,-2.458,-2.4869,-2.5127,-2.5272,-2.5438,-2.6004,-2.7151,-2.7393,-2.8362,-2.9397,-2.9746,-3.0194,-3.168,-3.1921,-3.2251,-3.2581,-3.2649,-3.2431,-3.2201,-3.2069,-3.1793,-3.1749,-3.1793,-3.1793,-3.1805,-3.1761,-3.1705,-3.1705,-3.1749,-3.1793,-3.1837,-3.1781,-3.1713,-3.1303,-3.0946,-3.0669,-3.0549,-3.0518,-3.0482,-3.0555,-3.0482,-3.023,-3.0266,-3.0446,-3.0362,-3.0719,-3.0015,-2.9994,-2.9994,-2.9994,-2.9994,-2.9994,-2.9994,-2.9994,-2.9994,-2.9994,-2.9994,-2.9994,-2.9984,-2.987,-2.9642,-2.9493,-2.9745,-2.9628,-2.9258,-3.0228,-3.0464,-3.0351,-3.1347,-3.2033,-3.212,-3.2754,-3.2993,-3.2855,-3.2805,-3.2232,-3.1065,-3.0954,-3.0212,-2.8916,-2.7617,-2.6854,-2.6607,-2.5306,-2.4583,-2.4786,-2.4658,-2.4507,-2.454,-2.4743,-2.4743,-2.4497,-2.47,-2.4861,-2.4861,-2.4658,-2.4507,-2.4507,-2.4507,-2.4507,-2.4507,-2.4507,-2.4507,-2.4507,-2.4507,-2.4507,-2.4507,-2.4507,-2.4507,-2.4507,-2.4507,-2.4507,-2.4507,-2.4507,-2.4518,-2.458,-2.4952,-2.5482,-2.6142,-2.6557,-2.7105,-2.7821,-2.8522,-2.9489,-3.0705,-3.1021,-3.1568,-3.2234,-3.2624,-3.2711,-3.2853,-3.2766,-3.2506,-3.2201,-3.2025,-3.1849,-3.1761,-3.1705,-3.1705,-3.1717,-3.1717,-3.1705,-3.1705,-3.1705,-3.1705,-3.1749,-3.1749,-3.1681,-3.1524,-3.1392,-3.1151,-3.1271,-3.1368,-3.1296,-3.1067,-3.1115,-3.1043,-3.1199,-3.1344,-3.1067,-3.0843,-3.0005,-2.9994,-2.9994,-2.9994,-2.9994,-2.9994,-2.9994,-2.9994,-2.9994,-2.9994,-2.9994,-2.9994,-2.9994,-2.9994,-2.986,-2.9704,-3.0142,-2.9867,-2.9069,-2.8994,-2.9106,-2.9624,-3.0946,-3.1581,-3.1713,-3.2624,-3.3025,-3.3111,-3.3124,-3.261,-3.2013,-3.1583,-3.0822,-2.9742,-2.8268,-2.7221,-2.6605,-2.5443,-2.4714,-2.4528,-2.4507,-2.4507,-2.4507,-2.4507,-2.4507,-2.4507,-2.4507,-2.4507,-2.4497,-2.4507,-2.4507,-2.4507,-2.4507,-2.4507,-2.4507,-2.4507,-2.4507,-2.4507,-2.4507,-2.4507,-2.4507,-2.4507,-2.4507,-2.4507,-2.4507,-2.4507,-2.4507,-2.4662,-2.4766,-2.49,-2.5409,-2.6082,-2.6837,-2.7876,-2.8623,-2.8902,-2.9823,-3.0849,-3.1804,-3.2251,-3.2394,-3.3068,-3.3081,-3.3025,-3.2939,-3.2766,-3.2506,-3.2257,-3.2081,-3.195,-3.1805,-3.1705,-3.1705,-3.1705,-3.1705,-3.1705,-3.1705,-3.1705,-3.1705,-3.1705,-3.1705,-3.1693,-3.1681,-3.1705,-3.1705,-3.1705,-3.1705,-3.1609,-3.1512,-3.1693,-3.1705,-3.1705,-3.1705,-3.1476,-3.0801,-2.9994,-2.9994,-2.9994,-2.9994,-2.9994,-2.9994,-2.9994,-2.9994,-2.9994,-2.9994,-2.9994,-2.9994,-2.9994,-2.9994,-2.9984,-2.9995,-3.0221,-2.9621,-2.8673,-2.8061,-2.8175,-2.9441,-3.0678,-3.1347,-3.1713,-3.2624,-3.3038,-3.3124,-3.3124,-3.3124,-3.2789,-3.2444,-3.1918,-3.0936,-2.9562,-2.8173,-2.7149,-2.5803,-2.5006,-2.4683,-2.4569,-2.4507,-2.4507,-2.4507,-2.4507,-2.4507,-2.4507,-2.4507,-2.4507,-2.4507,-2.4507,-2.4507,-2.4507,-2.4507,-2.4507,-2.4507,-2.4507,-2.4507,-2.4507,-2.4507,-2.4507,-2.4507,-2.4507,-2.4507,-2.4507,-2.4538,-2.4652,-2.4962,-2.5168,-2.5513,-2.6113,-2.663,-2.7327,-2.8822,-2.9875,-3.0396,-3.1125,-3.2133,-3.2939,-3.3068,-3.3081,-3.3124,-3.3081,-3.3025,-3.2939,-3.2766,-3.2519,-3.2257,-3.2025,-3.1893,-3.1761,-3.1705,-3.1705,-3.1705,-3.1705,-3.1705,-3.1705,-3.1705,-3.1705,-3.1705,-3.1705,-3.1705,-3.1705,-3.1705,-3.1705,-3.1705,-3.1705,-3.1705,-3.1705,-3.1705,-3.1705,-3.1705,-3.1705,-3.1573,-3.0512,-2.9994,-2.9994,-2.9994,-2.9994,-2.9994,-2.9994,-2.9994,-2.9994,-2.9994,-2.9994,-2.9994,-2.9994,-2.9994,-2.9994,-2.9994,-2.9942,-2.9785,-2.9027,-2.8108,-2.7589,-2.7462,-2.8398,-2.9806,-3.0902,-3.1581,-3.2612,-3.3081,-3.3124,-3.3124,-3.3124,-3.3086,-3.2943,-3.2794,-3.2327,-3.047,-2.9249,-2.8517,-2.6571,-2.5321,-2.5016,-2.4769,-2.4614,-2.4507,-2.4507,-2.4507,-2.4507,-2.4507,-2.4507,-2.4507,-2.4507,-2.4507,-2.4507,-2.4507,-2.4507,-2.4507,-2.4507,-2.4507,-2.4507,-2.4507,-2.4507,-2.4507,-2.4507,-2.4507,-2.4507,-2.4518,-2.4693,-2.4931,-2.5158,-2.5551,-2.6165,-2.647,-2.6843,-2.7421,-2.8351,-2.9395,-3.0215,-3.1657,-3.2667,-3.2982,-3.3124,-3.3124,-3.3124,-3.3081,-3.3025,-3.2939,-3.2723,-3.2475,-3.2213,-3.1981,-3.1849,-3.1705,-3.1705,-3.1705,-3.1705,-3.1705,-3.1705,-3.1705,-3.1705,-3.1705,-3.1705,-3.1705,-3.1705,-3.1705,-3.1705,-3.1705,-3.1705,-3.1705,-3.1705,-3.1705,-3.1705,-3.1705,-3.1705,-3.1705,-3.1705,-3.0419,-3.0005,-2.9994,-2.9994,-2.9994,-2.9994,-2.9994,-2.9994,-2.9994,-2.9994,-2.9994,-2.9994,-2.9994,-2.9994,-2.9994,-2.9994,-2.9891,-2.9508,-2.8928,-2.8286,-2.7849,-2.8021,-2.8724,-2.9578,-3.0543,-3.1158,-3.2438,-3.3038,-3.3124,-3.3124,-3.3124,-3.3124,-3.3124,-3.3043,-3.2939,-3.1324,-3.0162,-2.9399,-2.8099,-2.668,-2.542,-2.5463,-2.5039,-2.4624,-2.4507,-2.4507,-2.4507,-2.4507,-2.4507,-2.4507,-2.4507,-2.4507,-2.4507,-2.4507,-2.4507,-2.4507,-2.4507,-2.4507,-2.4507,-2.4507,-2.4507,-2.4507,-2.4507,-2.4507,-2.458,-2.4673,-2.491,-2.522,-2.5637,-2.6154,-2.6843,-2.6946,-2.7112,-2.7358,-2.8128,-2.891,-2.9669,-3.1214,-3.2624,-3.2939,-3.3124,-3.3038,-3.2995,-3.2939,-3.2822,-3.2692,-3.2605,-3.2344,-3.2169,-3.195,-3.1837,-3.1749,-3.1705,-3.1705,-3.1705,-3.1705,-3.1705,-3.1705,-3.1705,-3.1705,-3.1705,-3.1705,-3.1705,-3.1705,-3.1705,-3.1705,-3.1705,-3.1705,-3.1705,-3.1705,-3.1705,-3.1705,-3.1705,-3.1705,-3.1705,-3.0346,-2.9994,-2.9994,-2.9994,-2.9994,-2.9994,-2.9994,-2.9994,-2.9994,-2.9994,-2.9994,-2.9994,-2.9994,-2.9994,-2.9994,-2.9994,-2.9922,-2.9816,-2.9404,-2.8711,-2.8383,-2.881,-2.9676,-3.0205,-3.0576,-3.0621,-3.2251,-3.3025,-3.3124,-3.3124,-3.3124,-3.3124,-3.3124,-3.3124,-3.2884,-3.2096,-3.0856,-2.9752,-2.8968,-2.7777,-2.592,-2.5998,-2.5507,-2.4741,-2.4507,-2.4507,-2.4507,-2.4507,-2.4507,-2.4507,-2.4507,-2.4507,-2.4507,-2.4507,-2.4507,-2.4507,-2.4507,-2.4507,-2.4507,-2.4507,-2.4507,-2.4507,-2.4507,-2.4569,-2.4683,-2.4952,-2.5241,-2.5699,-2.6144,-2.6801,-2.7247,-2.7247,-2.7268,-2.7452,-2.8045,-2.8491,-2.8945,-3.0227,-3.1303,-3.2525,-3.2568,-3.2438,-3.2636,-3.2723,-3.2562,-3.2444,-3.24,-3.2257,-3.2094,-3.195,-3.1805,-3.1749,-3.1705,-3.1705,-3.1705,-3.1705,-3.1705,-3.1705,-3.1705,-3.1705,-3.1705,-3.1705,-3.1705,-3.1705,-3.1705,-3.1705,-3.1705,-3.1705,-3.1705,-3.1705,-3.1705,-3.1705,-3.1705,-3.1705,-3.1705,-3.0067,-2.9994,-2.9994,-2.9994,-2.9994,-2.9994,-2.9994,-2.9994,-2.9994,-2.9994,-2.9994,-2.9994,-2.9994,-2.9994,-2.9994,-2.9994,-3.0182,-3.0196,-2.996,-2.9304,-2.9102,-2.954,-2.9827,-3.0866,-3.1273,-3.1681,-3.2537,-3.3081,-3.3124,-3.3124,-3.3124,-3.3124,-3.3124,-3.3124,-3.2766,-3.2077,-3.1045,-2.9884,-2.9038,-2.7804,-2.6553,-2.5829,-2.5405,-2.4683,-2.4662,-2.46,-2.4549,-2.4518,-2.4507,-2.4507,-2.4507,-2.4507,-2.4507,-2.4507,-2.4507,-2.4507,-2.4507,-2.4507,-2.4507,-2.4507,-2.4507,-2.4507,-2.4549,-2.4755,-2.4983,-2.522,-2.5668,-2.6258,-2.677,-2.7216,-2.7299,-2.732,-2.732,-2.7357,-2.7489,-2.7857,-2.8434,-2.8934,-2.9841,-3.138,-3.1613,-3.1933,-3.2276,-3.2475,-3.2388,-3.2257,-3.2169,-3.2125,-3.1994,-3.1862,-3.1761,-3.1705,-3.1705,-3.1705,-3.1705,-3.1705,-3.1705,-3.1705,-3.1705,-3.1705,-3.1705,-3.1705,-3.1705,-3.1705,-3.1705,-3.1705,-3.1705,-3.1705,-3.1705,-3.1705,-3.1705,-3.1705,-3.1705,-3.1705,-3.1705,-2.9994,-2.9994,-2.9994,-2.9994,-2.9994,-2.9994,-2.9994,-2.9994,-2.9994,-2.9994,-2.9994,-2.9994,-2.9994,-3.0151,-3.064,-3.0847,-3.0854,-3.0439,-3.0021,-2.9483,-2.9863,-3.0175,-3.0305,-3.1474,-3.2043,-3.2437,-3.2896,-3.3124,-3.3124,-3.3124,-3.3124,-3.3124,-3.3124,-3.2853,-3.2351,-3.1845,-3.0767,-2.9681,-2.9103,-2.8222,-2.6733,-2.5885,-2.5451,-2.5306,-2.5192,-2.5119,-2.4879,-2.4848,-2.4724,-2.4559,-2.4507,-2.4507,-2.4528,-2.4528,-2.4518,-2.4538,-2.4528,-2.4518,-2.4507,-2.4518,-2.459,-2.4838,-2.4859,-2.5119,-2.5492,-2.5834,-2.6206,-2.6801,-2.7092,-2.732,-2.732,-2.732,-2.732,-2.7262,-2.7167,-2.7357,-2.7573,-2.7515,-2.8691,-3.0249,-3.0833,-3.1392,-3.2101,-3.2213,-3.2125,-3.2038,-3.1937,-3.1893,-3.1893,-3.1805,-3.1705,-3.1705,-3.1705,-3.1705,-3.1705,-3.1705,-3.1705,-3.1705,-3.1705,-3.1705,-3.1705,-3.1705,-3.1705,-3.1705,-3.1705,-3.1705,-3.1705,-3.1705,-3.1705,-3.1705,-3.1705,-3.1705,-3.1705,-3.1705,-3.1705,-2.9994,-2.9994,-2.9994,-2.9994,-2.9994,-2.9994,-2.9994,-2.9994,-2.9994,-2.9994,-3.0047,-3.0245,-3.0391,-3.0692,-3.1534,-3.2185,-3.1891,-3.1032,-3.0664,-3.0549,-3.0893,-3.124,-3.1727,-3.218,-3.2872,-3.314,-3.3063,-3.3124,-3.3124,-3.3124,-3.3124,-3.2982,-3.2982,-3.2481,-3.1757,-3.1347,-3.0181,-2.9543,-2.9338,-2.8646,-2.7031,-2.6283,-2.6003,-2.5941,-2.593,-2.5668,-2.5399,-2.5357,-2.5202,-2.5006,-2.4848,-2.4807,-2.4776,-2.4776,-2.4776,-2.4755,-2.4683,-2.4642,-2.4673,-2.4817,-2.5034,-2.5337,-2.5347,-2.5595,-2.5989,-2.6449,-2.6874,-2.7226,-2.732,-2.732,-2.732,-2.732,-2.7272,-2.7177,-2.7044,-2.69,-2.6842,-2.7013,-2.7683,-2.8923,-2.9932,-3.0946,-3.1793,-3.1981,-3.1937,-3.1893,-3.1805,-3.1805,-3.1805,-3.1761,-3.1705,-3.1705,-3.1705,-3.1705,-3.1705,-3.1705,-3.1705,-3.1705,-3.1705,-3.1705,-3.1705,-3.1705,-3.1705,-3.1705,-3.1705,-3.1705,-3.1705,-3.1705,-3.1705,-3.1705,-3.1705,-3.1705,-3.1705,-3.1705,-3.1705,-2.9994,-2.9994,-2.9994,-2.9994,-2.9994,-2.9994,-2.9994,-2.9994,-3.0047,-2.9994,-3.0099,-3.0981,-3.1432,-3.188,-3.3377,-3.3685,-3.3101,-3.2639,-3.2292,-3.2062,-3.2279,-3.2688,-3.3386,-3.3621,-3.3662,-3.3671,-3.3307,-3.3149,-3.3124,-3.3124,-3.3124,-3.2982,-3.2307,-3.1669,-3.1392,-3.0666,-2.9806,-2.891,-2.8817,-2.8136,-2.6904,-2.6527,-2.6345,-2.6107,-2.6013,-2.5972,-2.5844,-2.5813,-2.572,-2.5668,-2.5668,-2.5699,-2.573,-2.572,-2.572,-2.5616,-2.5409,-2.5106,-2.5202,-2.5388,-2.5627,-2.5771,-2.5802,-2.6096,-2.648,-2.6874,-2.7195,-2.7278,-2.732,-2.732,-2.732,-2.732,-2.7177,-2.7034,-2.69,-2.6699,-2.6592,-2.6812,-2.7447,-2.8412,-2.9612,-3.0678,-3.1661,-3.1705,-3.1705,-3.1717,-3.1705,-3.1705,-3.1705,-3.1705,-3.1705,-3.1705,-3.1705,-3.1705,-3.1705,-3.1705,-3.1705,-3.1705,-3.1705,-3.1705,-3.1705,-3.1705,-3.1705,-3.1705,-3.1705,-3.1705,-3.1705,-3.1705,-3.1705,-3.1705,-3.1705,-3.1705,-3.1705,-3.1705,-3.1705,-2.9994,-2.9994,-2.9994,-2.9994,-2.9994,-2.9994,-2.9994,-3.0151,-3.064,-3.0536,-3.0443,-3.1801,-3.2789,-3.3426,-3.3932,-3.3586,-3.325,-3.325,-3.2839,-3.2939,-3.3233,-3.3826,-3.404,-3.4465,-3.4605,-3.3972,-3.3646,-3.3357,-3.3219,-3.3136,-3.3124,-3.2939,-3.2108,-3.1303,-3.089,-2.9852,-2.8852,-2.8128,-2.7846,-2.7631,-2.7155,-2.6988,-2.6905,-2.6708,-2.6687,-2.6542,-2.6366,-2.6314,-2.6159,-2.6024,-2.593,-2.593,-2.5885,-2.5875,-2.5875,-2.5875,-2.5989,-2.5865,-2.5678,-2.5813,-2.602,-2.6273,-2.6345,-2.6532,-2.6926,-2.7164,-2.732,-2.732,-2.732,-2.732,-2.732,-2.732,-2.7129,-2.6938,-2.6757,-2.6506,-2.6486,-2.6839,-2.7332,-2.8319,-2.9338,-3.0498,-3.1427,-3.1661,-3.1705,-3.1705,-3.1705,-3.1705,-3.1705,-3.1705,-3.1705,-3.1705,-3.1705,-3.1705,-3.1705,-3.1705,-3.1705,-3.1705,-3.1705,-3.1705,-3.1705,-3.1705,-3.1705,-3.1705,-3.1705,-3.1705,-3.1705,-3.1705,-3.1705,-3.1705,-3.1705,-3.1705,-3.1705,-3.1705,-3.1705,-3.0391,-3.0391,-3.0391,-3.0245,-3.0099,-3.0557,-3.0703,-3.0536,-3.1534,-3.1545,-3.1443,-3.2801,-3.419,-3.4872,-3.4532,-3.4337,-3.4091,-3.3747,-3.3388,-3.3525,-3.3946,-3.4595,-3.4889,-3.5264,-3.5031,-3.4286,-3.396,-3.3684,-3.3382,-3.3212,-3.3124,-3.3081,-3.2077,-3.1169,-3.0215,-2.9314,-2.8362,-2.7547,-2.7404,-2.7347,-2.7278,-2.7289,-2.7289,-2.7278,-2.7278,-2.7154,-2.6853,-2.6791,-2.6573,-2.6428,-2.632,-2.6407,-2.6387,-2.6407,-2.6407,-2.6449,-2.6604,-2.6604,-2.6372,-2.6361,-2.648,-2.6656,-2.6801,-2.6926,-2.7185,-2.732,-2.732,-2.732,-2.732,-2.732,-2.732,-2.7272,-2.7034,-2.6794,-2.6554,-2.6304,-2.6235,-2.6781,-2.7474,-2.8448,-2.9475,-3.0498,-3.1294,-3.1572,-3.1705,-3.1705,-3.1705,-3.1705,-3.1705,-3.1705,-3.1705,-3.1705,-3.1705,-3.1705,-3.1705,-3.1705,-3.1705,-3.1705,-3.1705,-3.1705,-3.1705,-3.1705,-3.1705,-3.1705,-3.1705,-3.1705,-3.1705,-3.1705,-3.1705,-3.1705,-3.1705,-3.1705,-3.1705,-3.1705,-3.1705,-3.1483,-3.1472,-3.1472,-3.0929,-3.0245,-3.2156,-3.2348,-3.1575,-3.265,-3.3051,-3.3151,-3.4141,-3.5126,-3.5918,-3.5953,-3.5823,-3.5966,-3.5126,-3.4981,-3.5174,-3.5355,-3.5414,-3.5645,-3.5678,-3.5458,-3.5119,-3.4587,-3.4098,-3.3734,-3.3382,-3.325,-3.2952,-3.1881,-3.1048,-3.0034,-2.8945,-2.8128,-2.7452,-2.732,-2.732,-2.732,-2.732,-2.732,-2.732,-2.732,-2.7289,-2.7247,-2.7195,-2.7154,-2.7029,-2.7009,-2.7009,-2.6957,-2.6978,-2.6978,-2.7019,-2.7061,-2.7071,-2.6998,-2.6998,-2.7164,-2.7226,-2.7226,-2.7195,-2.7299,-2.732,-2.732,-2.732,-2.7262,-2.7272,-2.7225,-2.7081,-2.6842,-2.6602,-2.6352,-2.611,-2.6284,-2.7057,-2.7746,-2.8634,-2.9658,-3.0824,-3.125,-3.1617,-3.1705,-3.1705,-3.1705,-3.1705,-3.1705,-3.1705,-3.1705,-3.1705,-3.1705,-3.1705,-3.1705,-3.1705,-3.1705,-3.1705,-3.1705,-3.1705,-3.1705,-3.1705,-3.1705,-3.1705,-3.1705,-3.1705,-3.1705,-3.1705,-3.1705,-3.1705,-3.1705,-3.1705,-3.1705,-3.1705,-3.1705,-3.0981,-3.1626,-3.2286,-3.2348,-3.2055,-3.2862,-3.2939,-3.2789,-3.3685,-3.4581,-3.5078,-3.4969,-3.5367,-3.6168,-3.6358,-3.6013,-3.5571,-3.581,-3.5667,-3.5619,-3.5619,-3.6013,-3.6245,-3.6132,-3.5881,-3.5495,-3.4994,-3.4675,-3.4361,-3.3796,-3.3169,-3.2535,-3.1446,-3.0238,-2.9268,-2.8445,-2.7773,-2.7499,-2.732,-2.732,-2.732,-2.732,-2.732,-2.732,-2.732,-2.732,-2.7309,-2.7309,-2.732,-2.732,-2.732,-2.732,-2.732,-2.732,-2.732,-2.732,-2.732,-2.732,-2.732,-2.732,-2.732,-2.732,-2.7309,-2.732,-2.732,-2.732,-2.732,-2.7262,-2.7167,-2.7081,-2.7044,-2.6794,-2.6544,-2.6304,-2.611,-2.5917,-2.6284,-2.702,-2.7709,-2.8402,-2.9886,-3.1339,-3.1572,-3.1705,-3.1705,-3.1705,-3.1705,-3.1705,-3.1705,-3.1705,-3.1705,-3.1705,-3.1705,-3.1705,-3.1705,-3.1705,-3.1705,-3.1705,-3.1705,-3.1705,-3.1705,-3.1705,-3.1705,-3.1705,-3.1705,-3.1705,-3.1705,-3.1705,-3.1705,-3.1705,-3.1705,-3.1705,-3.1705,-3.1705,-3.1705,-3.1403,-3.2246,-3.3586,-3.3747,-3.33,-3.3895,-3.3944,-3.3895,-3.4824,-3.5667,-3.6358,-3.5619,-3.5667,-3.6263,-3.6358,-3.6108,-3.5775,-3.5953,-3.5823,-3.587,-3.6013,-3.637,-3.6417,-3.6355,-3.6119,-3.5805,-3.5508,-3.5207,-3.4893,-3.4236,-3.3117,-3.1965,-3.0844,-2.9772,-2.8771,-2.7809,-2.732,-2.732,-2.732,-2.732,-2.732,-2.732,-2.732,-2.732,-2.732,-2.732,-2.732,-2.732,-2.732,-2.732,-2.732,-2.732,-2.732,-2.732,-2.732,-2.732,-2.732,-2.732,-2.732,-2.732,-2.732,-2.732,-2.732,-2.732,-2.732,-2.732,-2.732,-2.7251,-2.7071,-2.689,-2.6853,-2.6602,-2.639,-2.6149,-2.6014,-2.5878,-2.6245,-2.6839,-2.7474,-2.8168,-2.9704,-3.0958,-3.0722,-3.0779,-3.1427,-3.1528,-3.1705,-3.1705,-3.1705,-3.1705,-3.1705,-3.1705,-3.1705,-3.1705,-3.1705,-3.1705,-3.1705,-3.1705,-3.1705,-3.1705,-3.1705,-3.1705,-3.1705,-3.1705,-3.1705,-3.1705,-3.1705,-3.1705,-3.1705,-3.1705,-3.1705,-3.1705,-3.1705,-3.1705,-3.1705,-3.3051,-3.3449,-3.5319,-3.503,-3.3697,-3.5427,-3.5667,-3.4921,-3.5763,-3.631,-3.6405,-3.6216,-3.6263,-3.6417,-3.6417,-3.6263,-3.6216,-3.631,-3.6263,-3.6263,-3.6263,-3.6417,-3.6417,-3.638,-3.6342,-3.6267,-3.5931,-3.5608,-3.547,-3.4663,-3.3162,-3.1434,-3.0331,-2.936,-2.8631,-2.7762,-2.7309,-2.732,-2.732,-2.732,-2.732,-2.732,-2.732,-2.732,-2.732,-2.732,-2.732,-2.732,-2.732,-2.732,-2.732,-2.732,-2.732,-2.732,-2.732,-2.732,-2.732,-2.732,-2.732,-2.732,-2.732,-2.732,-2.732,-2.732,-2.732,-2.732,-2.7272,-2.7214,-2.6986,-2.6853,-2.6709,-2.6458,-2.6197,-2.6004,-2.5878,-2.5878,-2.6197,-2.6744,-2.7379,-2.784,-2.8958,-2.9977,-2.9704,-2.9749,-3.0779,-3.1294,-3.1617,-3.1717,-3.1717,-3.1705,-3.1705,-3.1705,-3.1705,-3.1705,-3.1705,-3.1705,-3.1705,-3.1705,-3.1705,-3.1705,-3.1705,-3.1705,-3.1705,-3.1705,-3.1705,-3.1705,-3.1705,-3.1705,-3.1705,-3.1705,-3.1705,-3.1705,-3.1705,-3.1705,-3.1705,-3.2538,-3.3362,-3.4727,-3.5319,-3.5367,-3.6061,-3.6168,-3.5953,-3.6216,-3.6417,-3.6417,-3.6417,-3.6417,-3.6417,-3.6417,-3.6417,-3.6417,-3.6417,-3.6417,-3.6417,-3.6417,-3.6417,-3.6417,-3.6417,-3.6417,-3.638,-3.6119,-3.6044,-3.6081,-3.5203,-3.3606,-3.1786,-2.9518,-2.8218,-2.782,-2.7404,-2.732,-2.732,-2.732,-2.732,-2.732,-2.732,-2.732,-2.732,-2.732,-2.732,-2.732,-2.732,-2.732,-2.732,-2.732,-2.732,-2.732,-2.732,-2.732,-2.732,-2.732,-2.732,-2.732,-2.732,-2.732,-2.732,-2.7272,-2.7262,-2.732,-2.732,-2.7225,-2.7034,-2.6832,-2.6651,-2.6352,-2.6062,-2.582,-2.582,-2.5732,-2.5732,-2.6004,-2.6733,-2.7369,-2.7652,-2.8448,-2.9521,-2.9704,-2.9795,-3.0588,-3.1309,-3.1701,-3.1741,-3.1717,-3.1717,-3.1705,-3.1705,-3.1705,-3.1705,-3.1705,-3.1705,-3.1705,-3.1705,-3.1705,-3.1705,-3.1705,-3.1472,-3.1528,-3.1427,-3.1572,-3.1705,-3.1705,-3.1705,-3.1705,-3.1705,-3.1705,-3.1705,-3.1705,-3.1705,-3.1705,-3.2538,-3.33,-3.4337,-3.5174,-3.587,-3.6263,-3.6417,-3.6417,-3.6417,-3.6417,-3.6417,-3.6417,-3.6417,-3.6417,-3.6417,-3.6417,-3.6417,-3.6417,-3.6417,-3.6417,-3.6417,-3.6417,-3.6417,-3.6417,-3.6417,-3.6417,-3.6417,-3.6392,-3.6317,-3.5805,-3.3981,-3.1354,-2.8772,-2.7762,-2.7357,-2.732,-2.732,-2.732,-2.732,-2.732,-2.732,-2.732,-2.732,-2.732,-2.732,-2.732,-2.732,-2.732,-2.732,-2.732,-2.732,-2.732,-2.732,-2.732,-2.732,-2.732,-2.732,-2.732,-2.732,-2.7177,-2.7129,-2.7129,-2.7167,-2.7214,-2.7272,-2.7225,-2.7081,-2.689,-2.664,-2.64,-2.6159,-2.582,-2.5732,-2.5684,-2.5684,-2.5684,-2.582,-2.6552,-2.6686,-2.701,-2.7662,-2.8727,-2.9852,-3.017,-3.0588,-3.1231,-3.1841,-3.1849,-3.1813,-3.1789,-3.1789,-3.1777,-3.1741,-3.1729,-3.1717,-3.1705,-3.1705,-3.1705,-3.16,-3.1493,-3.0913,-3.0543,-3.0869,-3.1104,-3.1104,-3.1205,-3.1572,-3.1705,-3.1705,-3.1705,-3.1705,-3.1705,-3.1705,-3.1705,-3.1705,-3.3216,-3.3377,-3.4385,-3.4884,-3.503,-3.5858,-3.631,-3.6417,-3.6417,-3.6417,-3.6417,-3.6417,-3.6417,-3.6417,-3.6417,-3.6417,-3.6417,-3.6417,-3.6417,-3.6417,-3.6417,-3.6417,-3.6417,-3.6417,-3.6417,-3.6417,-3.6358,-3.625,-3.6235,-3.4876,-3.3125,-3.1121,-2.8683,-2.7708,-2.7444,-2.7361,-2.734,-2.732,-2.732,-2.732,-2.732,-2.732,-2.732,-2.732,-2.732,-2.732,-2.732,-2.732,-2.732,-2.732,-2.732,-2.732,-2.732,-2.732,-2.732,-2.732,-2.732,-2.7272,-2.7225,-2.7034,-2.689,-2.689,-2.69,-2.7034,-2.7129,-2.7034,-2.689,-2.6747,-2.6544,-2.6304,-2.611,-2.5868,-2.5684,-2.5684,-2.5684,-2.5684,-2.5684,-2.5868,-2.5868,-2.6284,-2.6962,-2.7992,-2.9463,-3.0114,-3.0912,-3.1618,-3.219,-3.231,-3.2226,-3.1937,-3.197,-3.191,-3.1862,-3.1753,-3.1777,-3.1877,-3.1731,-3.1727,-3.12,-3.0938,-3.0262,-2.9931,-3.0342,-3.0594,-3.0455,-3.0689,-3.1427,-3.1705,-3.1705,-3.1705,-3.1705,-3.1705,-3.1705,-3.1705,-3.1705,-3.3778,-3.391,-3.5364,-3.5511,-3.4872,-3.5126,-3.5667,-3.6358,-3.6417,-3.6417,-3.6417,-3.6417,-3.6417,-3.6417,-3.6417,-3.6417,-3.6417,-3.6417,-3.6417,-3.6417,-3.6417,-3.6417,-3.6417,-3.6417,-3.6417,-3.6358,-3.631,-3.5906,-3.4896,-3.3646,-3.2325,-3.07,-2.8726,-2.7914,-2.7593,-2.7417,-2.7382,-2.734,-2.7351,-2.732,-2.732,-2.732,-2.732,-2.732,-2.732,-2.732,-2.732,-2.732,-2.732,-2.732,-2.732,-2.732,-2.732,-2.732,-2.732,-2.7262,-2.7129,-2.6986,-2.6986,-2.6794,-2.6592,-2.6592,-2.6602,-2.6757,-2.6842,-2.6794,-2.6651,-2.6544,-2.64,-2.6207,-2.5965,-2.5781,-2.5684,-2.5684,-2.5684,-2.5684,-2.5684,-2.5684,-2.5732,-2.6197,-2.6887,-2.8072,-2.9483,-3.0675,-3.1481,-3.2112,-3.2563,-3.2743,-3.2719,-3.2442,-3.2274,-3.2226,-3.2085,-3.2037,-3.2088,-3.2187,-3.1933,-3.1658,-3.0972,-3.0386,-2.9969,-2.9793,-3.0011,-3.0348,-3.0709,-3.109,-3.1572,-3.1705,-3.1705,-3.1705,-3.1705,-3.1705,-3.1705,-3.1705,-3.1705,-3.3669,-3.3788,-3.4924,-3.5422,-3.5355,-3.4981,-3.5415,-3.6263,-3.6417,-3.6417,-3.6417,-3.6417,-3.6417,-3.6417,-3.6417,-3.6417,-3.6417,-3.6417,-3.6417,-3.6417,-3.6417,-3.6417,-3.6417,-3.6417,-3.6417,-3.631,-3.5918,-3.5367,-3.4145,-3.2362,-3.0921,-3.0751,-2.8891,-2.8136,-2.779,-2.751,-2.7417,-2.7455,-2.7444,-2.7351,-2.733,-2.733,-2.732,-2.732,-2.732,-2.732,-2.7309,-2.7309,-2.7309,-2.732,-2.732,-2.732,-2.7272,-2.7225,-2.7129,-2.7081,-2.688,-2.6747,-2.6699,-2.6496,-2.64,-2.6342,-2.6255,-2.6352,-2.6496,-2.6496,-2.6448,-2.6342,-2.6197,-2.6014,-2.5868,-2.5684,-2.5684,-2.5684,-2.5684,-2.5684,-2.5684,-2.5684,-2.6014,-2.6496,-2.7372,-2.8541,-2.9793,-3.1042,-3.2019,-3.2659,-3.3152,-3.3416,-3.3332,-3.3044,-3.2875,-3.2791,-3.2613,-3.2414,-3.2442,-3.2273,-3.1762,-3.1108,-3.0081,-2.9629,-2.9469,-2.9268,-2.9153,-3.0144,-3.1332,-3.1601,-3.1705,-3.1733,-3.1705,-3.1661,-3.1617,-3.1705,-3.1705,-3.1705,-3.1705,-3.3208,-3.3256,-3.3752,-3.484,-3.6056,-3.5185,-3.5354,-3.6358,-3.6417,-3.6417,-3.6417,-3.6417,-3.6417,-3.6417,-3.6417,-3.6417,-3.6417,-3.6417,-3.6417,-3.6417,-3.6417,-3.6417,-3.6417,-3.6417,-3.6417,-3.6026,-3.5427,-3.4715,-3.3815,-3.2128,-3.0626,-3.0704,-2.9102,-2.8235,-2.8193,-2.78,-2.7748,-2.7893,-2.7728,-2.761,-2.7434,-2.7372,-2.732,-2.732,-2.732,-2.732,-2.7309,-2.7309,-2.7262,-2.7262,-2.7225,-2.7214,-2.7081,-2.6986,-2.689,-2.6794,-2.6592,-2.6496,-2.64,-2.6294,-2.6149,-2.6004,-2.5868,-2.6014,-2.6159,-2.6255,-2.6159,-2.6149,-2.6052,-2.5917,-2.5732,-2.5684,-2.5684,-2.5684,-2.5684,-2.5684,-2.5684,-2.5879,-2.6269,-2.6939,-2.8153,-2.935,-3.0678,-3.1938,-3.2829,-3.3347,-3.3717,-3.3994,-3.3863,-3.3587,-3.3348,-3.3251,-3.3033,-3.2753,-3.2594,-3.2276,-3.1451,-3.0612,-2.9661,-2.8967,-2.8921,-2.8564,-2.8167,-2.9526,-3.0927,-3.1507,-3.1756,-3.1541,-3.1371,-3.1339,-3.1383,-3.1617,-3.1705,-3.1617,-3.1705,-3.3717,-3.3665,-3.3429,-3.4255,-3.5506,-3.4614,-3.5048,-3.6358,-3.6417,-3.6392,-3.6417,-3.6417,-3.6417,-3.6417,-3.6417,-3.6417,-3.6417,-3.6417,-3.6417,-3.6417,-3.6417,-3.6417,-3.637,-3.6263,-3.631,-3.6061,-3.5271,-3.3822,-3.2431,-3.1087,-3.0243,-3.0139,-2.9125,-2.8825,-2.8794,-2.839,-2.8255,-2.8371,-2.8196,-2.7968,-2.7754,-2.7469,-2.732,-2.732,-2.7282,-2.7262,-2.7167,-2.7081,-2.7034,-2.6996,-2.6784,-2.6688,-2.6688,-2.6592,-2.6602,-2.6554,-2.6352,-2.6197,-2.6149,-2.61,-2.6004,-2.6014,-2.5975,-2.5975,-2.5975,-2.5927,-2.5927,-2.5965,-2.5965,-2.583,-2.5742,-2.5684,-2.5684,-2.5684,-2.5693,-2.5693,-2.5693,-2.6133,-2.6515,-2.7672,-2.8914,-3.0182,-3.1476,-3.2594,-3.3481,-3.4054,-3.4342,-3.4522,-3.4317,-3.4066,-3.36,-3.3446,-3.33,-3.31,-3.2697,-3.2039,-3.1103,-3.068,-2.9977,-2.925,-2.8583,-2.927,-2.9881,-2.9682,-3.0379,-3.1154,-3.1459,-3.0881,-3.0767,-3.0968,-3.0869,-3.1003,-3.1339,-3.1339,-3.1572,-3.3533,-3.3508,-3.3518,-3.4094,-3.4932,-3.4555,-3.4957,-3.5884,-3.5994,-3.6144,-3.6392,-3.6417,-3.6417,-3.6417,-3.6417,-3.6417,-3.6417,-3.6417,-3.6417,-3.6417,-3.6417,-3.6417,-3.631,-3.5966,-3.5667,-3.5367,-3.397,-3.2426,-3.1032,-3.0474,-3.0005,-2.9922,-2.957,-2.9311,-2.9249,-2.8897,-2.8662,-2.8716,-2.8572,-2.8357,-2.8082,-2.7731,-2.7459,-2.7407,-2.7157,-2.7085,-2.6928,-2.6794,-2.6747,-2.6699,-2.6602,-2.6544,-2.6496,-2.64,-2.6342,-2.6255,-2.611,-2.5917,-2.5917,-2.5917,-2.5868,-2.5927,-2.5878,-2.583,-2.583,-2.5781,-2.5781,-2.583,-2.582,-2.5684,-2.5684,-2.5684,-2.5684,-2.5684,-2.5732,-2.5762,-2.5957,-2.6251,-2.7022,-2.8076,-2.9379,-3.0747,-3.2071,-3.342,-3.4018,-3.3496,-3.4019,-3.3685,-3.3709,-3.3918,-3.3609,-3.3264,-3.2881,-3.2194,-3.1362,-3.0929,-3.0525,-3.0264,-3.013,-3.0099,-2.9881,-3.1016,-3.1739,-3.0985,-3.0678,-3.1229,-3.129,-3.0502,-3.0647,-3.1043,-3.0696,-3.0306,-3.0633,-3.0847,-3.0802,-3.3136,-3.3199,-3.3596,-3.411,-3.4575,-3.4568,-3.4944,-3.5458,-3.5508,-3.5868,-3.6367,-3.6417,-3.6417,-3.6417,-3.6417,-3.6417,-3.6417,-3.6417,-3.6417,-3.6417,-3.6417,-3.6168,-3.5715,-3.5319,-3.4824,-3.392,-3.2627,-3.1432,-3.0193,-2.9994,-2.9973,-2.9901,-2.9684,-2.9394,-2.927,-2.9064,-2.8961,-2.8932,-2.8809,-2.8574,-2.831,-2.7965,-2.7657,-2.7323,-2.7002,-2.6625,-2.6526,-2.6448,-2.6448,-2.641,-2.6362,-2.6314,-2.6255,-2.6169,-2.611,-2.6014,-2.5878,-2.5781,-2.5732,-2.582,-2.5781,-2.5742,-2.5742,-2.5732,-2.5732,-2.5732,-2.5732,-2.5742,-2.5732,-2.5801,-2.5801,-2.5781,-2.5781,-2.5888,-2.5947,-2.6054,-2.6338,-2.6564,-2.7502,-2.8509,-2.9782,-3.1119,-3.2684,-3.4061,-3.385,-3.3327,-3.2889,-3.2437,-3.2185,-3.2488,-3.256,-3.2141,-3.1762,-3.099,-3.0431,-3.0057,-2.9985,-2.9766,-2.9723,-3.039,-3.103,-3.1494,-3.1653,-3.1422,-3.1344,-3.1246,-3.0751,-2.9992,-3.037,-3.0775,-3.0285,-2.9726,-2.9726,-2.9874,-2.9691,-3.3124,-3.3136,-3.3194,-3.3545,-3.4022,-3.406,-3.4625,-3.5395,-3.547,-3.5843,-3.6279,-3.6405,-3.6417,-3.6417,-3.6417,-3.6417,-3.6417,-3.6417,-3.6417,-3.6417,-3.6417,-3.587,-3.5162,-3.452,-3.3674,-3.2627,-3.1626,-3.1032,-3.0151,-2.9994,-2.9994,-2.9963,-2.9963,-2.9839,-2.9829,-2.9632,-2.9477,-2.9341,-2.9184,-2.9039,-2.8639,-2.8206,-2.7602,-2.732,-2.707,-2.6798,-2.6559,-2.6304,-2.6197,-2.61,-2.6014,-2.5975,-2.5927,-2.5878,-2.583,-2.583,-2.5732,-2.5732,-2.5732,-2.582,-2.583,-2.5742,-2.5732,-2.583,-2.5781,-2.5732,-2.5742,-2.5801,-2.5859,-2.6045,-2.6055,-2.6162,-2.6211,-2.6504,-2.666,-2.6904,-2.7139,-2.7365,-2.7822,-2.8819,-2.9853,-3.1584,-3.3487,-3.3909,-3.3304,-3.2951,-3.2739,-3.2235,-3.1268,-3.137,-3.1472,-3.1114,-3.0691,-3.1114,-3.1103,-3.0005,-2.9629,-2.9355,-2.9365,-3.013,-3.0753,-3.1216,-3.1297,-3.1184,-3.0771,-3.0455,-2.9899,-2.9579,-2.9677,-2.9947,-2.9553,-2.9209,-2.9241,-2.9036,-2.9016]},{"header":{"parameterUnit":"m.s-1","parameterCategory":1,"la1":31.0,"la2":29.5877,"lo1":-88.7671,"lo2":-86.6584,"dy":0.0162,"dx":0.0185,"nx":115,"ny":88,"refTime":"2024-06-22T18:00:00:Z","depth":0,"parameterNumber":3,"parameterNumberName":"V-component_of_WINDS"},"data":[0.0,0.0,0.0,0.0,0.0,0.0,0.0,0.0,0.0,0.0,0.0,0.0,0.0,0.0,0.0,0.0,0.0,0.0,0.0,0.0,0.0,0.0,0.0,0.0,0.0,0.0,0.0,0.0,0.0,0.0,0.0,0.0,0.0,0.0,0.0,0.0,0.0,0.0,0.0,0.0,0.0,0.0,0.0,0.0,0.0,0.0,0.0,0.0,0.0,0.0,0.0,0.0,0.0,0.0,0.0,0.0,0.0,0.0,0.0,0.0,0.0,0.0,0.0,0.0,0.0,0.0,0.0,0.0,0.0,0.0,0.0,0.0,0.0,0.0,0.0,0.0,0.0,0.0,0.0,0.0,0.0,0.0,0.0,0.0,0.0,0.0,0.0,0.0,0.0,0.0,0.0,0.0,0.0,0.0,0.0,0.0,0.0,0.0,0.0,0.0,0.0,0.0,0.0,0.0,0.0,0.0,0.0,0.0,0.0,0.0,0.0,0.0,0.0,0.0,0.0,0.0,0.0,0.0,0.0,0.0,0.0,0.0,0.0,0.0,0.0,0.0,0.0,0.0,0.0,0.0,0.0,0.0,0.0,0.0,0.0,0.0,0.0,0.0,0.0,0.0,0.0,0.0,0.0,0.0,0.0,0.0,0.0,0.0,0.0,0.0,0.0,0.0,0.0,0.0,0.0,0.0,0.0,0.0,0.0,0.0,0.0,0.0,0.0,0.0,0.0,0.0,0.0,0.0,0.0,0.0,0.0,0.0,0.0,0.0,0.0,0.0,0.0,0.0,0.0,0.0,0.0,0.0,0.0,0.0,0.0,0.0,0.0,0.0,0.0,0.0,0.0,0.0,0.0,0.0,0.0,0.0,0.0,0.0,0.0,0.0,0.0,0.0,0.0,0.0,0.0,0.0,0.0,0.0,0.0,0.0,0.0,0.0,0.0,0.0,0.0,0.0,0.0,0.0,0.0,0.0,0.0,0.0,0.0,0.0,0.0,0.0,0.0,0.0,0.0,0.0,0.0,0.0,0.0,0.0,0.0,0.0,0.0,0.0,0.0,0.0,0.0,0.0,0.0,0.0,0.0,0.0,0.0,0.0,0.0,0.0,0.0,0.0,0.0,0.0,0.0,0.0,0.0,0.0,0.0,0.0,0.0,0.0,0.0,0.0,0.0,0.0,0.0,0.0,0.0,0.0,0.0,0.0,0.0,0.0,0.0,0.0,0.0,0.0,0.0,0.0,0.0,0.0,0.0,0.0,0.0,0.0,0.0,0.0,0.0,0.0,0.0,0.0,0.0,0.0,0.0,0.0,0.0,0.0,0.0,0.0,0.0,0.0,0.0,0.0,0.0,0.0,0.0,0.0,0.0,0.0,0.0,0.0,0.0,0.0,0.0,0.0,0.0,0.0,0.0,0.0,0.0,0.0,0.0,0.0,0.0,0.0,0.0,0.0,0.0,0.0,0.0,0.0,0.0,0.0,0.0,0.0,0.0,0.0,0.0,0.0,0.0,0.0,0.0,0.0,0.0,0.0,0.0,0.0,0.0,0.0,0.0,0.0,0.0,0.0,0.0,0.0,0.0,0.0,0.0,0.0,0.0,0.0,0.0,0.0,0.0,0.0,0.0,0.0,0.0,0.0,0.0,0.0,0.0,0.0,0.0,0.0,0.0,0.0,0.0,0.0,0.0,0.0,0.0,0.0,0.0,0.0,0.0,0.0,0.0,0.0,0.0,0.0,0.0,0.0,0.0,0.0,0.0,0.0,0.0,0.0,0.0,0.0,0.0,0.0,0.0,0.0,0.0,0.0,0.0,0.0,0.0,0.0,0.0,0.0,0.0,0.0,0.0,0.0,0.0,0.0,0.0,0.0,0.0,0.0,0.0,0.0,0.0,0.0,0.0,0.0,0.0,0.0,0.0,0.0,0.0,0.0,0.0,0.0,0.0,0.0,0.0,0.0,0.0,0.0,0.0,0.0,0.0,0.0,0.0,0.0,0.0,0.0,0.0,0.0,0.0,0.0,0.0,0.0,0.0,0.0,0.0,0.0,0.0,0.0,0.0,0.0,0.0,0.0,0.0,0.0,0.0,0.0,0.0,0.0,0.0,0.0,0.0,0.0,0.0,0.0,0.0,0.0,0.0,0.0,0.0,0.0,0.0,0.0,0.0,0.0,0.0,0.0,0.0,0.0,0.0,0.0,0.0,0.0,0.0,0.0,0.0,0.0,0.0,0.0,0.0,0.0,0.0,0.0,0.0,0.0,0.0,0.0,0.0,0.0,0.0,0.0,0.0,0.0,0.0,0.0,0.0,0.0,0.0,0.0,0.0,0.0,0.0,0.0,0.0,0.0,0.0,0.0,0.0,0.0,0.0,0.0,0.0,0.0,0.0,0.0,0.0,0.0,0.0,0.0,0.0,0.0,0.0,0.0,0.0,0.0,0.0,0.0,0.0,0.0,0.0,0.0,0.0,0.0,0.0,0.0,0.0,0.0,0.0,0.0,0.0,0.0,0.0,0.0,0.0,0.0,0.0,0.0,0.0,0.0,0.0,0.0,0.0,0.0,0.0,0.0,0.0,0.0,0.0,0.0,0.0,0.0,0.0,0.0,0.0,0.0,0.0,0.0,0.0,0.0,0.0,0.0,0.0,0.0,0.0,0.0,0.0,0.0,0.0,0.0,0.0,0.0,0.0,0.0,0.0,0.0,0.0,0.0,0.0,0.0,0.0,0.0,0.0,0.0,0.0,0.0,0.0,0.0,0.0,0.0,0.0,0.0,0.0,0.0,0.0,0.0,0.0,0.0,0.0,0.0,0.0,0.0,0.0,0.0,0.0,0.0,0.0,0.0,0.0,0.0,0.0,0.0,0.0,0.0,0.0,0.0,0.0,0.0,0.0,0.0,0.0,0.0,0.0,0.0,0.0,0.0,0.0,0.0,0.0,0.0,0.0,0.0,0.0,0.0,0.0,0.0,0.0,0.0,0.0,0.0,0.0,0.0,0.0,0.0,0.0,0.0,0.0,0.0,0.0,0.0,0.0,0.0,0.0,0.0,0.0,0.0,0.0,0.0,0.0,0.0,0.0,0.0,0.0,0.0,0.0,0.0,0.0,0.0,0.0,0.0,0.0,0.0,0.0,0.0,0.0,0.0,0.0,0.0,0.0,0.0,0.0,0.0,0.0,0.0,0.0,0.0,0.0,0.0,0.0,0.0,0.0,0.0,0.0,0.0,0.0,0.0,0.0,0.0,0.0,0.0,0.0,0.0,0.0,0.0,0.0,0.0,0.0,0.0,0.0,0.0,0.0,0.0,0.0,0.0,0.0,0.0,0.0,0.0,0.0,0.0,0.0,0.0,0.0,0.0,0.0,0.0,0.0,0.0,0.0,0.0,0.0,0.0,0.0,0.0,0.0,0.0,0.0,0.0,0.0,0.0,0.0,0.0,0.0,0.0,0.0,0.0,0.0,0.0,0.0,0.0,0.0,0.0,0.0,0.0,0.0,0.0,0.0,0.0,0.0,0.0,0.0,0.0,0.0,0.0,0.0,0.0,0.0,0.0,0.0,0.0,0.0,0.0,0.0,0.0,0.0,0.0,0.0,0.0,0.0,0.0,0.0,0.0,0.0,0.0,0.0,0.0,0.0,0.0,0.0,0.0,0.0,0.0,0.0,0.0,0.0,0.0,0.0,0.0,0.0,0.0,0.0,0.0,0.0,0.0,0.0,0.0,0.0,0.0,0.0,0.0,0.0,0.0,0.0,0.0,0.0,0.0,0.0,0.0,0.0,0.0,0.0,0.0,0.0,0.0,0.0,0.0,0.0,0.0,0.0,0.0,0.0,0.0,0.0,0.0,0.0,0.0,0.0,0.0,0.0,0.0,0.0,0.0,0.0,0.0,0.0,0.0,0.0,0.0,0.0,0.0,0.0,0.0,0.0,0.0,0.0,0.0,0.0,0.0,0.0,0.0,0.0,0.0,0.0,0.0,0.0,0.0,0.0,0.0,0.0,0.0,0.0,0.0,0.0,0.0,0.0,0.0,0.0,0.0,0.0,0.0,0.0,0.0,0.0,0.0,0.0,0.0,0.0,0.0,0.0,0.0,0.0,0.0,0.0,0.0,0.0,0.0,0.0,0.0,0.0,0.0,0.0,0.0,0.0,0.0,0.0,0.0,0.0,0.0,0.0,0.0,0.0,0.0,0.0,0.0,0.0,0.0,0.0,0.0,0.0,0.0,0.0,0.0,0.0,0.0,0.0,0.0,0.0,0.0,0.0,0.0,0.0,0.0,-0.8477,0.0,0.0,0.0,0.0,0.0,0.0,0.0,0.0,0.0,0.0,0.0,0.0,0.0,0.0,0.0,0.0,0.0,0.0,0.0,0.0,0.0,0.0,0.0,0.0,0.0,0.0,0.0,0.0,0.0,0.0,0.0,0.0,0.0,0.0,0.0,0.0,0.0,0.0,0.0,0.0,0.0,0.0,0.0,0.0,0.0,0.0,0.0,0.0,0.0,0.0,0.0,0.0,0.0,0.0,0.0,0.0,0.0,0.0,0.0,0.0,0.0,0.0,0.0,0.0,0.0,0.0,0.0,0.0,0.0,0.0,0.0,0.0,0.0,0.0,0.0,0.0,0.0,0.0,0.0,0.0,0.0,0.0,0.0,0.0,0.0,0.0,0.0,0.0,0.0,0.0,0.0,0.0,0.0,0.0,0.0,0.0,0.0,0.0,0.0,0.0,0.0,0.0,0.0,0.0,0.0,0.0,0.0,0.0,0.0,0.0,-0.9944,-0.9685,-0.9157,-0.8826,-0.8706,0.0,0.0,0.0,0.0,0.0,0.0,0.0,0.0,0.0,0.0,0.0,0.0,0.0,0.0,0.0,0.0,0.0,0.0,0.0,0.0,0.0,0.0,0.0,0.0,0.0,0.0,0.0,0.0,0.0,0.0,0.0,0.0,0.0,0.0,0.0,0.0,0.0,0.0,0.0,0.0,0.0,0.0,0.0,0.0,0.0,0.0,0.0,0.0,0.0,0.0,0.0,0.0,0.0,0.0,0.0,0.0,0.0,0.0,0.0,0.0,0.0,0.0,0.0,0.0,0.0,0.0,0.0,0.0,0.0,0.0,0.0,0.0,0.0,0.0,0.0,0.0,0.0,0.0,0.0,0.0,0.0,0.0,0.0,0.0,0.0,0.0,0.0,0.0,0.0,0.0,0.0,0.0,0.0,0.0,0.0,0.0,0.0,0.0,0.0,0.0,0.0,0.0,0.0,0.0,0.0,0.0,0.0,0.0,0.0,0.0,0.0,0.0,-0.9674,-0.9351,-0.9249,0.0,0.0,0.0,0.0,0.0,0.0,0.0,0.0,0.0,0.0,0.0,0.0,0.0,0.0,0.0,0.0,0.0,0.0,0.0,0.0,0.0,0.0,0.0,0.0,0.0,0.0,0.0,0.0,0.0,0.0,0.0,0.0,0.0,0.0,0.0,0.0,0.0,0.0,0.0,0.0,0.0,0.0,0.0,0.0,0.0,0.0,0.0,0.0,0.0,0.0,0.0,0.0,0.0,0.0,0.0,0.0,0.0,0.0,0.0,0.0,0.0,0.0,0.0,0.0,0.0,0.0,0.0,0.0,0.0,0.0,0.0,0.0,0.0,0.0,0.0,0.0,0.0,0.0,0.0,0.0,0.0,0.0,0.0,0.0,0.0,0.0,0.0,0.0,0.0,0.0,0.0,0.0,0.0,0.0,0.0,0.0,0.0,0.0,0.0,0.0,0.0,0.0,0.0,0.0,0.0,0.0,0.0,0.0,0.0,0.0,-1.1296,-1.1927,-1.1714,0.0,-1.0943,0.0,0.0,0.0,0.0,0.0,0.0,0.0,0.0,0.0,0.0,0.0,0.0,0.0,0.0,0.0,0.0,0.0,0.0,0.0,0.0,0.0,0.0,0.0,0.0,0.0,0.0,0.0,0.0,0.0,0.0,0.0,0.0,0.0,0.0,0.0,0.0,0.0,0.0,0.0,0.0,0.0,0.0,0.0,0.0,0.0,0.0,0.0,0.0,0.0,0.0,0.0,0.0,0.0,0.0,0.0,0.0,0.0,0.0,0.0,0.0,0.0,0.0,0.0,0.0,0.0,0.0,0.0,0.0,0.0,0.0,0.0,0.0,0.0,0.0,0.0,0.0,0.0,0.0,0.0,0.0,0.0,0.0,0.0,0.0,0.0,0.0,0.0,0.0,0.0,0.0,0.0,0.0,0.0,0.0,0.0,0.0,0.0,0.0,0.0,0.0,0.0,0.0,0.0,0.0,0.0,0.0,0.0,0.0,0.0,0.0,0.0,-1.2198,-1.1654,-1.1272,0.0,0.0,0.0,0.0,0.0,0.0,0.0,0.0,0.0,0.0,0.0,0.0,0.0,0.0,0.0,0.0,0.0,0.0,0.0,0.0,0.0,0.0,0.0,0.0,0.0,0.0,0.0,0.0,0.0,0.0,0.0,0.0,0.0,0.0,0.0,0.0,0.0,0.0,0.0,0.0,0.0,0.0,0.0,0.0,0.0,0.0,0.0,0.0,0.0,0.0,0.0,0.0,0.0,0.0,0.0,0.0,0.0,0.0,0.0,0.0,0.0,0.0,0.0,0.0,0.0,0.0,0.0,0.0,0.0,0.0,0.0,0.0,0.0,0.0,0.0,0.0,0.0,0.0,0.0,0.0,0.0,0.0,0.0,0.0,0.0,0.0,0.0,0.0,0.0,0.0,0.0,0.0,0.0,0.0,0.0,0.0,0.0,0.0,0.0,0.0,0.0,0.0,0.0,0.0,0.0,0.0,0.0,0.0,0.0,0.0,-1.1817,0.0,-1.256,-1.2043,-1.1471,-1.0912,0.0,0.0,0.0,0.0,0.0,0.0,0.0,0.0,0.0,0.0,0.0,0.0,0.0,0.0,0.0,0.0,0.0,0.0,0.0,0.0,0.0,0.0,0.0,0.0,0.0,0.0,0.0,0.0,0.0,0.0,0.0,0.0,0.0,0.0,0.0,0.0,0.0,0.0,0.0,0.0,0.0,0.0,0.0,0.0,0.0,0.0,0.0,0.0,0.0,0.0,0.0,0.0,0.0,0.0,0.0,0.0,0.0,0.0,0.0,0.0,0.0,0.0,0.0,0.0,0.0,0.0,0.0,0.0,0.0,0.0,0.0,0.0,0.0,0.0,0.0,0.0,0.0,0.0,0.0,0.0,0.0,0.0,0.0,0.0,0.0,0.0,0.0,0.0,0.0,0.0,0.0,0.0,0.0,0.0,0.0,0.0,0.0,0.0,0.0,0.0,0.0,0.0,0.0,0.0,0.0,0.0,0.0,0.0,0.0,-1.2577,-1.2525,-1.3605,-1.3598,-1.2643,0.0,0.0,0.0,0.0,0.0,0.0,0.0,0.0,0.0,0.0,0.0,0.0,0.0,0.0,0.0,0.0,0.0,0.0,0.0,0.0,0.0,0.0,0.0,0.0,0.0,0.0,0.0,0.0,0.0,0.0,0.0,0.0,0.0,0.0,0.0,0.0,0.0,0.0,0.0,0.0,0.0,0.0,0.0,0.0,0.0,0.0,0.0,0.0,0.0,0.0,0.0,0.0,0.0,0.0,0.0,0.0,0.0,0.0,0.0,0.0,0.0,0.0,0.0,0.0,0.0,0.0,0.0,0.0,0.0,0.0,0.0,0.0,0.0,0.0,0.0,0.0,0.0,0.0,0.0,0.0,0.0,0.0,0.0,0.0,0.0,0.0,0.0,0.0,0.0,0.0,0.0,0.0,0.0,0.0,0.0,0.0,0.0,0.0,0.0,0.0,0.0,0.0,0.0,0.0,0.0,0.0,0.0,0.0,0.0,-1.1575,-1.2273,-1.3496,-1.5098,-1.3051,-1.1801,0.0,0.0,0.0,0.0,0.0,0.0,0.0,0.0,0.0,0.0,0.0,0.0,0.0,0.0,0.0,0.0,0.0,0.0,0.0,0.0,0.0,0.0,0.0,0.0,0.0,0.0,0.0,0.0,0.0,0.0,0.0,0.0,0.0,0.0,0.0,0.0,0.0,0.0,0.0,0.0,0.0,0.0,0.0,0.0,0.0,0.0,0.0,0.0,0.0,0.0,0.0,0.0,0.0,0.0,0.0,0.0,0.0,0.0,0.0,0.0,0.0,0.0,0.0,0.0,0.0,0.0,0.0,0.0,0.0,0.0,0.0,0.0,0.0,0.0,0.0,0.0,0.0,0.0,0.0,0.0,0.0,0.0,0.0,0.0,0.0,0.0,0.0,0.0,0.0,0.0,0.0,0.0,0.0,0.0,0.0,0.0,0.0,0.0,0.0,0.0,0.0,0.0,0.0,0.0,0.0,0.0,0.0,0.0,0.0,-1.1547,0.0,-1.4721,0.0,-1.3397,-1.1879,0.0,0.0,0.0,0.0,0.0,0.0,0.0,0.0,0.0,0.0,0.0,0.0,0.0,0.0,0.0,0.0,0.0,0.0,0.0,0.0,0.0,0.0,0.0,0.0,0.0,0.0,0.0,0.0,0.0,0.0,0.0,0.0,0.0,0.0,0.0,0.0,0.0,0.0,0.0,0.0,0.0,0.0,0.0,0.0,0.0,0.0,0.0,0.0,0.0,0.0,0.0,0.0,0.0,0.0,0.0,0.0,0.0,0.0,0.0,0.0,0.0,0.0,0.0,0.0,0.0,0.0,0.0,0.0,0.0,0.0,0.0,0.0,0.0,0.0,0.0,0.0,0.0,0.0,0.0,0.0,0.0,0.0,0.0,0.0,0.0,0.0,0.0,0.0,0.0,0.0,0.0,0.0,0.0,0.0,0.0,0.0,0.0,0.0,0.0,0.0,0.0,0.0,0.0,0.0,0.0,0.0,0.0,0.0,-1.1704,-1.3984,-1.5888,-1.6125,-1.4725,-1.4773,-1.3037,0.0,0.0,0.0,0.0,0.0,0.0,0.0,0.0,0.0,0.0,0.0,0.0,0.0,0.0,0.0,0.0,0.0,0.0,0.0,0.0,0.0,0.0,0.0,0.0,0.0,0.0,0.0,0.0,0.0,0.0,0.0,0.0,0.0,0.0,0.0,0.0,0.0,0.0,0.0,0.0,0.0,0.0,0.0,0.0,0.0,0.0,0.0,0.0,0.0,0.0,0.0,0.0,0.0,0.0,0.0,0.0,0.0,0.0,0.0,0.0,0.0,0.0,0.0,0.0,0.0,0.0,0.0,0.0,0.0,0.0,0.0,0.0,0.0,0.0,0.0,0.0,0.0,0.0,0.0,0.0,0.0,0.0,0.0,0.0,0.0,0.0,0.0,0.0,0.0,0.0,0.0,0.0,0.0,0.0,0.0,0.0,0.0,0.0,0.0,0.0,0.0,0.0,0.0,0.0,0.0,0.0,0.0,0.0,0.0,-1.3647,-1.502,-1.6149,-1.6824,-1.4426,-1.3049,0.0,0.0,0.0,0.0,0.0,0.0,0.0,0.0,0.0,0.0,0.0,0.0,0.0,0.0,0.0,0.0,0.0,0.0,0.0,0.0,0.0,0.0,0.0,0.0,0.0,0.0,0.0,0.0,0.0,0.0,0.0,0.0,0.0,0.0,0.0,0.0,0.0,0.0,0.0,0.0,0.0,0.0,0.0,0.0,0.0,0.0,0.0,0.0,0.0,0.0,0.0,0.0,0.0,0.0,0.0,0.0,0.0,0.0,0.0,0.0,0.0,0.0,0.0,0.0,0.0,0.0,0.0,0.0,0.0,0.0,0.0,0.0,0.0,0.0,0.0,0.0,0.0,0.0,0.0,0.0,0.0,0.0,0.0,0.0,0.0,0.0,0.0,0.0,0.0,0.0,0.0,0.0,0.0,0.0,0.0,0.0,0.0,0.0,0.0,0.0,0.0,0.0,0.0,0.0,0.0,0.0,0.0,0.0,0.0,-1.5575,-1.6498,-1.7346,-1.8054,-1.5433,-1.397,-1.3842,0.0,0.0,0.0,0.0,0.0,0.0,0.0,0.0,0.0,0.0,0.0,0.0,0.0,0.0,0.0,0.0,0.0,0.0,0.0,0.0,0.0,0.0,0.0,0.0,0.0,0.0,0.0,0.0,0.0,0.0,0.0,0.0,0.0,0.0,0.0,0.0,0.0,0.0,0.0,0.0,0.0,0.0,0.0,0.0,0.0,0.0,0.0,0.0,0.0,0.0,0.0,0.0,0.0,0.0,0.0,0.0,0.0,0.0,0.0,0.0,0.0,0.0,0.0,0.0,0.0,0.0,0.0,0.0,0.0,0.0,0.0,0.0,0.0,0.0,0.0,0.0,0.0,0.0,0.0,0.0,0.0,0.0,0.0,0.0,0.0,0.0,0.0,0.0,0.0,0.0,0.0,0.0,0.0,0.0,0.0,0.0,0.0,0.0,0.0,0.0,0.0,0.0,0.0,0.0,0.0,0.0,0.0,0.0,-1.9246,-1.9957,-1.9725,-1.8546,-1.7635,-1.5801,0.0,0.0,0.0,0.0,0.0,0.0,0.0,0.0,0.0,0.0,0.0,0.0,0.0,0.0,0.0,0.0,0.0,0.0,0.0,0.0,0.0,0.0,0.0,0.0,0.0,0.0,0.0,0.0,0.0,0.0,0.0,0.0,0.0,0.0,0.0,0.0,0.0,0.0,0.0,0.0,0.0,0.0,0.0,0.0,0.0,0.0,0.0,0.0,0.0,0.0,0.0,0.0,0.0,0.0,0.0,0.0,0.0,0.0,0.0,0.0,0.0,0.0,0.0,0.0,0.0,0.0,0.0,0.0,0.0,0.0,0.0,0.0,0.0,0.0,0.0,0.0,0.0,0.0,0.0,0.0,0.0,0.0,0.0,0.0,0.0,0.0,0.0,0.0,0.0,0.0,0.0,0.0,0.0,0.0,0.0,0.0,0.0,0.0,0.0,0.0,0.0,0.0,0.0,0.0,0.0,0.0,0.0,0.0,0.0,-2.1162,-2.2323,-2.2512,-2.1663,-1.9619,-1.7945,0.0,0.0,0.0,0.0,0.0,0.0,0.0,0.0,0.0,0.0,0.0,0.0,0.0,0.0,0.0,0.0,0.0,0.0,0.0,0.0,0.0,0.0,0.0,0.0,0.0,0.0,0.0,0.0,0.0,0.0,0.0,0.0,0.0,0.0,0.0,0.0,0.0,0.0,0.0,0.0,0.0,0.0,0.0,0.0,0.0,0.0,0.0,0.0,0.0,0.0,0.0,0.0,0.0,0.0,0.0,0.0,0.0,0.0,0.0,0.0,0.0,0.0,0.0,0.0,0.0,0.0,0.0,0.0,0.0,0.0,0.0,0.0,0.0,0.0,0.0,0.0,0.0,0.0,0.0,0.0,0.0,0.0,0.0,0.0,0.0,0.0,0.0,0.0,0.0,0.0,0.0,0.0,0.0,0.0,0.0,0.0,0.0,0.0,0.0,0.0,0.0,0.0,0.0,0.0,0.0,0.0,0.0,0.0,-2.048,-2.2744,-2.4045,-2.4515,-2.4152,-2.1859,-1.973,0.0,0.0,0.0,0.0,0.0,0.0,0.0,0.0,0.0,0.0,0.0,0.0,0.0,0.0,0.0,0.0,0.0,0.0,0.0,0.0,0.0,0.0,0.0,0.0,0.0,0.0,0.0,0.0,0.0,0.0,0.0,0.0,0.0,0.0,0.0,0.0,0.0,0.0,0.0,0.0,0.0,0.0,0.0,0.0,0.0,0.0,0.0,0.0,0.0,0.0,0.0,0.0,0.0,0.0,0.0,0.0,0.0,0.0,0.0,0.0,0.0,0.0,0.0,0.0,0.0,0.0,0.0,0.0,0.0,0.0,0.0,0.0,0.0,0.0,0.0,0.0,0.0,0.0,0.0,0.0,0.0,0.0,0.0,0.0,0.0,0.0,0.0,0.0,0.0,0.0,0.0,0.0,0.0,0.0,0.0,0.0,0.0,0.0,0.0,0.0,0.0,0.0,0.0,0.0,0.0,0.0,0.0,0.0,-2.2004,-2.3847,-2.5197,-2.5876,-2.5774,-2.3969,-2.1315,0.0,0.0,0.0,0.0,0.0,0.0,0.0,0.0,0.0,0.0,0.0,0.0,0.0,0.0,0.0,0.0,0.0,0.0,0.0,0.0,0.0,0.0,0.0,0.0,0.0,0.0,0.0,0.0,0.0,0.0,0.0,0.0,0.0,0.0,0.0,0.0,0.0,0.0,0.0,0.0,0.0,0.0,0.0,0.0,0.0,0.0,0.0,0.0,0.0,0.0,0.0,0.0,0.0,0.0,0.0,0.0,0.0,0.0,0.0,0.0,0.0,0.0,0.0,0.0,0.0,0.0,0.0,0.0,0.0,0.0,0.0,0.0,0.0,0.0,0.0,0.0,0.0,0.0,0.0,0.0,0.0,0.0,0.0,0.0,0.0,0.0,0.0,0.0,0.0,0.0,0.0,0.0,0.0,0.0,0.0,0.0,0.0,0.0,0.0,0.0,0.0,0.0,0.0,0.0,0.0,0.0,0.0,0.0,-2.2468,-2.3876,-2.5647,-2.6315,-2.5818,-2.4413,-2.2585,0.0,0.0,0.0,0.0,0.0,0.0,0.0,0.0,0.0,0.0,0.0,0.0,0.0,0.0,0.0,0.0,0.0,0.0,0.0,0.0,0.0,0.0,0.0,0.0,0.0,0.0,0.0,0.0,0.0,0.0,0.0,0.0,0.0,0.0,0.0,0.0,0.0,0.0,0.0,0.0,0.0,0.0,0.0,0.0,0.0,0.0,0.0,0.0,-1.3214,0.0,0.0,0.0,0.0,0.0,0.0,0.0,0.0,0.0,0.0,0.0,0.0,0.0,0.0,0.0,0.0,0.0,0.0,0.0,0.0,0.0,0.0,0.0,0.0,0.0,0.0,0.0,0.0,0.0,0.0,0.0,0.0,0.0,0.0,0.0,0.0,0.0,0.0,0.0,0.0,0.0,0.0,0.0,0.0,0.0,0.0,0.0,0.0,0.0,0.0,0.0,0.0,0.0,0.0,0.0,0.0,0.0,0.0,0.0,-2.3254,-2.4772,-2.6083,-2.6646,-2.6253,-2.5038,-2.3333,0.0,0.0,0.0,0.0,0.0,0.0,0.0,0.0,0.0,0.0,0.0,0.0,0.0,0.0,0.0,0.0,0.0,0.0,0.0,0.0,0.0,0.0,0.0,0.0,0.0,0.0,0.0,0.0,0.0,0.0,0.0,0.0,0.0,0.0,0.0,0.0,0.0,0.0,0.0,0.0,0.0,0.0,0.0,0.0,0.0,0.0,0.0,0.0,0.0,0.0,0.0,0.0,0.0,0.0,0.0,0.0,0.0,0.0,0.0,0.0,0.0,0.0,0.0,0.0,0.0,0.0,0.0,0.0,0.0,0.0,0.0,0.0,0.0,0.0,0.0,0.0,0.0,0.0,0.0,0.0,0.0,0.0,0.0,0.0,0.0,0.0,0.0,0.0,0.0,0.0,0.0,0.0,0.0,0.0,0.0,0.0,0.0,0.0,0.0,0.0,0.0,0.0,0.0,0.0,0.0,0.0,0.0,-2.1768,-2.3914,-2.5795,-2.6497,-2.6846,-2.6791,-2.5585,-2.3702,-2.1235,0.0,0.0,0.0,0.0,0.0,0.0,0.0,0.0,0.0,0.0,0.0,0.0,0.0,0.0,0.0,0.0,0.0,0.0,0.0,0.0,0.0,0.0,0.0,0.0,0.0,0.0,0.0,0.0,0.0,0.0,0.0,0.0,0.0,0.0,0.0,0.0,0.0,0.0,-1.112,-1.3468,0.0,0.0,0.0,0.0,0.0,0.0,0.0,0.0,-1.4917,0.0,0.0,0.0,0.0,0.0,0.0,0.0,0.0,0.0,0.0,0.0,0.0,0.0,0.0,0.0,0.0,0.0,0.0,0.0,0.0,0.0,0.0,0.0,0.0,0.0,0.0,0.0,0.0,0.0,0.0,0.0,0.0,0.0,0.0,0.0,0.0,0.0,0.0,0.0,0.0,0.0,0.0,0.0,0.0,0.0,0.0,0.0,0.0,0.0,0.0,0.0,0.0,0.0,0.0,0.0,0.0,-2.0965,-2.1951,-2.3628,-2.6075,-2.6693,-2.6951,-2.6948,-2.5635,-2.3934,-2.188,0.0,0.0,0.0,0.0,0.0,0.0,0.0,0.0,0.0,0.0,0.0,0.0,0.0,0.0,0.0,0.0,0.0,0.0,0.0,0.0,0.0,0.0,0.0,0.0,0.0,0.0,0.0,0.0,0.0,0.0,0.0,0.0,0.0,0.0,0.0,0.0,0.0,0.0,0.0,-1.5413,-1.6637,0.0,0.0,0.0,0.0,0.0,0.0,0.0,0.0,-1.5171,0.0,0.0,0.0,0.0,0.0,0.0,0.0,0.0,0.0,0.0,0.0,0.0,0.0,0.0,0.0,0.0,0.0,0.0,0.0,0.0,0.0,0.0,0.0,0.0,0.0,0.0,0.0,0.0,0.0,0.0,0.0,0.0,0.0,0.0,0.0,0.0,0.0,0.0,0.0,0.0,0.0,0.0,0.0,0.0,0.0,0.0,0.0,0.0,0.0,0.0,0.0,0.0,0.0,0.0,0.0,-2.1177,-2.2699,-2.4456,-2.6621,-2.6968,-2.7119,-2.7074,-2.5126,-2.328,0.0,0.0,0.0,0.0,0.0,0.0,0.0,0.0,0.0,0.0,0.0,0.0,0.0,0.0,0.0,0.0,0.0,0.0,0.0,0.0,0.0,0.0,0.0,0.0,0.0,0.0,0.0,0.0,0.0,0.0,0.0,0.0,0.0,0.0,0.0,0.0,0.0,0.0,0.0,0.0,-1.6308,-1.7085,-1.8087,0.0,0.0,0.0,0.0,0.0,0.0,-1.6368,-1.574,0.0,0.0,0.0,0.0,0.0,0.0,0.0,0.0,0.0,0.0,0.0,0.0,0.0,0.0,0.0,0.0,0.0,0.0,0.0,0.0,0.0,0.0,0.0,0.0,0.0,0.0,0.0,0.0,0.0,0.0,0.0,0.0,0.0,0.0,0.0,0.0,0.0,0.0,0.0,0.0,0.0,0.0,0.0,0.0,0.0,0.0,0.0,0.0,0.0,0.0,0.0,0.0,0.0,0.0,0.0,-2.1311,-2.3281,-2.5224,-2.7151,-2.7244,-2.7233,-2.7188,-2.4926,-2.2907,0.0,0.0,0.0,0.0,0.0,0.0,0.0,0.0,0.0,0.0,0.0,0.0,0.0,0.0,0.0,0.0,0.0,0.0,0.0,0.0,0.0,0.0,0.0,0.0,0.0,0.0,0.0,0.0,0.0,0.0,0.0,0.0,0.0,0.0,0.0,0.0,0.0,0.0,0.0,0.0,0.0,-1.7847,-1.8762,-1.8912,0.0,0.0,0.0,0.0,-1.8625,-1.7626,0.0,0.0,0.0,0.0,0.0,0.0,0.0,0.0,0.0,0.0,0.0,0.0,0.0,0.0,0.0,0.0,0.0,0.0,0.0,0.0,0.0,0.0,0.0,0.0,0.0,0.0,0.0,0.0,0.0,0.0,0.0,0.0,0.0,0.0,0.0,0.0,0.0,0.0,0.0,0.0,0.0,0.0,0.0,0.0,0.0,0.0,0.0,0.0,0.0,0.0,0.0,0.0,0.0,0.0,0.0,0.0,-2.1535,-2.299,-2.4963,-2.74,-2.7437,-2.7361,-2.7346,-2.5825,-2.385,0.0,0.0,0.0,0.0,0.0,0.0,0.0,0.0,0.0,0.0,0.0,0.0,0.0,0.0,0.0,0.0,0.0,0.0,0.0,0.0,0.0,0.0,0.0,0.0,0.0,0.0,0.0,0.0,0.0,0.0,0.0,0.0,0.0,0.0,0.0,0.0,0.0,0.0,0.0,0.0,0.0,-2.0075,-1.9648,-1.9588,-1.9346,0.0,0.0,-1.9286,-1.8777,-1.9492,0.0,0.0,0.0,0.0,0.0,0.0,0.0,0.0,0.0,0.0,0.0,0.0,0.0,0.0,0.0,0.0,0.0,0.0,0.0,0.0,0.0,0.0,0.0,0.0,0.0,0.0,0.0,0.0,0.0,0.0,0.0,0.0,0.0,0.0,0.0,0.0,0.0,0.0,0.0,0.0,0.0,0.0,0.0,0.0,0.0,0.0,0.0,0.0,0.0,0.0,0.0,0.0,0.0,0.0,0.0,-1.8478,-2.162,-2.3699,-2.5659,-2.751,-2.7549,-2.7514,-2.7514,-2.511,-2.3065,0.0,0.0,0.0,0.0,0.0,0.0,0.0,0.0,0.0,0.0,0.0,0.0,0.0,0.0,0.0,0.0,0.0,0.0,0.0,0.0,0.0,0.0,0.0,0.0,0.0,0.0,0.0,0.0,0.0,0.0,0.0,0.0,0.0,0.0,0.0,0.0,0.0,0.0,0.0,0.0,0.0,0.0,-2.0258,-2.0587,0.0,0.0,0.0,-2.1175,-2.0498,0.0,0.0,0.0,0.0,0.0,0.0,0.0,0.0,0.0,0.0,0.0,0.0,0.0,0.0,0.0,0.0,0.0,0.0,0.0,0.0,0.0,0.0,0.0,0.0,0.0,0.0,0.0,0.0,0.0,0.0,0.0,0.0,0.0,0.0,0.0,0.0,0.0,0.0,0.0,0.0,0.0,0.0,0.0,0.0,0.0,0.0,0.0,0.0,0.0,0.0,0.0,0.0,0.0,0.0,0.0,0.0,0.0,-2.168,-2.4283,-2.6258,-2.754,-2.7585,-2.7585,-2.754,-2.4724,0.0,0.0,0.0,0.0,0.0,0.0,0.0,0.0,0.0,0.0,0.0,0.0,0.0,0.0,0.0,0.0,0.0,0.0,0.0,0.0,0.0,0.0,0.0,0.0,0.0,0.0,0.0,-0.8154,0.0,0.0,0.0,0.0,0.0,0.0,0.0,0.0,0.0,0.0,0.0,0.0,0.0,0.0,-2.0617,-2.1122,-2.1754,-2.2173,0.0,0.0,-2.2523,-2.2029,-2.1665,-2.1036,0.0,0.0,0.0,0.0,0.0,0.0,0.0,0.0,0.0,0.0,0.0,0.0,0.0,0.0,0.0,0.0,0.0,0.0,0.0,0.0,0.0,0.0,0.0,0.0,0.0,0.0,0.0,0.0,0.0,0.0,0.0,0.0,0.0,0.0,0.0,0.0,0.0,0.0,0.0,0.0,0.0,0.0,0.0,0.0,0.0,0.0,0.0,0.0,0.0,0.0,0.0,0.0,0.0,0.0,0.0,-2.1665,-2.4268,-2.6258,-2.754,-2.7585,-2.7585,-2.7555,-2.557,-2.3588,0.0,0.0,0.0,0.0,0.0,0.0,0.0,0.0,0.0,0.0,0.0,0.0,0.0,0.0,0.0,0.0,0.0,0.0,0.0,0.0,0.0,0.0,0.0,0.0,0.0,0.0,0.0,0.0,0.0,0.0,0.0,0.0,0.0,0.0,0.0,0.0,0.0,0.0,0.0,0.0,0.0,-2.2523,-2.2568,-2.3107,-2.3475,0.0,0.0,-2.2673,-2.2643,-2.3056,-2.2562,-2.0112,0.0,0.0,0.0,0.0,0.0,0.0,0.0,0.0,0.0,0.0,0.0,0.0,0.0,0.0,0.0,0.0,0.0,0.0,0.0,0.0,0.0,0.0,0.0,0.0,0.0,0.0,0.0,0.0,0.0,0.0,0.0,0.0,0.0,0.0,0.0,0.0,0.0,0.0,0.0,0.0,0.0,0.0,0.0,0.0,0.0,0.0,0.0,0.0,0.0,0.0,0.0,0.0,0.0,-1.9208,-2.2283,-2.4477,-2.6243,-2.7525,-2.7585,-2.7585,-2.7585,-2.5659,-2.3872,0.0,0.0,0.0,0.0,0.0,0.0,0.0,0.0,0.0,0.0,0.0,0.0,0.0,0.0,0.0,0.0,0.0,0.0,0.0,0.0,0.0,0.0,0.0,0.0,0.0,0.0,0.0,0.0,-1.0069,-1.0324,-1.0997,0.0,0.0,0.0,0.0,0.0,0.0,0.0,0.0,0.0,0.0,-2.2838,-2.3212,-2.4148,0.0,0.0,-2.4986,-2.4964,-2.4537,-2.3984,-2.3131,-2.1774,-2.0722,0.0,0.0,0.0,0.0,0.0,0.0,0.0,0.0,0.0,0.0,0.0,0.0,0.0,0.0,0.0,0.0,0.0,0.0,0.0,0.0,0.0,0.0,0.0,0.0,0.0,0.0,0.0,0.0,0.0,0.0,0.0,0.0,0.0,0.0,0.0,0.0,0.0,0.0,0.0,0.0,0.0,0.0,0.0,0.0,0.0,0.0,0.0,0.0,0.0,0.0,0.0,0.0,-1.9555,-2.2658,-2.5001,-2.6737,-2.7884,-2.7899,-2.7899,-2.7854,-2.5764,-2.3992,0.0,0.0,0.0,0.0,0.0,0.0,0.0,0.0,0.0,0.0,0.0,0.0,0.0,0.0,0.0,0.0,0.0,0.0,0.0,0.0,0.0,0.0,0.0,0.0,0.0,0.0,0.0,0.0,-1.0987,-1.1286,-1.1745,0.0,0.0,0.0,0.0,0.0,0.0,0.0,0.0,0.0,0.0,-2.3833,-2.4425,-2.53,-2.5974,-2.6168,-2.6258,-2.6123,-2.5674,-2.4822,-2.3849,-2.2853,0.0,0.0,0.0,0.0,0.0,0.0,0.0,0.0,0.0,0.0,0.0,0.0,0.0,0.0,0.0,0.0,0.0,0.0,0.0,0.0,0.0,0.0,0.0,0.0,0.0,0.0,0.0,0.0,0.0,0.0,-1.2362,0.0,0.0,0.0,0.0,0.0,0.0,0.0,0.0,0.0,0.0,0.0,0.0,0.0,0.0,0.0,0.0,0.0,0.0,0.0,0.0,0.0,0.0,-2.0019,-2.2703,-2.5878,-2.7884,-2.8562,-2.8577,-2.8562,-2.8502,-2.5995,-2.4007,-2.2688,0.0,0.0,0.0,0.0,0.0,0.0,0.0,0.0,0.0,0.0,0.0,0.0,0.0,0.0,0.0,0.0,0.0,0.0,0.0,0.0,0.0,0.0,0.0,0.0,0.0,0.0,-1.0798,-1.139,-1.179,0.0,0.0,0.0,0.0,0.0,0.0,0.0,0.0,0.0,0.0,-2.4439,-2.5912,-2.6447,-2.6581,-2.6826,-2.7465,-2.6512,-2.5689,-2.5719,-2.56,-2.4926,0.0,0.0,0.0,0.0,0.0,0.0,0.0,0.0,0.0,0.0,0.0,0.0,0.0,0.0,0.0,0.0,0.0,0.0,0.0,0.0,0.0,0.0,0.0,0.0,0.0,0.0,0.0,-1.7361,-1.7103,0.0,0.0,0.0,0.0,0.0,0.0,0.0,0.0,0.0,0.0,0.0,-2.3005,-2.4328,0.0,0.0,0.0,0.0,0.0,0.0,0.0,0.0,0.0,0.0,0.0,0.0,-2.0872,-2.3902,-2.6348,-2.8154,-2.9232,-2.8831,-2.8592,-2.8577,-2.6871,-2.4492,-2.147,0.0,0.0,0.0,0.0,0.0,0.0,0.0,0.0,0.0,0.0,0.0,0.0,0.0,0.0,0.0,0.0,0.0,0.0,0.0,0.0,0.0,0.0,0.0,0.0,0.0,-1.1905,0.0,0.0,0.0,0.0,0.0,0.0,0.0,0.0,0.0,0.0,0.0,-2.2154,-2.3744,-2.5025,-2.6154,-2.713,-2.7634,-2.8158,0.0,0.0,0.0,0.0,0.0,0.0,0.0,0.0,0.0,0.0,0.0,0.0,0.0,0.0,-2.5788,-2.2054,-2.1006,-2.0632,-2.0389,0.0,0.0,0.0,0.0,0.0,0.0,0.0,0.0,0.0,0.0,0.0,0.0,0.0,0.0,0.0,0.0,-1.983,0.0,0.0,0.0,0.0,0.0,0.0,0.0,0.0,-2.4597,-2.6138,-2.6368,-2.7694,-2.7844,0.0,-2.6318,-2.3984,0.0,0.0,0.0,0.0,0.0,0.0,0.0,0.0,-2.1904,-2.4889,-2.7156,-2.8828,-2.9819,-2.9265,-2.8936,-2.8906,-2.72,-2.4822,-2.1814,-2.0015,-1.8388,0.0,0.0,0.0,0.0,0.0,0.0,0.0,0.0,0.0,0.0,0.0,0.0,0.0,0.0,0.0,0.0,0.0,0.0,0.0,0.0,0.0,0.0,0.0,-1.3181,0.0,0.0,0.0,0.0,0.0,0.0,0.0,0.0,0.0,-2.0952,-2.2481,-2.4204,-2.585,-2.6717,-2.7479,-2.821,0.0,0.0,0.0,0.0,0.0,0.0,0.0,-2.7126,-2.754,-2.6551,-2.5809,-2.6213,-2.7405,-2.8139,-2.769,0.0,0.0,-2.5084,-2.4081,-2.3751,-2.3766,-2.3931,-2.4066,-2.4051,-2.4537,-2.4994,0.0,0.0,0.0,0.0,0.0,0.0,0.0,0.0,-2.5093,-2.533,0.0,-2.3598,0.0,0.0,0.0,0.0,0.0,-2.29,0.0,0.0,-2.864,-3.0208,-2.9759,-3.0913,-3.0911,-2.9816,-3.0238,-2.916,-2.6527,-2.2224,0.0,0.0,0.0,0.0,0.0,0.0,-2.3086,-2.5636,-2.8263,-2.9894,-3.0492,-2.9924,-2.9606,-2.9487,-2.7021,-2.5031,-2.3684,-2.2398,-2.0827,-1.885,-1.6922,0.0,0.0,0.0,0.0,0.0,0.0,0.0,0.0,0.0,0.0,0.0,0.0,0.0,0.0,0.0,0.0,0.0,0.0,0.0,0.0,-1.3573,0.0,0.0,0.0,0.0,0.0,0.0,0.0,0.0,0.0,0.0,-2.3508,-2.5379,-2.7368,-2.8701,0.0,0.0,0.0,0.0,-2.9738,-2.9786,-2.9741,-2.9547,-2.8921,-2.9265,-2.9247,-2.8049,0.0,0.0,-2.8034,-2.8888,-2.9382,-2.8064,-2.9022,-2.9726,-2.9654,-2.8423,-2.7555,-2.754,-2.7031,-2.6731,-2.6731,-2.713,-2.7565,-3.1421,0.0,0.0,0.0,0.0,-2.9082,-3.0141,-3.1995,-3.0434,-2.9532,-2.9008,-2.7357,0.0,0.0,0.0,0.0,0.0,0.0,-2.7245,-2.8248,-3.027,-3.1346,-3.1704,-3.2527,-3.2736,-3.2377,-3.2078,-3.1315,-3.0031,-2.7859,-2.4552,-2.0348,0.0,0.0,0.0,0.0,-2.5315,-2.7046,-2.9146,-3.0567,-3.1182,-3.0582,-2.9804,-2.8906,-2.7215,-2.5914,-2.5046,-2.3759,-2.2368,-2.0887,-1.8942,0.0,0.0,0.0,0.0,0.0,0.0,0.0,0.0,0.0,0.0,0.0,0.0,0.0,0.0,0.0,0.0,0.0,0.0,0.0,-1.4813,-1.5206,-1.587,0.0,0.0,0.0,0.0,0.0,0.0,0.0,0.0,0.0,-2.874,-2.8843,-2.942,0.0,0.0,-3.1948,-3.1758,-3.2185,-3.2509,-3.242,0.0,0.0,0.0,-3.1465,-3.1137,-3.1704,-3.2152,-3.2243,-3.1869,-3.2152,-3.2243,-3.1824,-3.2108,-3.2362,-3.2243,-3.055,-2.9157,-2.9022,-2.8873,-2.8779,-2.8884,-2.9045,-2.9207,-3.5992,-3.3889,-3.2746,-3.2492,-3.2895,-3.2724,-3.369,-3.5232,-3.3746,-3.3078,-3.2976,-3.1099,-2.9123,-2.7072,-2.6032,0.0,0.0,0.0,-2.9714,-3.0791,-3.2108,-3.2916,-3.332,-3.3963,-3.4143,-3.3873,-3.3484,-3.2946,-3.2258,-3.1255,-2.8876,-2.5255,0.0,0.0,-2.3116,-2.527,-2.7076,-2.8378,-2.9774,-3.0836,-3.1481,-3.0627,-2.9639,-2.8622,-2.757,-2.6557,-2.5644,-2.4837,-2.3684,-2.2143,-2.0438,-1.8717,0.0,0.0,0.0,0.0,0.0,0.0,0.0,0.0,0.0,0.0,0.0,-1.0862,-0.9212,0.0,0.0,0.0,-1.3338,-1.5474,-1.7385,-1.8392,0.0,0.0,0.0,0.0,0.0,0.0,0.0,-2.7646,-3.0156,-3.2139,-3.2981,-3.247,-3.2193,-3.2635,-3.2934,-3.3098,-3.2955,0.0,-3.3863,-3.3547,-3.3713,-3.3759,-3.3546,-3.2841,-3.2587,-3.3365,-3.3499,-3.3499,-3.3499,-3.3499,-3.3499,-3.3499,-3.3499,-3.3499,-3.3499,-3.2242,-3.1236,-3.1164,-3.1207,-3.1277,-3.139,-3.1432,-3.1488,-3.9464,-3.9206,-3.6539,-3.5363,-3.5297,-3.5976,-3.6257,-3.6208,-3.5561,-3.598,-3.6936,-3.4537,-3.3141,-3.2441,-3.0072,0.0,-3.0056,-3.1225,-3.2123,-3.2766,-3.3993,-3.4593,-3.4623,-3.5205,-3.5175,-3.4562,-3.4593,-3.4247,-3.3649,-3.2991,-3.2048,-3.0776,-2.8368,-2.7006,-2.6782,-2.75,-2.8498,-2.9651,-3.0283,-3.0911,-3.1466,-3.0253,-2.9322,-2.8697,-2.7944,-2.6956,-2.5764,-2.557,-2.4702,-2.2942,-2.153,-2.018,-1.8867,0.0,0.0,0.0,0.0,0.0,0.0,0.0,0.0,0.0,0.0,0.0,0.0,0.0,0.0,0.0,-1.7481,0.0,-2.0304,-2.2348,0.0,0.0,0.0,-2.6015,-2.6026,-2.7907,-2.9757,-3.1271,0.0,0.0,-3.6265,0.0,-3.529,-3.4408,-3.4031,-3.3818,-3.3743,-3.4388,-3.4522,-3.4061,-3.4346,-3.4464,-3.4061,-3.3802,-3.3771,-3.3908,-3.3711,-3.3755,-3.3739,-3.3739,-3.3694,-3.3739,-3.371,-3.371,-3.3695,-3.3818,-3.3909,-3.3681,-3.3668,-3.3744,-3.3668,-3.3697,-3.3786,-4.0912,-4.0845,-4.015,-3.9239,-3.8288,-3.8437,-3.8536,-3.8467,-3.7796,-3.717,-3.6511,-3.5385,-3.4286,-3.3216,-3.2631,-3.2691,-3.3365,-3.3634,-3.4143,-3.4801,-3.5115,-3.525,-3.528,-3.5429,-3.5429,-3.5265,-3.525,-3.5175,-3.4996,-3.4337,-3.3844,-3.3515,-3.2407,-3.0612,-2.8278,-2.9759,-3.0477,-3.0298,-3.0928,-3.1331,-3.1466,-3.0253,-2.9505,-2.9367,-2.7709,-2.6677,-2.6363,-2.5367,-2.4619,-2.4141,-2.2443,-2.1081,-2.024,-1.7132,0.0,0.0,0.0,0.0,0.0,0.0,0.0,0.0,0.0,-1.5802,-1.2838,0.0,-1.7906,0.0,-1.9021,-2.1031,-2.2889,-2.3483,0.0,0.0,-2.8376,-2.9319,-3.127,-3.2684,-3.3722,-3.4218,-3.6025,-3.7239,-3.7258,-3.7543,-3.7502,-3.6837,-3.6776,-3.6528,-3.594,-3.7002,-3.7504,-3.6627,-3.6641,-3.6747,-3.5983,-3.5644,-3.5411,-3.5675,-3.5394,-3.514,-3.5026,-3.5026,-3.5026,-3.5026,-3.5091,-3.5172,-3.5159,-3.533,-3.5425,-3.5348,-3.4652,-3.4,-3.4089,-3.4164,-3.4224,-4.1397,-4.1397,-4.1397,-4.0945,-4.0227,-3.9912,-3.9613,-3.9245,-3.859,-3.7899,-3.7189,-3.6238,-3.5293,-3.4397,-3.4382,-3.4592,-3.4936,-3.4968,-3.5145,-3.5489,-3.5489,-3.5489,-3.5489,-3.5489,-3.5489,-3.5489,-3.5489,-3.5489,-3.5474,-3.5115,-3.4921,-3.4936,-3.4562,-3.3335,-3.1345,-3.2018,-3.2228,-3.1854,-3.1899,-3.1795,-3.1481,-3.0253,-2.9445,-2.9116,-2.7794,-2.6602,-2.5749,-2.5277,-2.4634,-2.3774,-2.2443,-2.153,-2.1126,-1.8568,-1.6937,0.0,0.0,0.0,0.0,0.0,0.0,0.0,0.0,0.0,0.0,0.0,-2.1262,-2.158,-2.3092,-2.4988,-2.7201,-2.8056,-2.9406,-3.1775,-3.2249,-3.2917,-3.4163,-3.514,-3.5753,-3.5868,-3.7156,-3.7921,-3.7588,-3.7639,-3.7706,-3.7677,-3.7748,-3.7475,-3.6721,-3.7351,-3.7602,-3.6723,-3.692,-3.6951,-3.6258,-3.5941,-3.5844,-3.5941,-3.5782,-3.5572,-3.5537,-3.5489,-3.5504,-3.5572,-3.5653,-3.5735,-3.5831,-3.5958,-3.6085,-3.5993,-3.5583,-3.5171,-3.5095,-3.5171,-3.5262,-4.1707,-4.169,-4.169,-4.164,-4.1508,-4.0912,-4.026,-3.951,-3.8951,-3.8561,-3.8253,-3.6906,-3.599,-3.5489,-3.5489,-3.5489,-3.5489,-3.5489,-3.5489,-3.5489,-3.5489,-3.5489,-3.5489,-3.5489,-3.5489,-3.5489,-3.5489,-3.5489,-3.5489,-3.5489,-3.5489,-3.5489,-3.5489,-3.5205,-3.4638,-3.4038,-3.3664,-3.3499,-3.2841,-3.2213,-3.163,-3.0372,-2.9385,-2.8727,-2.7929,-2.6587,-2.4844,-2.5202,-2.4702,-2.3062,-2.2403,-2.2024,-2.1904,-2.0124,-1.9046,0.0,-1.7909,0.0,0.0,0.0,0.0,0.0,0.0,0.0,0.0,-2.3138,-2.5157,-2.6857,-2.8056,-2.9627,-3.1891,-3.3386,-3.4504,-3.5192,-3.5911,-3.6224,-3.599,-3.6551,-3.6966,-3.6978,-3.7527,-3.7851,-3.7863,-3.731,-3.7191,-3.7719,-3.7661,-3.7308,-3.6631,-3.6814,-3.692,-3.5973,-3.6164,-3.643,-3.6037,-3.5748,-3.5619,-3.5619,-3.5619,-3.5522,-3.5504,-3.5537,-3.5572,-3.5671,-3.5752,-3.5816,-3.5973,-3.6116,-3.6179,-3.6164,-3.6244,-3.6275,-3.6182,-3.626,-3.6492,-4.3168,-4.3184,-4.3184,-4.282,-4.2274,-4.217,-4.1707,-4.1011,-4.0882,-3.9935,-3.8356,-3.6472,-3.5619,-3.5489,-3.5489,-3.5489,-3.5489,-3.5489,-3.5489,-3.5489,-3.5489,-3.5489,-3.5489,-3.5489,-3.5489,-3.5489,-3.5489,-3.5489,-3.5489,-3.5489,-3.5489,-3.5489,-3.5489,-3.5429,-3.531,0.0,0.0,0.0,-3.2826,-3.2437,-3.2258,-3.1016,-3.0028,-2.9412,-2.772,0.0,-2.5465,-2.5008,-2.4634,-2.4261,-2.4126,0.0,0.0,0.0,0.0,0.0,0.0,0.0,0.0,0.0,0.0,0.0,-2.5858,-2.5782,-2.4751,-2.731,-2.9341,-3.0087,-3.0988,-3.2235,-3.4016,-3.43,-3.516,-3.7013,-3.7155,-3.7508,-3.855,-3.8838,-3.8987,-3.9103,-3.9129,-3.9121,-3.898,-3.8463,-3.8023,-3.8137,-3.7442,-3.6814,-3.6477,-3.7469,-3.8104,-3.7822,-3.7041,-3.6814,-3.7161,-3.6414,-3.591,-3.6116,-3.5894,-3.5653,-3.5522,-3.5604,-3.5671,-3.572,-3.5896,-3.6085,-3.6037,-3.6132,-3.6211,-3.6211,-3.6242,-3.6305,-3.6414,-3.646,-3.6492,-4.3943,0.0,-4.3615,-4.3367,0.0,-4.3035,-4.2837,-4.2452,-4.1723,-4.0489,-3.8871,-3.7561,-3.6604,-3.5968,-3.5654,-3.5489,-3.5489,-3.5489,-3.5489,-3.5489,-3.5489,-3.5489,-3.5489,-3.5489,-3.5489,-3.5489,-3.5489,-3.5489,-3.5489,-3.5489,-3.5489,-3.5489,-3.5489,-3.5489,-3.5489,-3.5489,-3.4996,-3.4009,-3.3649,-3.332,-3.2961,-3.1689,-3.0702,-3.0013,0.0,0.0,0.0,0.0,0.0,0.0,0.0,0.0,0.0,0.0,0.0,-2.3573,-2.3625,-2.4053,-2.5096,-2.5887,-2.6914,-2.8345,-3.0357,-3.0865,-2.9198,-3.0952,-3.2527,-3.3488,-3.4022,-3.4955,-3.649,-3.6568,-3.7052,-3.8411,-3.8463,-3.8681,-3.9286,-3.9475,-3.9362,-3.9071,-3.9034,-3.8925,-3.8606,-3.8238,-3.8153,-3.8451,-3.8026,-3.7546,-3.7472,-3.7573,-3.7602,-3.7368,-3.6951,-3.6538,-3.6523,-3.6179,-3.5797,-3.5893,-3.5765,-3.5604,-3.5489,-3.5621,-3.5735,-3.5831,-3.6038,-3.6211,-3.6258,-3.6289,-3.6352,-3.6352,-3.6352,-3.6383,-3.6492,-3.6492,-3.6492,-4.4539,-4.3962,-4.3876,-4.381,-4.3764,-4.3648,-4.3615,-4.3499,0.0,0.0,0.0,-3.884,-3.7807,-3.6645,-3.6088,-3.5774,-3.5669,-3.5684,-3.5624,-3.5504,-3.5489,-3.5489,-3.5489,-3.5489,-3.5489,-3.5489,-3.5489,-3.5489,-3.5489,-3.5489,-3.5489,-3.5489,-3.5489,-3.5489,-3.5489,-3.5489,-3.5235,-3.4713,-3.4578,-3.4249,-3.3664,-3.2467,-3.1466,-3.0702,-2.9549,-2.8308,-2.7006,-2.6946,-2.6452,-2.5382,-2.5412,-2.5473,-2.5454,-2.5377,-2.5888,-2.7143,-2.7152,-2.757,-2.8651,-2.9288,-3.021,-3.1472,-3.3855,-3.4674,-3.3238,-3.4033,-3.5145,-3.6502,-3.6651,-3.7285,-3.8631,-3.873,-3.8922,-3.9487,-3.9484,-3.9432,-3.9379,-3.9448,-3.9282,-3.8701,-3.8701,-3.849,-3.8124,-3.7879,-3.7953,-3.8495,-3.8411,-3.8479,-3.8362,-3.7456,-3.6662,-3.6399,-3.6243,-3.6085,-3.5733,-3.5619,-3.5569,-3.5651,-3.5619,-3.5602,-3.5619,-3.5686,-3.5863,-3.6005,-3.6163,-3.6289,-3.6414,-3.6414,-3.646,-3.646,-3.646,-3.646,-3.6492,-3.6492,-3.6492,-4.5582,-4.5433,-4.4787,-4.4522,-4.4489,-4.3876,-4.3615,-4.3502,-4.2168,-4.1094,-4.0261,-3.9041,-3.806,-3.727,-3.718,-3.6836,-3.6357,-3.6342,-3.6043,0.0,-3.5489,-3.5489,-3.5489,-3.5489,-3.5489,-3.5489,-3.5489,-3.5489,-3.5489,-3.5489,-3.5489,-3.5489,-3.5489,-3.5489,-3.5489,-3.5489,-3.5459,-3.5355,-3.4786,-3.4474,-3.4369,-3.3604,-3.2617,-3.1406,-3.0642,-2.9624,-2.8382,-2.8308,-2.8233,-2.8068,-2.8577,-2.8867,-2.8722,-2.8243,-2.8571,-2.9642,-2.9288,-2.9518,-3.0698,-3.1381,-3.2577,-3.4316,-3.5451,-3.5693,-3.4901,-3.6021,-3.7178,-3.8011,-3.8001,-3.8332,-3.9235,-3.9265,-3.9308,-3.9609,-3.9458,-3.9405,-3.959,-3.9537,-3.9484,-3.9425,-3.9398,-3.9325,-3.9034,-3.8562,-3.825,-3.8294,-3.8096,-3.7966,-3.8161,-3.7381,-3.6352,-3.5911,-3.5686,-3.5716,-3.5829,-3.5767,-3.5735,-3.5925,-3.5893,-3.5893,-3.5893,-3.6005,-3.6085,-3.6148,-3.632,-3.6383,-3.6305,-3.6227,-3.6274,-3.6274,-3.6274,-3.6352,-3.646,-3.6492,-3.6492,-4.6162,-4.5781,-4.5417,-4.5284,-4.5265,-4.4506,-4.4208,-4.4095,-4.3114,-4.2052,-4.0956,-3.961,-3.8632,-3.7948,-3.7569,-3.727,-3.6985,-3.6985,-3.6641,-3.6058,-3.6043,-3.5848,-3.5519,-3.5489,-3.5489,-3.5489,-3.5489,-3.5489,-3.5489,-3.5489,-3.5489,-3.5489,-3.5489,-3.5489,-3.5489,-3.5489,-3.5489,-3.5489,-3.519,-3.5073,-3.5011,-3.4382,-3.3724,-3.314,-3.1824,-3.0778,-3.018,-2.9505,-2.9116,-2.9131,-2.9457,-2.9564,-2.9511,-2.9559,-2.9955,-3.0822,-3.0898,-3.1504,-3.2807,-3.3818,-3.4898,-3.6102,-3.6936,-3.7265,-3.6912,-3.7511,-3.8186,-3.8902,-3.9028,-3.9154,-3.9582,-3.9563,-3.952,-3.959,-3.9458,-3.9432,-3.9484,-3.9511,-3.9484,-3.9468,-3.9501,-3.9352,-3.8898,-3.8909,-3.8728,-3.8379,-3.7851,-3.756,-3.7515,-3.6646,-3.6164,-3.6677,-3.6799,-3.6492,-3.6116,-3.5926,-3.5894,-3.602,-3.5894,-3.5894,-3.5973,-3.6068,-3.6116,-3.6211,-3.6352,-3.6445,-3.6352,-3.6352,-3.6352,-3.6352,-3.6352,-3.6414,-3.6476,-3.6492,-3.6492,-4.6825,-4.6295,-4.6113,-4.5947,-4.5732,-4.5168,-4.4937,-4.487,-4.4023,-4.3016,-4.1897,-4.0708,-3.9779,-3.905,-3.8409,-3.8004,-3.7884,-3.7698,-3.7285,-3.6731,-3.6701,-3.6342,-3.5774,-3.5744,-3.5654,-3.5519,-3.5489,-3.5489,-3.5489,-3.5489,-3.5489,-3.5489,-3.5489,-3.5489,-3.5489,-3.5489,-3.5489,-3.5489,-3.5489,-3.5489,-3.5489,-3.4981,-3.4668,-3.4399,-3.3021,-3.2093,-3.1899,-3.0851,-3.0265,-3.0265,-3.0253,-3.0298,-3.0418,-3.0812,-3.1457,-3.2306,-3.2681,-3.3453,-3.484,-3.6011,-3.6846,-3.7316,-3.8133,-3.8609,-3.8609,-3.8609,-3.8842,-3.9385,-3.953,-3.9582,-3.9599,-3.9599,-3.959,-3.9484,-3.9475,-3.9405,-3.9369,-3.9422,-3.9422,-3.9342,-3.9379,-3.9202,-3.8799,-3.8925,-3.8871,-3.8193,-3.7735,-3.7235,-3.6753,-3.629,-3.6585,-3.7161,-3.7456,-3.6981,-3.6211,-3.6037,-3.6037,-3.6068,-3.5958,-3.599,-3.6085,-3.6132,-3.6163,-3.6274,-3.6383,-3.6492,-3.6492,-3.6492,-3.6492,-3.6492,-3.6492,-3.6492,-3.6492,-3.6492,-3.6492,-4.7835,-4.7686,-4.7057,-4.6411,-4.5864,-4.5732,-4.5682,-4.5537,-4.428,-4.3669,-4.3379,-4.2638,-4.1837,-4.1184,-4.0449,-3.9753,-3.9198,-3.8601,-3.7943,-3.7375,-3.733,-3.7,-3.6432,-3.6387,-3.6088,-3.5579,-3.5519,-3.5489,-3.5489,-3.5489,-3.5489,-3.5489,-3.5489,-3.5489,-3.5489,-3.5489,-3.5489,-3.5489,-3.5489,-3.5489,-3.5489,-3.5444,-3.5115,-3.4518,-3.4339,-3.3918,-3.3275,-3.2632,-3.2243,-3.2227,-3.2172,-3.2346,-3.2787,-3.293,-3.37,-3.5333,-3.508,-3.5412,-3.6708,-3.7579,-3.8018,-3.8136,-3.8752,-3.9193,-3.9193,-3.9209,-3.9252,-3.9448,-3.9405,-3.9352,-3.9352,-3.9352,-3.9422,-3.9475,-3.9395,-3.9352,-3.9448,-3.9379,-3.9299,-3.9315,-3.9325,-3.9272,-3.9077,-3.8745,-3.8282,-3.7801,-3.7732,-3.7587,-3.7501,-3.7411,-3.7184,-3.6969,-3.6445,-3.6241,-3.6257,-3.6178,-3.6132,-3.632,-3.6242,-3.6179,-3.6289,-3.6398,-3.646,-3.6383,-3.646,-3.6492,-3.6492,-3.6492,-3.6492,-3.6492,-3.6492,-3.6492,-3.6492,-3.6492,-3.6492,-4.8001,-4.7968,-4.7686,-4.7388,-4.7073,-4.6643,-4.6444,-4.6296,-4.4889,-4.4302,-4.4173,-4.35,-4.2349,-4.0873,-4.0146,-3.9693,-3.943,-3.9148,-3.8646,-3.8018,-3.7988,-3.7644,-3.706,-3.6641,-3.6327,-3.6043,-3.5699,-3.5489,-3.5489,-3.5489,-3.5489,-3.5489,-3.5489,-3.5489,-3.5489,-3.5489,-3.5489,-3.5489,-3.5489,-3.5489,-3.5489,-3.5489,-3.537,-3.5085,-3.4728,-3.4399,-3.4053,-3.344,-3.3246,-3.3603,-3.3591,-3.3864,-3.4458,-3.4809,-3.5308,-3.6091,-3.6678,-3.7169,-3.7706,-3.8427,-3.8841,-3.8841,-3.9133,-3.9315,-3.9315,-3.9315,-3.9342,-3.9369,-3.9325,-3.9315,-3.9315,-3.9315,-3.9325,-3.9352,-3.9325,-3.9325,-3.9369,-3.9405,-3.9379,-3.9325,-3.9352,-3.9202,-3.8799,-3.8463,-3.8113,-3.7752,-3.7819,-3.793,-3.7652,-3.7552,-3.7503,-3.7373,-3.7076,-3.668,-3.6406,-3.6115,-3.6131,-3.6147,-3.6053,-3.5975,-3.6273,-3.6258,-3.6258,-3.6429,-3.646,-3.6492,-3.6492,-3.6492,-3.6492,-3.6492,-3.6492,-3.6492,-3.6492,-3.6492,-3.6492,-4.8001,-4.8001,-4.8001,-4.8001,-4.7951,-4.7421,-4.7206,-4.704,-4.5831,-4.5199,-4.492,-4.4042,-4.27,-4.1125,-4.032,-3.9985,-3.995,-3.9589,-3.9155,-3.8691,-3.8676,-3.8317,-3.7674,-3.724,-3.6896,-3.6656,-3.6088,-3.5699,-3.5534,-3.5489,-3.5489,-3.5489,-3.5489,-3.5489,-3.5489,-3.5489,-3.5489,-3.5489,-3.5489,-3.5489,-3.5489,-3.5489,-3.5489,-3.5444,-3.5026,-3.4788,-3.4741,-3.4144,-3.4076,-3.4629,-3.468,-3.493,-3.5589,-3.6147,-3.6519,-3.6806,-3.7854,-3.851,-3.8526,-3.9017,-3.9315,-3.9315,-3.9315,-3.9315,-3.9315,-3.9315,-3.9315,-3.9315,-3.9315,-3.9315,-3.9315,-3.9315,-3.9315,-3.9315,-3.9315,-3.9315,-3.9315,-3.9379,-3.9405,-3.9325,-3.9158,-3.8799,-3.8026,-3.7881,-3.7829,-3.7403,-3.7728,-3.8007,-3.7526,-3.7413,-3.7462,-3.759,-3.7609,-3.73,-3.6637,-3.6561,-3.6487,-3.6427,-3.636,-3.6163,-3.6329,-3.6219,-3.6068,-3.632,-3.6383,-3.646,-3.6492,-3.6492,-3.6492,-3.6492,-3.6492,-3.6492,-3.6492,-3.6492,-3.6492,-4.8001,-4.8001,-4.8001,-4.8001,-4.8001,-4.7951,-4.7934,-4.7819,-4.7073,-4.6378,-4.5619,-4.4361,-4.3281,-4.2476,-4.1768,-4.1376,-4.116,-4.0005,-3.9415,-3.9376,-3.9356,-3.9005,-3.8377,-3.8317,-3.7958,-3.736,-3.6731,-3.6148,-3.5579,-3.5504,-3.5489,-3.5489,-3.5489,-3.5489,-3.5489,-3.5489,-3.5489,-3.5489,-3.5489,-3.5489,-3.5489,-3.5489,-3.5489,-3.5489,-3.5459,-3.54,-3.537,-3.4818,-3.4741,-3.5367,-3.5381,-3.5609,-3.6206,-3.677,-3.7406,-3.806,-3.8782,-3.9232,-3.9216,-3.9265,-3.9315,-3.9315,-3.9315,-3.9315,-3.9315,-3.9315,-3.9315,-3.9315,-3.9315,-3.9315,-3.9315,-3.9315,-3.9315,-3.9315,-3.9315,-3.9315,-3.9315,-3.9228,-3.9315,-3.9164,-3.8782,-3.8065,-3.6831,-3.7062,-3.7288,-3.7089,-3.7199,-3.7571,-3.7672,-3.7539,-3.7569,-3.7603,-3.7623,-3.7556,-3.7752,-3.7449,-3.7476,-3.7385,-3.6929,-3.6715,-3.6635,-3.6552,-3.6374,-3.624,-3.6411,-3.649,-3.6507,-3.6492,-3.6492,-3.6492,-3.6492,-3.6492,-3.6492,-3.6492,-3.6492,-4.8001,-4.8001,-4.8001,-4.8001,-4.8001,-4.8001,-4.8001,-4.7918,-4.7222,-4.6758,-4.6362,-4.5447,-4.4629,-4.3924,-4.3233,-4.215,-4.0888,-4.0305,-4.0111,-4.0111,-4.0111,-3.9989,-3.9695,-3.8883,-3.8302,-3.7988,-3.7389,-3.6761,-3.6148,-3.5714,-3.5489,-3.5489,-3.5489,-3.5489,-3.5489,-3.5489,-3.5489,-3.5489,-3.5489,-3.5489,-3.5537,-3.5489,-3.5489,-3.5489,-3.5489,-3.5489,-3.5489,-3.562,-3.6015,-3.6665,-3.7026,-3.7533,-3.8126,-3.8381,-3.8619,-3.8874,-3.9166,-3.9315,-3.9315,-3.9315,-3.9315,-3.9315,-3.9315,-3.9315,-3.9315,-3.9315,-3.9315,-3.9315,-3.9315,-3.9315,-3.9315,-3.9315,-3.9315,-3.9315,-3.9315,-3.9315,-3.9218,-3.8925,-3.8645,-3.8628,-3.8422,-3.7989,-3.7546,-3.7949,-3.8345,-3.7922,-3.8262,-3.8583,-3.8642,-3.8691,-3.8616,-3.8712,-3.8797,-3.8903,-3.8993,-3.8178,-3.7692,-3.7564,-3.7383,-3.7391,-3.7325,-3.7367,-3.7253,-3.6912,-3.6869,-3.6674,-3.6722,-3.6492,-3.6492,-3.6492,-3.6492,-3.6492,-3.6492,-3.6492,-3.6492,-4.8001,-4.8001,-4.8001,-4.8001,-4.8001,-4.8001,-4.8001,-4.7951,-4.7471,-4.7139,-4.6825,-4.6361,-4.5748,-4.4977,-4.4118,-4.2991,-4.1505,-4.0861,-4.0512,-4.0478,-4.025,-4.0146,-4.0015,-3.9179,-3.8721,-3.8616,-3.8048,-3.733,-3.6522,-3.6043,-3.5729,-3.5519,-3.5489,-3.5489,-3.5537,-3.5683,-3.5748,-3.5602,-3.5893,-3.6022,-3.5861,-3.599,-3.6116,-3.6085,-3.591,-3.5683,-3.5522,-3.607,-3.6723,-3.737,-3.7982,-3.859,-3.9202,-3.9315,-3.9315,-3.9315,-3.9299,-3.9315,-3.9315,-3.9315,-3.9315,-3.9315,-3.9315,-3.9315,-3.9315,-3.9315,-3.9315,-3.9315,-3.9315,-3.9315,-3.9315,-3.9315,-3.9315,-3.9315,-3.9315,-3.9315,-3.9272,-3.8898,-3.8721,-3.8756,-3.8766,-3.8429,-3.8024,-3.8775,-3.891,-3.8487,-3.9031,-3.9445,-3.9489,-3.9553,-3.9604,-3.9589,-3.9657,-3.9647,-3.9693,-3.9122,-3.8769,-3.8625,-3.8182,-3.8122,-3.8096,-3.8122,-3.8013,-3.7676,-3.733,-3.7058,-3.6814,-3.6599,-3.6522,-3.6553,-3.6492,-3.6492,-3.6492,-3.6492,-3.6569,-4.8034,-4.8001,-4.8001,-4.8001,-4.8001,-4.8001,-4.8001,-4.7984,-4.7968,-4.7554,-4.7073,-4.6924,-4.6493,-4.5687,-4.4606,-4.3767,-4.3202,-4.1604,-4.073,-4.0684,-4.0041,-3.9717,-3.9666,-3.9514,-3.9341,-3.9275,-3.8676,-3.7734,-3.6701,-3.657,-3.6226,-3.5672,-3.5677,-3.5759,-3.5587,-3.6133,-3.6133,-3.6005,-3.6692,-3.6981,-3.6569,-3.6951,-3.7221,-3.7191,-3.6723,-3.6164,-3.5636,-3.6164,-3.6799,-3.7413,-3.8039,-3.8618,-3.9218,-3.9315,-3.9315,-3.9315,-3.9315,-3.9315,-3.9315,-3.9315,-3.9315,-3.9315,-3.9315,-3.9315,-3.9315,-3.9315,-3.9315,-3.9315,-3.9315,-3.9315,-3.9315,-3.9315,-3.9315,-3.9315,-3.9315,-3.9315,-3.9299,-3.9288,-3.9292,-3.9275,-3.9248,-3.9079,-3.879,-3.9013,-3.9169,-3.8867,-3.9159,-3.9647,-3.9666,-3.9768,-3.9925,-3.996,-3.996,-3.9996,-4.0066,-4.0121,-4.0041,-3.9899,-3.9317,-3.8998,-3.8853,-3.8831,-3.8629,-3.8305,-3.7837,-3.7519,-3.7322,-3.7138,-3.703,-3.6984,-3.6799,-3.6815,-3.6969,-3.7061,-3.6799,-4.8465,-4.8034,-4.8001,-4.8001,-4.8001,-4.8001,-4.8001,-4.8001,-4.8001,-4.7868,-4.7686,-4.7653,-4.7255,-4.6611,-4.6056,-4.5318,-4.4288,-4.2731,-4.195,-4.1915,-4.1672,-4.1194,-4.0771,-4.0355,-3.9895,-3.9361,-3.8721,-3.8212,-3.7778,-3.7345,-3.6962,-3.6827,-3.6787,-3.6813,-3.6739,-3.6981,-3.6951,-3.6906,-3.7191,-3.728,-3.7101,-3.731,-3.7383,-3.7354,-3.7191,-3.6996,-3.6845,-3.6981,-3.7399,-3.7994,-3.8634,-3.9077,-3.9272,-3.9315,-3.9315,-3.9315,-3.9315,-3.9315,-3.9315,-3.9315,-3.9315,-3.9315,-3.9315,-3.9315,-3.9315,-3.9315,-3.9315,-3.9315,-3.9315,-3.9315,-3.9315,-3.9315,-3.9348,-3.9315,-3.9315,-3.9338,-3.9373,-3.9391,-3.9156,-3.8905,-3.9155,-3.9123,-3.8747,-3.9067,-3.9345,-3.9157,-3.9361,-3.9553,-3.9681,-3.9803,-3.9854,-3.9975,-4.0081,-4.0207,-4.0242,-4.0312,-4.0296,-4.0261,-3.9921,-3.9642,-3.9527,-3.9486,-3.9249,-3.8874,-3.8374,-3.8025,-3.7844,-3.7723,-3.7615,-3.7723,-3.78,-3.7831,-3.7861,-3.7707,-3.7446,-4.868,-4.8034,-4.8001,-4.8001,-4.8001,-4.8001,-4.8001,-4.8001,-4.8001,-4.8001,-4.8001,-4.8001,-4.7769,-4.7322,-4.7023,-4.6394,-4.5359,-4.38,-4.3122,-4.3021,-4.1801,-4.1176,-4.0703,-4.0305,-3.9895,-3.9421,-3.8975,-3.8631,-3.8362,-3.7973,-3.7639,-3.7418,-3.7164,-3.715,-3.7356,-3.7391,-3.7383,-3.7458,-3.7883,-3.7982,-3.7838,-3.7982,-3.8112,-3.8084,-3.7851,-3.7895,-3.8039,-3.7895,-3.7908,-3.8351,-3.8925,-3.9272,-3.9315,-3.9315,-3.9315,-3.9315,-3.9315,-3.9315,-3.9315,-3.9315,-3.9315,-3.9315,-3.9315,-3.9315,-3.9315,-3.9315,-3.9315,-3.9315,-3.9315,-3.9315,-3.9332,-3.9597,-3.968,-3.9713,-3.973,-3.972,-3.9714,-3.9723,-3.9656,-3.9471,-3.9634,-3.9557,-3.9447,-3.9461,-3.9717,-3.9589,-3.9568,-3.9696,-3.9859,-4.0001,-4.0086,-4.0172,-4.0261,-4.0366,-4.0381,-4.0436,-4.047,-4.042,-4.0324,-4.0197,-4.0082,-4.0086,-3.9956,-3.9419,-3.8918,-3.8565,-3.8369,-3.8308,-3.8246,-3.8492,-3.8631,-3.8385,-3.8231,-3.8292,-3.8108,-4.8713,-4.805,-4.8001,-4.8001,-4.8001,-4.8001,-4.8001,-4.8001,-4.8001,-4.8001,-4.8001,-4.8001,-4.7984,-4.7819,-4.7322,-4.6924,-4.6498,-4.4723,-4.3943,-4.3427,-4.1606,-4.0041,-4.0146,-3.9915,-3.9681,-3.9574,-3.9385,-3.9065,-3.8586,-3.8482,-3.8157,-3.7669,-3.7288,-3.7016,-3.7622,-3.7539,-3.766,-3.7839,-3.8672,-3.8871,-3.8423,-3.8871,-3.9218,-3.9164,-3.8645,-3.859,-3.8942,-3.8634,-3.8351,-3.8463,-3.8996,-3.9315,-3.9315,-3.9315,-3.9315,-3.9315,-3.9315,-3.9315,-3.9315,-3.9315,-3.9315,-3.9315,-3.9315,-3.9315,-3.9315,-3.9315,-3.9315,-3.9315,-3.9315,-3.9315,-3.9431,-3.9895,-4.031,-4.0542,-4.0414,-4.0332,-4.0442,-4.0421,-4.0225,-4.0276,-4.0383,-4.0343,-4.0186,-4.022,-4.0005,-3.9788,-3.9783,-3.996,-4.0121,-4.0226,-4.042,-4.0455,-4.042,-4.042,-4.0436,-4.047,-4.0489,-4.0489,-4.0455,-4.042,-4.0385,-4.0405,-4.0409,-3.9886,-3.9521,-3.9167,-3.9013,-3.9062,-3.9016,-3.9108,-3.9016,-3.8692,-3.8739,-3.897,-3.8862,-4.916,-4.8034,-4.8001,-4.8001,-4.8001,-4.8001,-4.8001,-4.8001,-4.8001,-4.8001,-4.8001,-4.8001,-4.8001,-4.7984,-4.7802,-4.7438,-4.6631,-4.5261,-4.4237,-4.3685,-4.1989,-4.1358,-4.1393,-4.0668,-4.0181,-4.0111,-3.9646,-3.932,-3.9155,-3.9095,-3.9013,-3.8879,-3.8568,-3.8583,-3.8811,-3.8718,-3.8801,-3.8805,-3.9062,-3.9245,-3.9094,-3.9175,-3.9315,-3.9272,-3.9121,-3.9121,-3.9299,-3.9148,-3.9023,-3.9023,-3.9175,-3.9315,-3.9315,-3.9315,-3.9315,-3.9315,-3.9315,-3.9315,-3.9315,-3.9315,-3.9315,-3.9315,-3.9315,-3.9315,-3.9315,-3.9315,-3.9315,-3.9315,-3.9315,-3.9332,-3.9431,-4.0028,-4.0779,-4.1633,-4.1091,-4.0661,-4.0956,-4.0734,-4.0402,-4.0471,-4.0427,-4.0224,-3.9894,-3.9753,-3.9681,-3.9589,-3.9661,-3.9874,-4.0121,-4.0261,-4.0401,-4.047,-4.0489,-4.0489,-4.0505,-4.0505,-4.0489,-4.0489,-4.0489,-4.0489,-4.0455,-4.0455,-4.0459,-4.0259,-4.009,-3.9782,-3.9936,-4.0059,-3.9967,-3.9674,-3.9736,-3.9644,-3.9844,-4.0028,-3.9674,-4.9359,-4.8017,-4.8001,-4.8001,-4.8001,-4.8001,-4.8001,-4.8001,-4.8001,-4.8001,-4.8001,-4.8001,-4.8001,-4.8001,-4.8001,-4.7785,-4.7192,-4.5865,-4.5017,-4.4443,-4.3086,-4.2349,-4.1917,-4.0974,-4.0512,-4.0409,-3.9753,-3.9445,-3.9373,-3.9388,-3.9384,-3.9269,-3.9089,-3.9097,-3.929,-3.9357,-3.9331,-3.935,-3.9555,-3.9647,-3.9348,-3.9315,-3.9315,-3.9315,-3.9315,-3.9315,-3.9315,-3.9315,-3.9315,-3.9299,-3.9315,-3.9315,-3.9315,-3.9315,-3.9315,-3.9315,-3.9315,-3.9315,-3.9315,-3.9315,-3.9315,-3.9315,-3.9315,-3.9315,-3.9315,-3.9315,-3.9315,-3.9315,-3.9564,-3.973,-3.9945,-4.0663,-4.174,-4.2534,-4.172,-4.1068,-4.1469,-4.086,-4.0386,-4.0163,-4.0005,-3.9915,-3.9409,-3.9424,-3.9445,-3.9517,-3.9661,-3.9874,-4.0101,-4.0242,-4.0347,-4.0436,-4.0489,-4.0489,-4.0489,-4.0489,-4.0489,-4.0489,-4.0489,-4.0489,-4.0489,-4.0489,-4.0474,-4.0459,-4.0489,-4.0489,-4.0489,-4.0489,-4.0366,-4.0243,-4.0474,-4.0489,-4.0489,-4.0489,-4.0197,-4.9293,-4.8001,-4.8001,-4.8001,-4.8001,-4.8001,-4.8001,-4.8001,-4.8001,-4.8001,-4.8001,-4.8001,-4.8001,-4.8001,-4.8001,-4.7984,-4.7885,-4.6536,-4.5831,-4.5116,-4.4047,-4.2974,-4.2045,-4.1176,-4.0668,-4.0409,-3.9753,-3.946,-3.9388,-3.9388,-3.9388,-3.9337,-3.8837,-3.8892,-3.933,-3.9498,-3.9497,-3.9594,-4.002,-4.0017,-3.9597,-3.9415,-3.9315,-3.9315,-3.9315,-3.9315,-3.9315,-3.9315,-3.9315,-3.9315,-3.9315,-3.9315,-3.9315,-3.9315,-3.9315,-3.9315,-3.9315,-3.9315,-3.9315,-3.9315,-3.9315,-3.9315,-3.9315,-3.9315,-3.9315,-3.9315,-3.9365,-3.9547,-4.0044,-4.0376,-4.0829,-4.1789,-4.2618,-4.3102,-4.233,-4.169,-4.136,-4.0839,-4.0126,-3.9517,-3.9409,-3.9424,-3.9388,-3.9424,-3.9445,-3.9517,-3.9661,-3.9889,-4.0101,-4.0261,-4.0366,-4.047,-4.0489,-4.0489,-4.0489,-4.0489,-4.0489,-4.0489,-4.0489,-4.0489,-4.0489,-4.0489,-4.0489,-4.0489,-4.0489,-4.0489,-4.0489,-4.0489,-4.0489,-4.0489,-4.0489,-4.0489,-4.0489,-4.0489,-4.032,-4.8829,-4.8001,-4.8001,-4.8001,-4.8001,-4.8001,-4.8001,-4.8001,-4.8001,-4.8001,-4.8001,-4.8001,-4.8001,-4.8001,-4.8001,-4.8001,-4.7918,-4.6979,-4.6117,-4.4873,-4.4045,-4.3525,-4.2803,-4.1787,-4.1008,-4.0512,-3.9737,-3.9424,-3.9388,-3.9388,-3.9388,-3.9343,-3.926,-3.9257,-3.939,-3.9889,-4.0166,-4.0164,-4.0335,-4.0326,-4.0034,-3.9543,-3.9295,-3.9315,-3.9315,-3.9315,-3.9315,-3.9315,-3.9315,-3.9315,-3.9315,-3.9315,-3.9315,-3.9315,-3.9315,-3.9315,-3.9315,-3.9315,-3.9315,-3.9315,-3.9315,-3.9315,-3.9315,-3.9315,-3.9315,-3.9332,-3.9613,-3.9995,-4.0359,-4.0989,-4.1872,-4.2258,-4.2853,-4.3251,-4.2834,-4.2078,-4.1492,-4.0428,-3.9717,-3.9481,-3.9388,-3.9388,-3.9388,-3.9424,-3.9445,-3.9517,-3.9696,-3.9925,-4.0137,-4.0296,-4.0401,-4.0489,-4.0489,-4.0489,-4.0489,-4.0489,-4.0489,-4.0489,-4.0489,-4.0489,-4.0489,-4.0489,-4.0489,-4.0489,-4.0489,-4.0489,-4.0489,-4.0489,-4.0489,-4.0489,-4.0489,-4.0489,-4.0489,-4.0489,-4.0489,-4.868,-4.8017,-4.8001,-4.8001,-4.8001,-4.8001,-4.8001,-4.8001,-4.8001,-4.8001,-4.8001,-4.8001,-4.8001,-4.8001,-4.8001,-4.8001,-4.7835,-4.7222,-4.6295,-4.5268,-4.4459,-4.3563,-4.2585,-4.1949,-4.1276,-4.0789,-3.9879,-3.946,-3.9388,-3.9388,-3.9388,-3.9388,-3.9388,-3.9379,-3.9517,-4.0093,-4.0391,-4.0371,-4.041,-4.0404,-4.0288,-3.9681,-3.9303,-3.9311,-3.9315,-3.9315,-3.9315,-3.9315,-3.9315,-3.9315,-3.9315,-3.9315,-3.9315,-3.9315,-3.9315,-3.9315,-3.9315,-3.9315,-3.9315,-3.9315,-3.9315,-3.9315,-3.9315,-3.9315,-3.9431,-3.958,-3.9962,-4.0459,-4.1028,-4.1856,-4.2853,-4.3019,-4.3284,-4.336,-4.3005,-4.2459,-4.1884,-4.0771,-3.9753,-3.9517,-3.9388,-3.946,-3.9496,-3.9517,-3.964,-3.9747,-3.9818,-4.0031,-4.0172,-4.0347,-4.0385,-4.0455,-4.0489,-4.0489,-4.0489,-4.0489,-4.0489,-4.0489,-4.0489,-4.0489,-4.0489,-4.0489,-4.0489,-4.0489,-4.0489,-4.0489,-4.0489,-4.0489,-4.0489,-4.0489,-4.0489,-4.0489,-4.0489,-4.0489,-4.0489,-4.8564,-4.8001,-4.8001,-4.8001,-4.8001,-4.8001,-4.8001,-4.8001,-4.8001,-4.8001,-4.8001,-4.8001,-4.8001,-4.8001,-4.8001,-4.8001,-4.7769,-4.7028,-4.6156,-4.5947,-4.4768,-4.3631,-4.2381,-4.1669,-4.1227,-4.1194,-4.0005,-3.9445,-3.9388,-3.9388,-3.9388,-3.9388,-3.9388,-3.9388,-3.9538,-4.008,-4.0577,-4.067,-4.0706,-4.0797,-4.0687,-4.0033,-3.956,-3.9307,-3.9315,-3.9315,-3.9315,-3.9315,-3.9315,-3.9315,-3.9315,-3.9315,-3.9315,-3.9315,-3.9315,-3.9315,-3.9315,-3.9315,-3.9315,-3.9315,-3.9315,-3.9315,-3.9315,-3.9415,-3.9597,-4.0028,-4.0492,-4.1127,-4.1839,-4.2787,-4.3499,-4.3499,-4.3532,-4.3509,-4.3082,-4.2741,-4.2412,-4.1508,-4.0703,-3.9809,-3.9773,-3.9879,-3.9768,-3.9696,-3.9854,-3.9975,-4.0011,-4.0101,-4.0257,-4.0347,-4.0436,-4.0455,-4.0489,-4.0489,-4.0489,-4.0489,-4.0489,-4.0489,-4.0489,-4.0489,-4.0489,-4.0489,-4.0489,-4.0489,-4.0489,-4.0489,-4.0489,-4.0489,-4.0489,-4.0489,-4.0489,-4.0489,-4.0489,-4.0489,-4.0489,-4.8117,-4.8001,-4.8001,-4.8001,-4.8001,-4.8001,-4.8001,-4.8001,-4.8001,-4.8001,-4.8001,-4.8001,-4.8001,-4.8001,-4.8001,-4.8001,-4.7605,-4.6832,-4.6356,-4.622,-4.5027,-4.359,-4.2895,-4.1523,-4.0848,-4.0459,-3.9824,-3.9424,-3.9388,-3.9388,-3.9388,-3.9388,-3.9388,-3.9388,-3.9661,-4.0146,-4.0826,-4.1226,-4.1278,-4.1415,-4.158,-4.0838,-3.9973,-3.9597,-3.9564,-3.9464,-3.9381,-3.9332,-3.9315,-3.9315,-3.9315,-3.9315,-3.9315,-3.9315,-3.9315,-3.9315,-3.9315,-3.9315,-3.9315,-3.9315,-3.9315,-3.9315,-3.9381,-3.9713,-4.0078,-4.0459,-4.1077,-4.2021,-4.2738,-4.3449,-4.3582,-4.3615,-4.3615,-4.3568,-4.3462,-4.3204,-4.2756,-4.2396,-4.1739,-4.0619,-4.0462,-4.0235,-4.0036,-3.9925,-3.9996,-4.0101,-4.0172,-4.0207,-4.0312,-4.0416,-4.047,-4.0489,-4.0489,-4.0489,-4.0489,-4.0489,-4.0489,-4.0489,-4.0489,-4.0489,-4.0489,-4.0489,-4.0489,-4.0489,-4.0489,-4.0489,-4.0489,-4.0489,-4.0489,-4.0489,-4.0489,-4.0489,-4.0489,-4.0489,-4.0489,-4.8001,-4.8001,-4.8001,-4.8001,-4.8001,-4.8001,-4.8001,-4.8001,-4.8001,-4.8001,-4.8001,-4.8001,-4.8001,-4.7902,-4.7521,-4.7387,-4.7173,-4.7209,-4.6898,-4.6615,-4.544,-4.4008,-4.318,-4.1579,-4.0646,-4.0056,-3.9553,-3.9388,-3.9388,-3.9388,-3.9388,-3.9388,-3.9388,-3.9589,-3.995,-4.0305,-4.1109,-4.1708,-4.1757,-4.184,-4.2369,-4.1425,-4.0729,-4.0498,-4.0315,-4.0199,-3.9912,-3.9862,-3.9663,-3.9398,-3.9315,-3.9315,-3.9348,-3.9348,-3.9332,-3.9365,-3.9348,-3.9332,-3.9315,-3.9332,-3.9448,-3.9846,-3.9879,-4.0199,-4.0796,-4.1342,-4.1939,-4.2787,-4.3251,-4.3615,-4.3615,-4.3615,-4.3615,-4.3628,-4.3687,-4.3568,-4.3386,-4.3399,-4.2537,-4.1444,-4.101,-4.0634,-4.0176,-4.0137,-4.0207,-4.0277,-4.0331,-4.0366,-4.0366,-4.0436,-4.0489,-4.0489,-4.0489,-4.0489,-4.0489,-4.0489,-4.0489,-4.0489,-4.0489,-4.0489,-4.0489,-4.0489,-4.0489,-4.0489,-4.0489,-4.0489,-4.0489,-4.0489,-4.0489,-4.0489,-4.0489,-4.0489,-4.0489,-4.0489,-4.0489,-4.8001,-4.8001,-4.8001,-4.8001,-4.8001,-4.8001,-4.8001,-4.8001,-4.8001,-4.8001,-4.7968,-4.782,-4.7704,-4.7488,-4.6862,-4.6394,-4.662,-4.722,-4.6994,-4.6485,-4.5693,-4.4409,-4.2975,-4.1654,-4.0684,-3.9935,-3.949,-3.9388,-3.9388,-3.9388,-3.9388,-3.9481,-3.9481,-3.9844,-4.0374,-4.0668,-4.1541,-4.1997,-4.2094,-4.2072,-4.2226,-4.196,-4.1513,-4.1413,-4.1397,-4.1077,-4.0647,-4.058,-4.0332,-4.0017,-3.9862,-3.9796,-3.9746,-3.9746,-3.9746,-3.9713,-3.9597,-3.9531,-3.958,-3.9812,-4.016,-4.0547,-4.0564,-4.0961,-4.1591,-4.2224,-4.2903,-4.3466,-4.3615,-4.3615,-4.3615,-4.3615,-4.3645,-4.3704,-4.3809,-4.3898,-4.391,-4.3759,-4.3246,-4.238,-4.1673,-4.0974,-4.042,-4.0296,-4.0331,-4.0366,-4.0436,-4.0436,-4.0436,-4.047,-4.0489,-4.0489,-4.0489,-4.0489,-4.0489,-4.0489,-4.0489,-4.0489,-4.0489,-4.0489,-4.0489,-4.0489,-4.0489,-4.0489,-4.0489,-4.0489,-4.0489,-4.0489,-4.0489,-4.0489,-4.0489,-4.0489,-4.0489,-4.0489,-4.0489,-4.8001,-4.8001,-4.8001,-4.8001,-4.8001,-4.8001,-4.8001,-4.8001,-4.7968,-4.8001,-4.7935,-4.7253,-4.6931,-4.6604,-4.552,-4.5316,-4.5769,-4.6076,-4.6224,-4.6003,-4.5253,-4.4378,-4.3215,-4.1334,-4.0745,-4.0127,-3.9694,-3.9418,-3.9388,-3.9388,-3.9388,-3.9481,-3.9985,-4.0443,-4.0634,-4.116,-4.1787,-4.2459,-4.2522,-4.2509,-4.2538,-4.2452,-4.2059,-4.1678,-4.1529,-4.1463,-4.1359,-4.1309,-4.116,-4.1077,-4.1077,-4.1127,-4.1177,-4.116,-4.116,-4.0994,-4.0663,-4.0276,-4.0332,-4.063,-4.1011,-4.1243,-4.1293,-4.1662,-4.2274,-4.2903,-4.3416,-4.3549,-4.3615,-4.3615,-4.3615,-4.3615,-4.3704,-4.3793,-4.3898,-4.3998,-4.4039,-4.386,-4.3396,-4.2724,-4.1901,-4.1176,-4.0524,-4.0489,-4.0489,-4.0505,-4.0489,-4.0489,-4.0489,-4.0489,-4.0489,-4.0489,-4.0489,-4.0489,-4.0489,-4.0489,-4.0489,-4.0489,-4.0489,-4.0489,-4.0489,-4.0489,-4.0489,-4.0489,-4.0489,-4.0489,-4.0489,-4.0489,-4.0489,-4.0489,-4.0489,-4.0489,-4.0489,-4.0489,-4.0489,-4.8001,-4.8001,-4.8001,-4.8001,-4.8001,-4.8001,-4.8001,-4.7902,-4.7521,-4.7588,-4.7671,-4.6705,-4.5969,-4.5483,-4.5132,-4.539,-4.566,-4.566,-4.5933,-4.5861,-4.5117,-4.4183,-4.3374,-4.2183,-4.1332,-4.0487,-4.0098,-3.9753,-3.9589,-3.9403,-3.9388,-3.9517,-4.0095,-4.0703,-4.0992,-4.1754,-4.2475,-4.3005,-4.3188,-4.3164,-4.3142,-4.3085,-4.2953,-4.2638,-4.2605,-4.2373,-4.2092,-4.2009,-4.1761,-4.1546,-4.1397,-4.1397,-4.1425,-4.1409,-4.1409,-4.1409,-4.1591,-4.1392,-4.1094,-4.1309,-4.164,-4.1943,-4.2059,-4.2357,-4.2986,-4.3367,-4.3615,-4.3615,-4.3615,-4.3615,-4.3615,-4.3615,-4.3734,-4.3852,-4.3985,-4.4114,-4.408,-4.3798,-4.3423,-4.2785,-4.2094,-4.1309,-4.0681,-4.0524,-4.0489,-4.0489,-4.0489,-4.0489,-4.0489,-4.0489,-4.0489,-4.0489,-4.0489,-4.0489,-4.0489,-4.0489,-4.0489,-4.0489,-4.0489,-4.0489,-4.0489,-4.0489,-4.0489,-4.0489,-4.0489,-4.0489,-4.0489,-4.0489,-4.0489,-4.0489,-4.0489,-4.0489,-4.0489,-4.0489,-4.0489,-4.7704,-4.7704,-4.7704,-4.782,-4.7935,-4.7621,-4.7504,-4.7588,-4.6862,-4.6878,-4.6947,-4.5985,-4.4962,-4.4434,-4.4699,-4.4849,-4.5036,-4.5295,-4.5536,-4.541,-4.5048,-4.418,-4.3373,-4.2588,-4.1841,-4.0861,-4.0472,-4.0142,-3.9783,-3.9493,-3.9388,-3.9424,-4.0146,-4.0805,-4.1492,-4.2158,-4.2851,-4.3449,-4.3539,-4.3552,-4.3549,-4.3565,-4.3565,-4.3549,-4.3549,-4.335,-4.287,-4.2771,-4.2423,-4.2191,-4.2121,-4.2158,-4.2125,-4.2158,-4.2158,-4.2224,-4.2473,-4.2473,-4.2204,-4.2187,-4.2274,-4.2555,-4.2787,-4.2986,-4.34,-4.3615,-4.3615,-4.3615,-4.3615,-4.3615,-4.3615,-4.3645,-4.3793,-4.3939,-4.4085,-4.4212,-4.4207,-4.381,-4.3333,-4.2676,-4.1997,-4.1309,-4.0783,-4.0593,-4.0489,-4.0489,-4.0489,-4.0489,-4.0489,-4.0489,-4.0489,-4.0489,-4.0489,-4.0489,-4.0489,-4.0489,-4.0489,-4.0489,-4.0489,-4.0489,-4.0489,-4.0489,-4.0489,-4.0489,-4.0489,-4.0489,-4.0489,-4.0489,-4.0489,-4.0489,-4.0489,-4.0489,-4.0489,-4.0489,-4.0489,-4.6896,-4.688,-4.688,-4.7287,-4.782,-4.6461,-4.6304,-4.6811,-4.6092,-4.5805,-4.5733,-4.4999,-4.4259,-4.3669,-4.3615,-4.3747,-4.363,-4.4259,-4.4373,-4.422,-4.4051,-4.3928,-4.3337,-4.2803,-4.2351,-4.1946,-4.122,-4.0636,-4.0202,-3.9783,-3.9538,-3.9532,-4.0351,-4.0922,-4.1624,-4.2412,-4.3005,-4.3509,-4.3615,-4.3615,-4.3615,-4.3615,-4.3615,-4.3615,-4.3615,-4.3565,-4.3499,-4.3416,-4.335,-4.3151,-4.3118,-4.3118,-4.3035,-4.3069,-4.3069,-4.3135,-4.3201,-4.3218,-4.3102,-4.3102,-4.3367,-4.3466,-4.3466,-4.3416,-4.3582,-4.3615,-4.3615,-4.3615,-4.3628,-4.3645,-4.3674,-4.3763,-4.391,-4.4056,-4.4184,-4.4327,-4.4179,-4.3617,-4.3136,-4.2552,-4.1868,-4.1091,-4.0817,-4.0558,-4.0489,-4.0489,-4.0489,-4.0489,-4.0489,-4.0489,-4.0489,-4.0489,-4.0489,-4.0489,-4.0489,-4.0489,-4.0489,-4.0489,-4.0489,-4.0489,-4.0489,-4.0489,-4.0489,-4.0489,-4.0489,-4.0489,-4.0489,-4.0489,-4.0489,-4.0489,-4.0489,-4.0489,-4.0489,-4.0489,-4.0489,-4.7253,-4.6777,-4.6324,-4.6304,-4.6531,-4.5965,-4.5861,-4.5969,-4.5316,-4.4662,-4.4297,-4.4358,-4.4066,-4.3488,-4.3329,-4.3591,-4.3927,-4.3732,-4.3849,-4.3888,-4.3888,-4.3591,-4.3195,-4.306,-4.2761,-4.2396,-4.1796,-4.1324,-4.095,-4.0277,-4.0417,-4.0629,-4.0888,-4.1524,-4.219,-4.2772,-4.3281,-4.3479,-4.3615,-4.3615,-4.3615,-4.3615,-4.3615,-4.3615,-4.3615,-4.3615,-4.3598,-4.3598,-4.3615,-4.3615,-4.3615,-4.3615,-4.3615,-4.3615,-4.3615,-4.3615,-4.3615,-4.3615,-4.3615,-4.3615,-4.3615,-4.3615,-4.3598,-4.3615,-4.3615,-4.3615,-4.3615,-4.3628,-4.3687,-4.3763,-4.3809,-4.3939,-4.4068,-4.4212,-4.4327,-4.444,-4.4179,-4.3663,-4.3183,-4.2707,-4.1706,-4.0749,-4.0593,-4.0489,-4.0489,-4.0489,-4.0489,-4.0489,-4.0489,-4.0489,-4.0489,-4.0489,-4.0489,-4.0489,-4.0489,-4.0489,-4.0489,-4.0489,-4.0489,-4.0489,-4.0489,-4.0489,-4.0489,-4.0489,-4.0489,-4.0489,-4.0489,-4.0489,-4.0489,-4.0489,-4.0489,-4.0489,-4.0489,-4.0489,-4.0489,-4.6997,-4.6375,-4.539,-4.5295,-4.5624,-4.5184,-4.5147,-4.5184,-4.4472,-4.3849,-4.3329,-4.3888,-4.3849,-4.3409,-4.3329,-4.3512,-4.3786,-4.3615,-4.3747,-4.3708,-4.3591,-4.3344,-4.3305,-4.323,-4.3045,-4.2671,-4.241,-4.2051,-4.1677,-4.0801,-4.0988,-4.1376,-4.1588,-4.1931,-4.2554,-4.3235,-4.3615,-4.3615,-4.3615,-4.3615,-4.3615,-4.3615,-4.3615,-4.3615,-4.3615,-4.3615,-4.3615,-4.3615,-4.3615,-4.3615,-4.3615,-4.3615,-4.3615,-4.3615,-4.3615,-4.3615,-4.3615,-4.3615,-4.3615,-4.3615,-4.3615,-4.3615,-4.3615,-4.3615,-4.3615,-4.3615,-4.3615,-4.3611,-4.3747,-4.3881,-4.3927,-4.4056,-4.4138,-4.4281,-4.4384,-4.4485,-4.4224,-4.3798,-4.3333,-4.2862,-4.1836,-4.099,-4.1142,-4.1125,-4.0681,-4.0627,-4.0489,-4.0489,-4.0489,-4.0489,-4.0489,-4.0489,-4.0489,-4.0489,-4.0489,-4.0489,-4.0489,-4.0489,-4.0489,-4.0489,-4.0489,-4.0489,-4.0489,-4.0489,-4.0489,-4.0489,-4.0489,-4.0489,-4.0489,-4.0489,-4.0489,-4.0489,-4.0489,-4.0489,-4.0489,-4.5805,-4.5515,-4.4105,-4.4335,-4.5332,-4.4043,-4.3849,-4.4396,-4.3771,-4.3369,-4.329,-4.3448,-4.3409,-4.3305,-4.3305,-4.3409,-4.3448,-4.3369,-4.3409,-4.3409,-4.3409,-4.3305,-4.3305,-4.326,-4.3215,-4.3125,-4.2821,-4.253,-4.2366,-4.1309,-4.1504,-4.2,-4.2132,-4.2126,-4.2648,-4.3265,-4.3598,-4.3615,-4.3615,-4.3615,-4.3615,-4.3615,-4.3615,-4.3615,-4.3615,-4.3615,-4.3615,-4.3615,-4.3615,-4.3615,-4.3615,-4.3615,-4.3615,-4.3615,-4.3615,-4.3615,-4.3615,-4.3615,-4.3615,-4.3615,-4.3615,-4.3615,-4.3615,-4.3615,-4.3615,-4.3615,-4.3645,-4.3658,-4.3822,-4.3927,-4.4015,-4.4143,-4.4253,-4.4367,-4.4485,-4.4485,-4.4253,-4.3856,-4.3393,-4.3075,-4.2332,-4.1641,-4.1836,-4.1804,-4.1125,-4.0783,-4.0558,-4.0505,-4.0505,-4.0489,-4.0489,-4.0489,-4.0489,-4.0489,-4.0489,-4.0489,-4.0489,-4.0489,-4.0489,-4.0489,-4.0489,-4.0489,-4.0489,-4.0489,-4.0489,-4.0489,-4.0489,-4.0489,-4.0489,-4.0489,-4.0489,-4.0489,-4.0489,-4.0489,-4.0489,-4.6147,-4.5604,-4.4548,-4.4105,-4.4066,-4.3551,-4.3488,-4.3615,-4.3448,-4.3305,-4.3305,-4.3305,-4.3305,-4.3305,-4.3305,-4.3305,-4.3305,-4.3305,-4.3305,-4.3305,-4.3305,-4.3305,-4.3305,-4.3305,-4.3305,-4.326,-4.3045,-4.2955,-4.3,-4.1953,-4.2249,-4.2859,-4.2848,-4.3039,-4.3251,-4.3539,-4.3615,-4.3615,-4.3615,-4.3615,-4.3615,-4.3615,-4.3615,-4.3615,-4.3615,-4.3615,-4.3615,-4.3615,-4.3615,-4.3615,-4.3615,-4.3615,-4.3615,-4.3615,-4.3615,-4.3615,-4.3615,-4.3615,-4.3615,-4.3615,-4.3615,-4.3615,-4.3645,-4.3628,-4.3615,-4.3615,-4.3674,-4.3793,-4.3894,-4.4027,-4.4184,-4.4355,-4.4497,-4.4497,-4.457,-4.457,-4.4367,-4.3839,-4.3376,-4.3196,-4.2676,-4.1965,-4.1836,-4.1771,-4.1243,-4.0895,-4.0666,-4.0536,-4.0505,-4.0505,-4.0489,-4.0489,-4.0489,-4.0489,-4.0489,-4.0489,-4.0489,-4.0489,-4.0489,-4.0489,-4.0489,-4.0646,-4.0627,-4.0681,-4.0593,-4.0489,-4.0489,-4.0489,-4.0489,-4.0489,-4.0489,-4.0489,-4.0489,-4.0489,-4.0489,-4.6147,-4.5624,-4.4849,-4.422,-4.3708,-4.3409,-4.3305,-4.3305,-4.3305,-4.3305,-4.3305,-4.3305,-4.3305,-4.3305,-4.3305,-4.3305,-4.3305,-4.3305,-4.3305,-4.3305,-4.3305,-4.3305,-4.3305,-4.3305,-4.3305,-4.3305,-4.3305,-4.3275,-4.3185,-4.2671,-4.2624,-4.2958,-4.3469,-4.3473,-4.3568,-4.3615,-4.3615,-4.3615,-4.3615,-4.3615,-4.3615,-4.3615,-4.3615,-4.3615,-4.3615,-4.3615,-4.3615,-4.3615,-4.3615,-4.3615,-4.3615,-4.3615,-4.3615,-4.3615,-4.3615,-4.3615,-4.3615,-4.3615,-4.3615,-4.3704,-4.3734,-4.3734,-4.3687,-4.3658,-4.3645,-4.3674,-4.3763,-4.3881,-4.401,-4.4155,-4.4298,-4.4497,-4.457,-4.4598,-4.4598,-4.4598,-4.4497,-4.3972,-4.3869,-4.3647,-4.3213,-4.2489,-4.1754,-4.1525,-4.1243,-4.0979,-4.0755,-4.0674,-4.0628,-4.0597,-4.0597,-4.0582,-4.0536,-4.052,-4.0505,-4.0489,-4.0489,-4.0489,-4.072,-4.095,-4.1024,-4.1276,-4.1057,-4.0904,-4.0904,-4.0851,-4.0593,-4.0489,-4.0489,-4.0489,-4.0489,-4.0489,-4.0489,-4.0489,-4.0489,-4.5613,-4.552,-4.4812,-4.445,-4.4335,-4.3693,-4.3369,-4.3305,-4.3305,-4.3305,-4.3305,-4.3305,-4.3305,-4.3305,-4.3305,-4.3305,-4.3305,-4.3305,-4.3305,-4.3305,-4.3305,-4.3305,-4.3305,-4.3305,-4.3305,-4.3305,-4.3329,-4.3394,-4.3279,-4.3358,-4.3071,-4.3031,-4.3645,-4.3809,-4.3813,-4.3681,-4.3648,-4.3615,-4.3615,-4.3615,-4.3615,-4.3615,-4.3615,-4.3615,-4.3615,-4.3615,-4.3615,-4.3615,-4.3615,-4.3615,-4.3615,-4.3615,-4.3615,-4.3615,-4.3615,-4.3615,-4.3615,-4.3645,-4.3674,-4.3793,-4.3881,-4.3881,-4.3898,-4.3793,-4.3734,-4.3793,-4.3881,-4.3969,-4.4068,-4.4212,-4.4327,-4.4468,-4.4598,-4.4598,-4.4598,-4.4598,-4.4598,-4.4468,-4.4468,-4.4179,-4.3676,-4.3,-4.2077,-4.1638,-4.1586,-4.1298,-4.1201,-4.1355,-4.1247,-4.0878,-4.0828,-4.0751,-4.0689,-4.0551,-4.0582,-4.0801,-4.126,-4.1534,-4.1687,-4.1906,-4.1941,-4.2058,-4.2051,-4.1917,-4.1535,-4.1192,-4.0681,-4.0489,-4.0489,-4.0489,-4.0489,-4.0489,-4.0489,-4.0489,-4.0489,-4.4121,-4.4093,-4.3768,-4.395,-4.4434,-4.4259,-4.3849,-4.3329,-4.3305,-4.3305,-4.3305,-4.3305,-4.3305,-4.3305,-4.3305,-4.3305,-4.3305,-4.3305,-4.3305,-4.3305,-4.3305,-4.3305,-4.3305,-4.3305,-4.3305,-4.3329,-4.3369,-4.3654,-4.4167,-4.4246,-4.4594,-4.4879,-4.434,-4.4348,-4.4158,-4.3876,-4.3714,-4.3648,-4.3664,-4.3615,-4.3615,-4.3615,-4.3615,-4.3615,-4.3615,-4.3615,-4.3615,-4.3615,-4.3615,-4.3615,-4.3615,-4.3615,-4.3615,-4.3615,-4.3615,-4.3628,-4.3734,-4.3822,-4.3822,-4.3939,-4.4039,-4.4039,-4.4056,-4.3985,-4.391,-4.3939,-4.4027,-4.4068,-4.4155,-4.427,-4.4412,-4.4542,-4.4598,-4.4598,-4.4598,-4.4598,-4.4598,-4.4598,-4.457,-4.4253,-4.3768,-4.3227,-4.2302,-4.2124,-4.2063,-4.1755,-4.1678,-4.1909,-4.1878,-4.1524,-4.1309,-4.1247,-4.1159,-4.1098,-4.1256,-4.1476,-4.2089,-4.2589,-4.2825,-4.3195,-4.3605,-4.3654,-4.3362,-4.2744,-4.1978,-4.1258,-4.0593,-4.0489,-4.0489,-4.0489,-4.0489,-4.0489,-4.0489,-4.0489,-4.0489,-4.3094,-4.315,-4.332,-4.3645,-4.4051,-4.4373,-4.4028,-4.3409,-4.3305,-4.3305,-4.3305,-4.3305,-4.3305,-4.3305,-4.3305,-4.3305,-4.3305,-4.3305,-4.3305,-4.3305,-4.3305,-4.3305,-4.3305,-4.3305,-4.3305,-4.3369,-4.3669,-4.4066,-4.4701,-4.5266,-4.5627,-4.5482,-4.5024,-4.4809,-4.4473,-4.4026,-4.3876,-4.383,-4.3813,-4.3664,-4.3631,-4.3631,-4.3615,-4.3615,-4.3615,-4.3615,-4.3598,-4.3598,-4.3598,-4.3615,-4.3615,-4.3615,-4.3645,-4.3674,-4.3734,-4.3763,-4.3864,-4.3969,-4.3998,-4.4097,-4.4155,-4.4167,-4.4241,-4.4184,-4.4097,-4.4097,-4.4126,-4.4167,-4.4253,-4.4384,-4.4468,-4.4598,-4.4598,-4.4598,-4.4598,-4.4598,-4.4598,-4.4598,-4.4384,-4.4097,-4.3698,-4.3224,-4.2847,-4.2726,-4.2587,-4.237,-4.2432,-4.2771,-4.2663,-4.2294,-4.2078,-4.1971,-4.1837,-4.1769,-4.1994,-4.2346,-4.3022,-4.3713,-4.4284,-4.4659,-4.5162,-4.5176,-4.4785,-4.3554,-4.215,-4.1557,-4.1133,-4.0616,-4.0489,-4.0524,-4.0558,-4.0489,-4.0489,-4.0489,-4.0489,-4.2314,-4.2375,-4.3104,-4.3313,-4.3352,-4.4037,-4.3952,-4.3329,-4.3305,-4.3305,-4.3305,-4.3305,-4.3305,-4.3305,-4.3305,-4.3305,-4.3305,-4.3305,-4.3305,-4.3305,-4.3305,-4.3305,-4.3305,-4.3305,-4.3305,-4.3606,-4.4043,-4.4533,-4.4976,-4.5671,-4.6271,-4.5843,-4.5352,-4.5185,-4.5119,-4.4489,-4.4406,-4.4638,-4.4373,-4.4078,-4.3797,-4.3698,-4.3615,-4.3615,-4.3615,-4.3615,-4.3598,-4.3598,-4.3628,-4.3628,-4.3674,-4.3658,-4.3763,-4.3822,-4.3881,-4.3939,-4.4039,-4.4097,-4.4155,-4.4196,-4.4281,-4.4367,-4.4468,-4.4384,-4.4298,-4.4241,-4.4298,-4.4281,-4.4338,-4.444,-4.457,-4.4598,-4.4598,-4.4598,-4.4598,-4.4598,-4.4598,-4.4598,-4.4596,-4.4286,-4.3873,-4.3411,-4.3108,-4.2965,-4.2978,-4.2875,-4.3156,-4.3608,-4.3538,-4.3183,-4.2973,-4.2751,-4.2376,-4.2396,-4.2961,-4.342,-4.4093,-4.475,-4.5456,-4.6132,-4.6621,-4.6498,-4.6191,-4.4821,-4.3458,-4.2482,-4.1856,-4.1479,-4.1069,-4.0749,-4.0715,-4.0558,-4.0489,-4.0558,-4.0489,-4.0902,-4.1021,-4.2215,-4.268,-4.2692,-4.3418,-4.3571,-4.3329,-4.3305,-4.3275,-4.3305,-4.3305,-4.3305,-4.3305,-4.3305,-4.3305,-4.3305,-4.3305,-4.3305,-4.3305,-4.3305,-4.3305,-4.3344,-4.3409,-4.3369,-4.3551,-4.4143,-4.519,-4.6103,-4.6856,-4.7358,-4.7309,-4.6609,-4.6129,-4.6079,-4.5433,-4.5218,-4.5514,-4.5232,-4.4868,-4.4633,-4.3959,-4.3615,-4.3615,-4.3661,-4.3628,-4.3687,-4.3763,-4.3793,-4.3839,-4.3923,-4.3981,-4.3981,-4.4039,-4.4056,-4.4085,-4.4184,-4.4253,-4.4281,-4.431,-4.4367,-4.4384,-4.4429,-4.4429,-4.4429,-4.4457,-4.4457,-4.4412,-4.4412,-4.4514,-4.4587,-4.4598,-4.4598,-4.4598,-4.4615,-4.4615,-4.4615,-4.4699,-4.4791,-4.45,-4.4101,-4.3813,-4.3522,-4.3352,-4.3339,-4.3587,-4.4055,-4.4386,-4.4421,-4.4195,-4.3987,-4.3686,-4.2911,-4.2942,-4.3787,-4.4608,-4.5361,-4.6024,-4.6717,-4.7382,-4.7924,-4.6956,-4.6012,-4.5815,-4.4932,-4.3777,-4.2905,-4.2602,-4.2153,-4.1471,-4.1057,-4.0956,-4.0749,-4.0749,-4.0593,-3.9963,-4.0111,-4.1116,-4.1729,-4.2001,-4.2387,-4.269,-4.286,-4.2895,-4.3075,-4.3275,-4.3305,-4.3305,-4.3305,-4.3305,-4.3305,-4.3305,-4.3305,-4.3305,-4.3305,-4.3305,-4.3305,-4.3369,-4.363,-4.3849,-4.4066,-4.5079,-4.6202,-4.722,-4.7605,-4.7902,-4.7885,-4.7322,-4.6908,-4.6808,-4.6245,-4.6092,-4.6404,-4.6171,-4.5937,-4.5602,-4.4923,-4.4265,-4.4182,-4.3992,-4.3876,-4.3835,-4.3939,-4.3969,-4.3998,-4.4056,-4.4068,-4.4097,-4.4155,-4.4167,-4.4241,-4.4327,-4.444,-4.444,-4.444,-4.4468,-4.4457,-4.4485,-4.4514,-4.4514,-4.4542,-4.4542,-4.4514,-4.4497,-4.4598,-4.4598,-4.4598,-4.4598,-4.4598,-4.4682,-4.4733,-4.4959,-4.524,-4.5307,-4.5261,-4.4917,-4.4633,-4.4345,-4.405,-4.4134,-4.4653,-4.5042,-4.5316,-4.5348,-4.5216,-4.5008,-4.4851,-4.4235,-4.4617,-4.5846,-4.6398,-4.6781,-4.7391,-4.7754,-4.7589,-4.7473,-4.6528,-4.5752,-4.5937,-4.5696,-4.4703,-4.3968,-4.3663,-4.2867,-4.2048,-4.1673,-4.1426,-4.1209,-4.1122,-4.1156,-3.9403,-3.9478,-4.0038,-4.0651,-4.1205,-4.1287,-4.1737,-4.2351,-4.241,-4.2746,-4.3245,-4.3305,-4.3305,-4.3305,-4.3305,-4.3305,-4.3305,-4.3305,-4.3305,-4.3305,-4.3305,-4.3488,-4.381,-4.4105,-4.4472,-4.5116,-4.606,-4.6931,-4.7853,-4.8001,-4.7968,-4.7852,-4.7504,-4.704,-4.6841,-4.6625,-4.6573,-4.6982,-4.7012,-4.6972,-4.6538,-4.5971,-4.5243,-4.4807,-4.4499,-4.4202,-4.4147,-4.4126,-4.4126,-4.4172,-4.42,-4.4229,-4.4241,-4.4315,-4.4327,-4.4384,-4.4485,-4.4542,-4.457,-4.4497,-4.4542,-4.4587,-4.4587,-4.457,-4.457,-4.457,-4.457,-4.4587,-4.457,-4.4688,-4.4688,-4.4767,-4.4767,-4.4953,-4.5055,-4.5241,-4.5618,-4.5894,-4.5885,-4.5958,-4.575,-4.5491,-4.4986,-4.4691,-4.5022,-4.5556,-4.5897,-4.6218,-4.6394,-4.6182,-4.5964,-4.6115,-4.5998,-4.6709,-4.7424,-4.7638,-4.7638,-4.7867,-4.8032,-4.7589,-4.7104,-4.6583,-4.638,-4.6585,-4.6142,-4.557,-4.5057,-4.4675,-4.3778,-4.2847,-4.2165,-4.1868,-4.1964,-4.1882,-4.2012,-3.9388,-3.9403,-3.9559,-3.9978,-4.0546,-4.0591,-4.1265,-4.2276,-4.2366,-4.2716,-4.314,-4.329,-4.3305,-4.3305,-4.3305,-4.3305,-4.3305,-4.3305,-4.3305,-4.3305,-4.3305,-4.3708,-4.4205,-4.4684,-4.53,-4.606,-4.6777,-4.722,-4.7902,-4.8001,-4.8001,-4.7951,-4.7951,-4.7752,-4.7736,-4.7536,-4.7518,-4.7762,-4.7858,-4.7855,-4.7663,-4.6943,-4.5825,-4.5356,-4.5051,-4.4599,-4.431,-4.4212,-4.4253,-4.431,-4.4384,-4.4429,-4.4457,-4.4485,-4.4514,-4.4514,-4.457,-4.457,-4.457,-4.4497,-4.4514,-4.4587,-4.457,-4.4514,-4.4542,-4.457,-4.4587,-4.4575,-4.4677,-4.4998,-4.5128,-4.5314,-4.5399,-4.5906,-4.6177,-4.6599,-4.7005,-4.6806,-4.6649,-4.6684,-4.6634,-4.5955,-4.505,-4.5101,-4.5525,-4.5877,-4.6005,-4.6359,-4.7017,-4.6949,-4.688,-4.7119,-4.7372,-4.7119,-4.7103,-4.7786,-4.7997,-4.8257,-4.8274,-4.7754,-4.7355,-4.7051,-4.695,-4.7002,-4.7157,-4.6897,-4.6372,-4.5766,-4.4838,-4.388,-4.28,-4.2302,-4.2446,-4.2846,-4.3119]}]]